Wetterdaten: Samstag, 30.06.2018
Datum Zeit Temp. A. Feuchte A. Luftdruck Regen Wind Richtung Richtung Sonnenschein ET UV Solar Taupunkt Windchill Windböen
30.06.2018 00:00 13,4 °C 95 % 1013,3 hPa 0,0 mm 0,0 km/h (0 Bft) O-NO 77 ° 0 min 0,000 mm 0,0 UV-I 0 W/m² 12,6 °C 13,4 °C 0,0 km/h (0 Bft)
30.06.2018 00:01 13,4 °C 95 % 1013,3 hPa 0,0 mm 0,0 km/h (0 Bft) O-NO 76 ° 0 min 0,000 mm 0,0 UV-I 0 W/m² 12,6 °C 13,4 °C 0,0 km/h (0 Bft)
30.06.2018 00:03 13,5 °C 95 % 1013,3 hPa 0,0 mm 0,3 km/h (0 Bft) O-NO 77 ° 0 min 0,000 mm 0,0 UV-I 0 W/m² 12,7 °C 13,5 °C 1,6 km/h (1 Bft)
30.06.2018 00:04 13,5 °C 95 % 1013,3 hPa 0,0 mm 0,1 km/h (0 Bft) O-NO 77 ° 0 min 0,000 mm 0,0 UV-I 0 W/m² 12,7 °C 13,5 °C 1,6 km/h (1 Bft)
30.06.2018 00:05 13,5 °C 95 % 1013,2 hPa 0,0 mm 0,0 km/h (0 Bft) O-NO 77 ° 0 min 0,000 mm 0,0 UV-I 0 W/m² 12,7 °C 13,5 °C 0,0 km/h (0 Bft)
30.06.2018 00:06 13,5 °C 95 % 1013,3 hPa 0,0 mm 0,2 km/h (0 Bft) O-NO 77 ° 0 min 0,000 mm 0,0 UV-I 0 W/m² 12,7 °C 13,5 °C 1,6 km/h (1 Bft)
30.06.2018 00:07 13,6 °C 95 % 1013,2 hPa 0,0 mm 0,0 km/h (0 Bft) O-NO 77 ° 0 min 0,000 mm 0,0 UV-I 0 W/m² 12,8 °C 13,6 °C 0,0 km/h (0 Bft)
30.06.2018 00:08 13,5 °C 95 % 1013,3 hPa 0,0 mm 0,0 km/h (0 Bft) O-NO 77 ° 0 min 0,000 mm 0,0 UV-I 0 W/m² 12,7 °C 13,5 °C 0,0 km/h (0 Bft)
30.06.2018 00:09 13,6 °C 95 % 1013,2 hPa 0,0 mm 0,0 km/h (0 Bft) O-NO 77 ° 0 min 0,000 mm 0,0 UV-I 0 W/m² 12,8 °C 13,6 °C 0,0 km/h (0 Bft)
30.06.2018 00:10 13,6 °C 95 % 1013,3 hPa 0,0 mm 0,0 km/h (0 Bft) O-NO 77 ° 0 min 0,000 mm 0,0 UV-I 0 W/m² 12,8 °C 13,6 °C 0,0 km/h (0 Bft)
30.06.2018 00:11 13,6 °C 95 % 1013,2 hPa 0,0 mm 0,0 km/h (0 Bft) O-NO 77 ° 0 min 0,000 mm 0,0 UV-I 0 W/m² 12,8 °C 13,6 °C 0,0 km/h (0 Bft)
30.06.2018 00:12 13,6 °C 95 % 1013,2 hPa 0,0 mm 0,0 km/h (0 Bft) O-NO 77 ° 0 min 0,000 mm 0,0 UV-I 0 W/m² 12,8 °C 13,6 °C 0,0 km/h (0 Bft)
30.06.2018 00:13 13,6 °C 95 % 1013,2 hPa 0,0 mm 0,0 km/h (0 Bft) O-NO 77 ° 0 min 0,000 mm 0,0 UV-I 0 W/m² 12,8 °C 13,6 °C 0,0 km/h (0 Bft)
30.06.2018 00:14 13,6 °C 95 % 1013,2 hPa 0,0 mm 0,0 km/h (0 Bft) O-NO 77 ° 0 min 0,000 mm 0,0 UV-I 0 W/m² 12,8 °C 13,6 °C 0,0 km/h (0 Bft)
30.06.2018 00:15 13,5 °C 95 % 1013,1 hPa 0,0 mm 0,0 km/h (0 Bft) O-NO 76 ° 0 min 0,000 mm 0,0 UV-I 0 W/m² 12,7 °C 13,5 °C 0,0 km/h (0 Bft)
30.06.2018 00:16 13,5 °C 95 % 1013,1 hPa 0,0 mm 0,0 km/h (0 Bft) O-NO 77 ° 0 min 0,000 mm 0,0 UV-I 0 W/m² 12,7 °C 13,5 °C 0,0 km/h (0 Bft)
30.06.2018 00:17 13,6 °C 95 % 1013,2 hPa 0,0 mm 0,0 km/h (0 Bft) O-NO 77 ° 0 min 0,000 mm 0,0 UV-I 0 W/m² 12,8 °C 13,6 °C 0,0 km/h (0 Bft)
30.06.2018 00:18 13,5 °C 95 % 1013,1 hPa 0,0 mm 0,0 km/h (0 Bft) O-NO 77 ° 0 min 0,000 mm 0,0 UV-I 0 W/m² 12,7 °C 13,5 °C 0,0 km/h (0 Bft)
30.06.2018 00:19 13,5 °C 95 % 1013,1 hPa 0,0 mm 0,0 km/h (0 Bft) O-NO 77 ° 0 min 0,000 mm 0,0 UV-I 0 W/m² 12,7 °C 13,5 °C 0,0 km/h (0 Bft)
30.06.2018 00:20 13,5 °C 95 % 1013,2 hPa 0,0 mm 0,0 km/h (0 Bft) O-NO 77 ° 0 min 0,000 mm 0,0 UV-I 0 W/m² 12,7 °C 13,5 °C 0,0 km/h (0 Bft)
30.06.2018 00:21 13,6 °C 95 % 1013,1 hPa 0,0 mm 0,0 km/h (0 Bft) O-NO 77 ° 0 min 0,000 mm 0,0 UV-I 0 W/m² 12,8 °C 13,6 °C 0,0 km/h (0 Bft)
30.06.2018 00:22 13,6 °C 95 % 1013,2 hPa 0,0 mm 0,0 km/h (0 Bft) O-NO 77 ° 0 min 0,000 mm 0,0 UV-I 0 W/m² 12,8 °C 13,6 °C 0,0 km/h (0 Bft)
30.06.2018 00:23 13,6 °C 95 % 1013,1 hPa 0,0 mm 0,0 km/h (0 Bft) O-NO 77 ° 0 min 0,000 mm 0,0 UV-I 0 W/m² 12,8 °C 13,6 °C 0,0 km/h (0 Bft)
30.06.2018 00:24 13,6 °C 95 % 1013,1 hPa 0,0 mm 0,0 km/h (0 Bft) O-NO 76 ° 0 min 0,000 mm 0,0 UV-I 0 W/m² 12,8 °C 13,6 °C 0,0 km/h (0 Bft)
30.06.2018 00:25 13,5 °C 95 % 1013,2 hPa 0,0 mm 0,0 km/h (0 Bft) O-NO 76 ° 0 min 0,000 mm 0,0 UV-I 0 W/m² 12,7 °C 13,5 °C 0,0 km/h (0 Bft)
30.06.2018 00:26 13,4 °C 95 % 1013,2 hPa 0,0 mm 0,0 km/h (0 Bft) O-NO 77 ° 0 min 0,000 mm 0,0 UV-I 0 W/m² 12,6 °C 13,4 °C 0,0 km/h (0 Bft)
30.06.2018 00:27 13,3 °C 94 % 1013,2 hPa 0,0 mm 0,8 km/h (0 Bft) O-NO 77 ° 0 min 0,000 mm 0,0 UV-I 0 W/m² 12,4 °C 13,3 °C 3,2 km/h (1 Bft)
30.06.2018 00:28 13,2 °C 94 % 1013,2 hPa 0,0 mm 0,1 km/h (0 Bft) O-NO 76 ° 0 min 0,000 mm 0,0 UV-I 0 W/m² 12,3 °C 13,2 °C 1,6 km/h (1 Bft)
30.06.2018 00:29 13,1 °C 94 % 1013,2 hPa 0,0 mm 0,0 km/h (0 Bft) O-NO 77 ° 0 min 0,000 mm 0,0 UV-I 0 W/m² 12,2 °C 13,1 °C 0,0 km/h (0 Bft)
30.06.2018 00:30 12,9 °C 94 % 1013,1 hPa 0,0 mm 0,0 km/h (0 Bft) O-NO 77 ° 0 min 0,000 mm 0,0 UV-I 0 W/m² 12,0 °C 12,9 °C 0,0 km/h (0 Bft)
30.06.2018 00:31 12,9 °C 94 % 1013,1 hPa 0,0 mm 0,0 km/h (0 Bft) O-NO 77 ° 0 min 0,000 mm 0,0 UV-I 0 W/m² 12,0 °C 12,9 °C 0,0 km/h (0 Bft)
30.06.2018 00:32 12,9 °C 94 % 1013,2 hPa 0,0 mm 0,0 km/h (0 Bft) O-NO 77 ° 0 min 0,000 mm 0,0 UV-I 0 W/m² 12,0 °C 12,9 °C 0,0 km/h (0 Bft)
30.06.2018 00:33 12,9 °C 95 % 1013,2 hPa 0,0 mm 0,0 km/h (0 Bft) O-NO 76 ° 0 min 0,000 mm 0,0 UV-I 0 W/m² 12,1 °C 12,9 °C 0,0 km/h (0 Bft)
30.06.2018 00:34 12,9 °C 95 % 1013,1 hPa 0,0 mm 0,0 km/h (0 Bft) O-NO 76 ° 0 min 0,000 mm 0,0 UV-I 0 W/m² 12,1 °C 12,9 °C 0,0 km/h (0 Bft)
30.06.2018 00:35 12,9 °C 95 % 1013,1 hPa 0,0 mm 0,0 km/h (0 Bft) O-NO 76 ° 0 min 0,000 mm 0,0 UV-I 0 W/m² 12,1 °C 12,9 °C 0,0 km/h (0 Bft)
30.06.2018 00:36 12,9 °C 95 % 1013,1 hPa 0,0 mm 0,0 km/h (0 Bft) O-NO 76 ° 0 min 0,000 mm 0,0 UV-I 0 W/m² 12,1 °C 12,9 °C 0,0 km/h (0 Bft)
30.06.2018 00:37 13,0 °C 95 % 1013,1 hPa 0,0 mm 0,0 km/h (0 Bft) O-NO 77 ° 0 min 0,000 mm 0,0 UV-I 0 W/m² 12,2 °C 13,0 °C 0,0 km/h (0 Bft)
30.06.2018 00:38 12,9 °C 95 % 1013,1 hPa 0,0 mm 0,0 km/h (0 Bft) O-NO 76 ° 0 min 0,000 mm 0,0 UV-I 0 W/m² 12,1 °C 12,9 °C 0,0 km/h (0 Bft)
30.06.2018 00:39 12,9 °C 95 % 1013,2 hPa 0,0 mm 0,0 km/h (0 Bft) O-NO 77 ° 0 min 0,000 mm 0,0 UV-I 0 W/m² 12,1 °C 12,9 °C 0,0 km/h (0 Bft)
30.06.2018 00:40 12,8 °C 95 % 1013,2 hPa 0,0 mm 0,0 km/h (0 Bft) O-NO 76 ° 0 min 0,000 mm 0,0 UV-I 0 W/m² 12,0 °C 12,8 °C 0,0 km/h (0 Bft)
30.06.2018 00:41 12,7 °C 95 % 1013,2 hPa 0,0 mm 0,0 km/h (0 Bft) O-NO 76 ° 0 min 0,000 mm 0,0 UV-I 0 W/m² 11,9 °C 12,7 °C 0,0 km/h (0 Bft)
30.06.2018 00:42 12,6 °C 94 % 1013,1 hPa 0,0 mm 0,0 km/h (0 Bft) O-NO 77 ° 0 min 0,000 mm 0,0 UV-I 0 W/m² 11,7 °C 12,6 °C 0,0 km/h (0 Bft)
30.06.2018 00:43 12,6 °C 94 % 1013,1 hPa 0,0 mm 0,0 km/h (0 Bft) O-NO 77 ° 0 min 0,000 mm 0,0 UV-I 0 W/m² 11,7 °C 12,6 °C 0,0 km/h (0 Bft)
30.06.2018 00:44 12,6 °C 95 % 1013,1 hPa 0,0 mm 0,0 km/h (0 Bft) O-NO 77 ° 0 min 0,000 mm 0,0 UV-I 0 W/m² 11,8 °C 12,6 °C 0,0 km/h (0 Bft)
30.06.2018 00:45 12,6 °C 95 % 1013,1 hPa 0,0 mm 0,0 km/h (0 Bft) O-NO 77 ° 0 min 0,000 mm 0,0 UV-I 0 W/m² 11,8 °C 12,6 °C 0,0 km/h (0 Bft)
30.06.2018 00:46 12,5 °C 95 % 1013,1 hPa 0,0 mm 0,0 km/h (0 Bft) O-NO 76 ° 0 min 0,000 mm 0,0 UV-I 0 W/m² 11,7 °C 12,5 °C 0,0 km/h (0 Bft)
30.06.2018 00:47 12,6 °C 95 % 1013,1 hPa 0,0 mm 0,0 km/h (0 Bft) O-NO 77 ° 0 min 0,000 mm 0,0 UV-I 0 W/m² 11,8 °C 12,6 °C 0,0 km/h (0 Bft)
30.06.2018 00:48 12,6 °C 95 % 1013,1 hPa 0,0 mm 0,0 km/h (0 Bft) O-NO 77 ° 0 min 0,000 mm 0,0 UV-I 0 W/m² 11,8 °C 12,6 °C 0,0 km/h (0 Bft)
30.06.2018 00:49 12,6 °C 95 % 1013,1 hPa 0,0 mm 0,0 km/h (0 Bft) O-NO 76 ° 0 min 0,000 mm 0,0 UV-I 0 W/m² 11,8 °C 12,6 °C 0,0 km/h (0 Bft)
30.06.2018 00:50 12,7 °C 95 % 1013,1 hPa 0,0 mm 0,0 km/h (0 Bft) O-NO 77 ° 0 min 0,000 mm 0,0 UV-I 0 W/m² 11,9 °C 12,7 °C 0,0 km/h (0 Bft)
30.06.2018 00:51 12,7 °C 95 % 1013,1 hPa 0,0 mm 0,0 km/h (0 Bft) O-NO 77 ° 0 min 0,000 mm 0,0 UV-I 0 W/m² 11,9 °C 12,7 °C 0,0 km/h (0 Bft)
30.06.2018 00:52 12,8 °C 95 % 1013,1 hPa 0,0 mm 0,0 km/h (0 Bft) O-NO 77 ° 0 min 0,000 mm 0,0 UV-I 0 W/m² 12,0 °C 12,8 °C 0,0 km/h (0 Bft)
30.06.2018 00:53 12,8 °C 95 % 1013,0 hPa 0,0 mm 0,0 km/h (0 Bft) O-NO 77 ° 0 min 0,000 mm 0,0 UV-I 0 W/m² 12,0 °C 12,8 °C 0,0 km/h (0 Bft)
30.06.2018 00:54 12,8 °C 95 % 1013,0 hPa 0,0 mm 0,0 km/h (0 Bft) O-NO 77 ° 0 min 0,000 mm 0,0 UV-I 0 W/m² 12,0 °C 12,8 °C 0,0 km/h (0 Bft)
30.06.2018 00:55 12,8 °C 95 % 1013,1 hPa 0,0 mm 0,0 km/h (0 Bft) O-NO 77 ° 0 min 0,000 mm 0,0 UV-I 0 W/m² 12,0 °C 12,8 °C 0,0 km/h (0 Bft)
30.06.2018 00:56 12,8 °C 95 % 1013,0 hPa 0,0 mm 0,0 km/h (0 Bft) O-NO 77 ° 0 min 0,000 mm 0,0 UV-I 0 W/m² 12,0 °C 12,8 °C 0,0 km/h (0 Bft)
30.06.2018 00:57 12,8 °C 95 % 1013,0 hPa 0,0 mm 0,0 km/h (0 Bft) O-NO 77 ° 0 min 0,000 mm 0,0 UV-I 0 W/m² 12,0 °C 12,8 °C 0,0 km/h (0 Bft)
30.06.2018 00:58 12,7 °C 95 % 1013,0 hPa 0,0 mm 0,0 km/h (0 Bft) O-NO 77 ° 0 min 0,000 mm 0,0 UV-I 0 W/m² 11,9 °C 12,7 °C 0,0 km/h (0 Bft)
30.06.2018 00:59 12,7 °C 95 % 1013,0 hPa 0,0 mm 0,0 km/h (0 Bft) O-NO 76 ° 0 min 0,000 mm 0,0 UV-I 0 W/m² 11,9 °C 12,7 °C 0,0 km/h (0 Bft)
30.06.2018 01:00 12,6 °C 95 % 1012,9 hPa 0,0 mm 0,0 km/h (0 Bft) O-NO 77 ° 0 min 0,000 mm 0,0 UV-I 0 W/m² 11,8 °C 12,6 °C 0,0 km/h (0 Bft)
30.06.2018 01:01 12,5 °C 95 % 1013,0 hPa 0,0 mm 0,0 km/h (0 Bft) O-NO 77 ° 0 min 0,000 mm 0,0 UV-I 0 W/m² 11,7 °C 12,5 °C 0,0 km/h (0 Bft)
30.06.2018 01:02 12,5 °C 95 % 1012,9 hPa 0,0 mm 0,0 km/h (0 Bft) O-NO 77 ° 0 min 0,000 mm 0,0 UV-I 0 W/m² 11,7 °C 12,5 °C 0,0 km/h (0 Bft)
30.06.2018 01:03 12,5 °C 95 % 1012,9 hPa 0,0 mm 0,0 km/h (0 Bft) O-NO 77 ° 0 min 0,000 mm 0,0 UV-I 0 W/m² 11,7 °C 12,5 °C 0,0 km/h (0 Bft)
30.06.2018 01:04 12,5 °C 95 % 1012,9 hPa 0,0 mm 0,0 km/h (0 Bft) O-NO 76 ° 0 min 0,000 mm 0,0 UV-I 0 W/m² 11,7 °C 12,5 °C 0,0 km/h (0 Bft)
30.06.2018 01:05 12,5 °C 95 % 1012,9 hPa 0,0 mm 0,0 km/h (0 Bft) O-NO 77 ° 0 min 0,000 mm 0,0 UV-I 0 W/m² 11,7 °C 12,5 °C 0,0 km/h (0 Bft)
30.06.2018 01:06 12,4 °C 95 % 1012,9 hPa 0,0 mm 0,0 km/h (0 Bft) O-NO 76 ° 0 min 0,000 mm 0,0 UV-I 0 W/m² 11,6 °C 12,4 °C 0,0 km/h (0 Bft)
30.06.2018 01:07 12,4 °C 95 % 1012,9 hPa 0,0 mm 0,0 km/h (0 Bft) O-NO 76 ° 0 min 0,000 mm 0,0 UV-I 0 W/m² 11,6 °C 12,4 °C 0,0 km/h (0 Bft)
30.06.2018 01:08 12,4 °C 95 % 1012,9 hPa 0,0 mm 0,0 km/h (0 Bft) O-NO 77 ° 0 min 0,000 mm 0,0 UV-I 0 W/m² 11,6 °C 12,4 °C 0,0 km/h (0 Bft)
30.06.2018 01:09 12,3 °C 95 % 1012,9 hPa 0,0 mm 0,0 km/h (0 Bft) O-NO 77 ° 0 min 0,000 mm 0,0 UV-I 0 W/m² 11,5 °C 12,3 °C 0,0 km/h (0 Bft)
30.06.2018 01:10 12,2 °C 95 % 1012,9 hPa 0,0 mm 0,0 km/h (0 Bft) O-NO 76 ° 0 min 0,000 mm 0,0 UV-I 0 W/m² 11,4 °C 12,2 °C 0,0 km/h (0 Bft)
30.06.2018 01:11 12,2 °C 95 % 1012,9 hPa 0,0 mm 0,0 km/h (0 Bft) O-NO 77 ° 0 min 0,000 mm 0,0 UV-I 0 W/m² 11,4 °C 12,2 °C 0,0 km/h (0 Bft)
30.06.2018 01:12 12,2 °C 95 % 1012,9 hPa 0,0 mm 0,0 km/h (0 Bft) O-NO 77 ° 0 min 0,000 mm 0,0 UV-I 0 W/m² 11,4 °C 12,2 °C 0,0 km/h (0 Bft)
30.06.2018 01:13 12,3 °C 95 % 1012,9 hPa 0,0 mm 0,0 km/h (0 Bft) O-NO 76 ° 0 min 0,000 mm 0,0 UV-I 0 W/m² 11,5 °C 12,3 °C 0,0 km/h (0 Bft)
30.06.2018 01:14 12,3 °C 95 % 1012,9 hPa 0,0 mm 0,0 km/h (0 Bft) O-NO 77 ° 0 min 0,000 mm 0,0 UV-I 0 W/m² 11,5 °C 12,3 °C 0,0 km/h (0 Bft)
30.06.2018 01:15 12,4 °C 95 % 1012,9 hPa 0,0 mm 0,0 km/h (0 Bft) O-NO 76 ° 0 min 0,000 mm 0,0 UV-I 0 W/m² 11,6 °C 12,4 °C 0,0 km/h (0 Bft)
30.06.2018 01:16 12,5 °C 95 % 1012,9 hPa 0,0 mm 0,0 km/h (0 Bft) O-NO 77 ° 0 min 0,000 mm 0,0 UV-I 0 W/m² 11,7 °C 12,5 °C 0,0 km/h (0 Bft)
30.06.2018 01:17 12,6 °C 96 % 1012,8 hPa 0,0 mm 0,0 km/h (0 Bft) O-NO 77 ° 0 min 0,000 mm 0,0 UV-I 0 W/m² 12,0 °C 12,6 °C 0,0 km/h (0 Bft)
30.06.2018 01:18 12,6 °C 96 % 1012,8 hPa 0,0 mm 0,0 km/h (0 Bft) O-NO 77 ° 0 min 0,000 mm 0,0 UV-I 0 W/m² 12,0 °C 12,6 °C 0,0 km/h (0 Bft)
30.06.2018 01:19 12,6 °C 95 % 1012,8 hPa 0,0 mm 0,0 km/h (0 Bft) O-NO 76 ° 0 min 0,000 mm 0,0 UV-I 0 W/m² 11,8 °C 12,6 °C 0,0 km/h (0 Bft)
30.06.2018 01:20 12,6 °C 95 % 1012,8 hPa 0,0 mm 0,0 km/h (0 Bft) O-NO 77 ° 0 min 0,000 mm 0,0 UV-I 0 W/m² 11,8 °C 12,6 °C 0,0 km/h (0 Bft)
30.06.2018 01:21 12,7 °C 95 % 1012,8 hPa 0,0 mm 0,0 km/h (0 Bft) O-NO 77 ° 0 min 0,000 mm 0,0 UV-I 0 W/m² 11,9 °C 12,7 °C 0,0 km/h (0 Bft)
30.06.2018 01:22 12,7 °C 95 % 1012,8 hPa 0,0 mm 0,0 km/h (0 Bft) O-NO 77 ° 0 min 0,000 mm 0,0 UV-I 0 W/m² 11,9 °C 12,7 °C 0,0 km/h (0 Bft)
30.06.2018 01:23 12,7 °C 95 % 1012,8 hPa 0,0 mm 0,0 km/h (0 Bft) O-NO 77 ° 0 min 0,000 mm 0,0 UV-I 0 W/m² 11,9 °C 12,7 °C 0,0 km/h (0 Bft)
30.06.2018 01:24 12,7 °C 95 % 1012,8 hPa 0,0 mm 0,0 km/h (0 Bft) O-NO 77 ° 0 min 0,000 mm 0,0 UV-I 0 W/m² 11,9 °C 12,7 °C 0,0 km/h (0 Bft)
30.06.2018 01:25 12,6 °C 95 % 1012,8 hPa 0,0 mm 0,0 km/h (0 Bft) O-NO 77 ° 0 min 0,000 mm 0,0 UV-I 0 W/m² 11,8 °C 12,6 °C 0,0 km/h (0 Bft)
30.06.2018 01:26 12,6 °C 95 % 1012,8 hPa 0,0 mm 0,0 km/h (0 Bft) O-NO 77 ° 0 min 0,000 mm 0,0 UV-I 0 W/m² 11,8 °C 12,6 °C 0,0 km/h (0 Bft)
30.06.2018 01:27 12,4 °C 95 % 1012,8 hPa 0,0 mm 0,0 km/h (0 Bft) O-NO 77 ° 0 min 0,000 mm 0,0 UV-I 0 W/m² 11,6 °C 12,4 °C 0,0 km/h (0 Bft)
30.06.2018 01:28 12,4 °C 95 % 1012,8 hPa 0,0 mm 0,0 km/h (0 Bft) O-NO 77 ° 0 min 0,000 mm 0,0 UV-I 0 W/m² 11,6 °C 12,4 °C 0,0 km/h (0 Bft)
30.06.2018 01:29 12,4 °C 95 % 1012,8 hPa 0,0 mm 0,0 km/h (0 Bft) O-NO 77 ° 0 min 0,000 mm 0,0 UV-I 0 W/m² 11,6 °C 12,4 °C 0,0 km/h (0 Bft)
30.06.2018 01:30 12,3 °C 95 % 1012,7 hPa 0,0 mm 0,0 km/h (0 Bft) O-NO 76 ° 0 min 0,000 mm 0,0 UV-I 0 W/m² 11,5 °C 12,3 °C 0,0 km/h (0 Bft)
30.06.2018 01:31 12,3 °C 95 % 1012,8 hPa 0,0 mm 0,0 km/h (0 Bft) O-NO 77 ° 0 min 0,000 mm 0,0 UV-I 0 W/m² 11,5 °C 12,3 °C 0,0 km/h (0 Bft)
30.06.2018 01:32 12,3 °C 95 % 1012,7 hPa 0,0 mm 0,0 km/h (0 Bft) O-NO 77 ° 0 min 0,000 mm 0,0 UV-I 0 W/m² 11,5 °C 12,3 °C 0,0 km/h (0 Bft)
30.06.2018 01:33 12,3 °C 95 % 1012,7 hPa 0,0 mm 0,0 km/h (0 Bft) O-NO 77 ° 0 min 0,000 mm 0,0 UV-I 0 W/m² 11,5 °C 12,3 °C 0,0 km/h (0 Bft)
30.06.2018 01:34 12,4 °C 95 % 1012,7 hPa 0,0 mm 0,0 km/h (0 Bft) O-NO 77 ° 0 min 0,000 mm 0,0 UV-I 0 W/m² 11,6 °C 12,4 °C 0,0 km/h (0 Bft)
30.06.2018 01:35 12,4 °C 95 % 1012,7 hPa 0,0 mm 0,0 km/h (0 Bft) O-NO 77 ° 0 min 0,000 mm 0,0 UV-I 0 W/m² 11,6 °C 12,4 °C 0,0 km/h (0 Bft)
30.06.2018 01:36 12,4 °C 95 % 1012,7 hPa 0,0 mm 0,0 km/h (0 Bft) O-NO 77 ° 0 min 0,000 mm 0,0 UV-I 0 W/m² 11,6 °C 12,4 °C 0,0 km/h (0 Bft)
30.06.2018 01:37 12,4 °C 95 % 1012,8 hPa 0,0 mm 0,0 km/h (0 Bft) O-NO 77 ° 0 min 0,000 mm 0,0 UV-I 0 W/m² 11,6 °C 12,4 °C 0,0 km/h (0 Bft)
30.06.2018 01:38 12,5 °C 95 % 1012,7 hPa 0,0 mm 0,8 km/h (0 Bft) O-NO 77 ° 0 min 0,000 mm 0,0 UV-I 0 W/m² 11,7 °C 12,5 °C 3,2 km/h (1 Bft)
30.06.2018 01:39 12,6 °C 96 % 1012,7 hPa 0,0 mm 0,0 km/h (0 Bft) O-NO 77 ° 0 min 0,000 mm 0,0 UV-I 0 W/m² 12,0 °C 12,6 °C 0,0 km/h (0 Bft)
30.06.2018 01:40 12,7 °C 96 % 1012,7 hPa 0,0 mm 0,0 km/h (0 Bft) O-NO 77 ° 0 min 0,000 mm 0,0 UV-I 0 W/m² 12,1 °C 12,7 °C 0,0 km/h (0 Bft)
30.06.2018 01:41 12,7 °C 96 % 1012,7 hPa 0,0 mm 0,1 km/h (0 Bft) O-NO 76 ° 0 min 0,000 mm 0,0 UV-I 0 W/m² 12,1 °C 12,7 °C 1,6 km/h (1 Bft)
30.06.2018 01:42 12,7 °C 95 % 1012,7 hPa 0,0 mm 0,1 km/h (0 Bft) O-NO 76 ° 0 min 0,000 mm 0,0 UV-I 0 W/m² 11,9 °C 12,7 °C 1,6 km/h (1 Bft)
30.06.2018 01:43 12,8 °C 95 % 1012,7 hPa 0,0 mm 0,0 km/h (0 Bft) O-NO 77 ° 0 min 0,000 mm 0,0 UV-I 0 W/m² 12,0 °C 12,8 °C 0,0 km/h (0 Bft)
30.06.2018 01:44 12,8 °C 95 % 1012,8 hPa 0,0 mm 0,0 km/h (0 Bft) O-NO 77 ° 0 min 0,000 mm 0,0 UV-I 0 W/m² 12,0 °C 12,8 °C 0,0 km/h (0 Bft)
30.06.2018 01:45 12,8 °C 95 % 1012,8 hPa 0,0 mm 0,0 km/h (0 Bft) O-NO 76 ° 0 min 0,000 mm 0,0 UV-I 0 W/m² 12,0 °C 12,8 °C 0,0 km/h (0 Bft)
30.06.2018 01:46 12,8 °C 95 % 1012,7 hPa 0,0 mm 0,0 km/h (0 Bft) O-NO 77 ° 0 min 0,000 mm 0,0 UV-I 0 W/m² 12,0 °C 12,8 °C 0,0 km/h (0 Bft)
30.06.2018 01:47 12,8 °C 95 % 1012,7 hPa 0,0 mm 0,0 km/h (0 Bft) O-NO 76 ° 0 min 0,000 mm 0,0 UV-I 0 W/m² 12,0 °C 12,8 °C 0,0 km/h (0 Bft)
30.06.2018 01:48 12,7 °C 95 % 1012,7 hPa 0,0 mm 0,0 km/h (0 Bft) O-NO 77 ° 0 min 0,000 mm 0,0 UV-I 0 W/m² 11,9 °C 12,7 °C 0,0 km/h (0 Bft)
30.06.2018 01:49 12,7 °C 95 % 1012,7 hPa 0,0 mm 0,0 km/h (0 Bft) O-NO 76 ° 0 min 0,000 mm 0,0 UV-I 0 W/m² 11,9 °C 12,7 °C 0,0 km/h (0 Bft)
30.06.2018 01:50 12,7 °C 95 % 1012,7 hPa 0,0 mm 0,0 km/h (0 Bft) O-NO 76 ° 0 min 0,000 mm 0,0 UV-I 0 W/m² 11,9 °C 12,7 °C 0,0 km/h (0 Bft)
30.06.2018 01:51 12,7 °C 95 % 1012,7 hPa 0,0 mm 0,0 km/h (0 Bft) O-NO 77 ° 0 min 0,000 mm 0,0 UV-I 0 W/m² 11,9 °C 12,7 °C 0,0 km/h (0 Bft)
30.06.2018 01:52 12,6 °C 95 % 1012,7 hPa 0,0 mm 0,0 km/h (0 Bft) O-NO 76 ° 0 min 0,000 mm 0,0 UV-I 0 W/m² 11,8 °C 12,6 °C 0,0 km/h (0 Bft)
30.06.2018 01:53 12,7 °C 95 % 1012,7 hPa 0,0 mm 0,0 km/h (0 Bft) O-NO 77 ° 0 min 0,000 mm 0,0 UV-I 0 W/m² 11,9 °C 12,7 °C 0,0 km/h (0 Bft)
30.06.2018 01:54 12,6 °C 95 % 1012,7 hPa 0,0 mm 0,0 km/h (0 Bft) O-NO 77 ° 0 min 0,000 mm 0,0 UV-I 0 W/m² 11,8 °C 12,6 °C 0,0 km/h (0 Bft)
30.06.2018 01:55 12,6 °C 95 % 1012,6 hPa 0,0 mm 0,0 km/h (0 Bft) O-NO 77 ° 0 min 0,000 mm 0,0 UV-I 0 W/m² 11,8 °C 12,6 °C 0,0 km/h (0 Bft)
30.06.2018 01:56 12,7 °C 95 % 1012,6 hPa 0,0 mm 0,0 km/h (0 Bft) O-NO 76 ° 0 min 0,000 mm 0,0 UV-I 0 W/m² 11,9 °C 12,7 °C 0,0 km/h (0 Bft)
30.06.2018 01:57 12,7 °C 95 % 1012,6 hPa 0,0 mm 0,0 km/h (0 Bft) O-NO 77 ° 0 min 0,000 mm 0,0 UV-I 0 W/m² 11,9 °C 12,7 °C 0,0 km/h (0 Bft)
30.06.2018 01:58 12,7 °C 95 % 1012,6 hPa 0,0 mm 0,0 km/h (0 Bft) O-NO 77 ° 0 min 0,000 mm 0,0 UV-I 0 W/m² 11,9 °C 12,7 °C 0,0 km/h (0 Bft)
30.06.2018 01:59 12,7 °C 95 % 1012,6 hPa 0,0 mm 0,0 km/h (0 Bft) O-NO 77 ° 0 min 0,000 mm 0,0 UV-I 0 W/m² 11,9 °C 12,7 °C 0,0 km/h (0 Bft)
30.06.2018 02:00 12,6 °C 95 % 1012,6 hPa 0,0 mm 0,0 km/h (0 Bft) O-NO 76 ° 0 min 0,000 mm 0,0 UV-I 0 W/m² 11,8 °C 12,6 °C 0,0 km/h (0 Bft)
30.06.2018 02:01 12,6 °C 95 % 1012,7 hPa 0,0 mm 0,0 km/h (0 Bft) O-NO 77 ° 0 min 0,000 mm 0,0 UV-I 0 W/m² 11,8 °C 12,6 °C 0,0 km/h (0 Bft)
30.06.2018 02:02 12,5 °C 95 % 1012,7 hPa 0,0 mm 0,0 km/h (0 Bft) O-NO 76 ° 0 min 0,000 mm 0,0 UV-I 0 W/m² 11,7 °C 12,5 °C 0,0 km/h (0 Bft)
30.06.2018 02:03 12,5 °C 95 % 1012,7 hPa 0,0 mm 0,0 km/h (0 Bft) O-NO 76 ° 0 min 0,000 mm 0,0 UV-I 0 W/m² 11,7 °C 12,5 °C 0,0 km/h (0 Bft)
30.06.2018 02:04 12,5 °C 95 % 1012,6 hPa 0,0 mm 0,0 km/h (0 Bft) O-NO 76 ° 0 min 0,000 mm 0,0 UV-I 0 W/m² 11,7 °C 12,5 °C 0,0 km/h (0 Bft)
30.06.2018 02:05 12,5 °C 95 % 1012,6 hPa 0,0 mm 0,0 km/h (0 Bft) O-NO 77 ° 0 min 0,000 mm 0,0 UV-I 0 W/m² 11,7 °C 12,5 °C 0,0 km/h (0 Bft)
30.06.2018 02:06 12,4 °C 95 % 1012,6 hPa 0,0 mm 0,0 km/h (0 Bft) O-NO 77 ° 0 min 0,000 mm 0,0 UV-I 0 W/m² 11,6 °C 12,4 °C 0,0 km/h (0 Bft)
30.06.2018 02:07 12,5 °C 95 % 1012,6 hPa 0,0 mm 0,0 km/h (0 Bft) O-NO 77 ° 0 min 0,000 mm 0,0 UV-I 0 W/m² 11,7 °C 12,5 °C 0,0 km/h (0 Bft)
30.06.2018 02:08 12,4 °C 95 % 1012,6 hPa 0,0 mm 0,0 km/h (0 Bft) O-NO 76 ° 0 min 0,000 mm 0,0 UV-I 0 W/m² 11,6 °C 12,4 °C 0,0 km/h (0 Bft)
30.06.2018 02:09 12,4 °C 95 % 1012,6 hPa 0,0 mm 0,0 km/h (0 Bft) O-NO 77 ° 0 min 0,000 mm 0,0 UV-I 0 W/m² 11,6 °C 12,4 °C 0,0 km/h (0 Bft)
30.06.2018 02:10 12,4 °C 95 % 1012,6 hPa 0,0 mm 0,0 km/h (0 Bft) O-NO 76 ° 0 min 0,000 mm 0,0 UV-I 0 W/m² 11,6 °C 12,4 °C 0,0 km/h (0 Bft)
30.06.2018 02:11 12,3 °C 95 % 1012,6 hPa 0,0 mm 0,0 km/h (0 Bft) O-NO 77 ° 0 min 0,000 mm 0,0 UV-I 0 W/m² 11,5 °C 12,3 °C 0,0 km/h (0 Bft)
30.06.2018 02:12 12,4 °C 95 % 1012,6 hPa 0,0 mm 0,0 km/h (0 Bft) O-NO 76 ° 0 min 0,000 mm 0,0 UV-I 0 W/m² 11,6 °C 12,4 °C 0,0 km/h (0 Bft)
30.06.2018 02:13 12,3 °C 95 % 1012,5 hPa 0,0 mm 0,0 km/h (0 Bft) O-NO 76 ° 0 min 0,000 mm 0,0 UV-I 0 W/m² 11,5 °C 12,3 °C 0,0 km/h (0 Bft)
30.06.2018 02:14 12,3 °C 95 % 1012,5 hPa 0,0 mm 0,0 km/h (0 Bft) O-NO 76 ° 0 min 0,000 mm 0,0 UV-I 0 W/m² 11,5 °C 12,3 °C 0,0 km/h (0 Bft)
30.06.2018 02:15 12,3 °C 95 % 1012,5 hPa 0,0 mm 0,0 km/h (0 Bft) O-NO 76 ° 0 min 0,000 mm 0,0 UV-I 0 W/m² 11,5 °C 12,3 °C 0,0 km/h (0 Bft)
30.06.2018 02:16 12,3 °C 95 % 1012,5 hPa 0,0 mm 0,0 km/h (0 Bft) O-NO 76 ° 0 min 0,000 mm 0,0 UV-I 0 W/m² 11,5 °C 12,3 °C 0,0 km/h (0 Bft)
30.06.2018 02:17 12,3 °C 95 % 1012,5 hPa 0,0 mm 0,0 km/h (0 Bft) O-NO 76 ° 0 min 0,000 mm 0,0 UV-I 0 W/m² 11,5 °C 12,3 °C 0,0 km/h (0 Bft)
30.06.2018 02:18 12,3 °C 95 % 1012,5 hPa 0,0 mm 0,0 km/h (0 Bft) O-NO 77 ° 0 min 0,000 mm 0,0 UV-I 0 W/m² 11,5 °C 12,3 °C 0,0 km/h (0 Bft)
30.06.2018 02:19 12,3 °C 95 % 1012,5 hPa 0,0 mm 0,0 km/h (0 Bft) O-NO 77 ° 0 min 0,000 mm 0,0 UV-I 0 W/m² 11,5 °C 12,3 °C 0,0 km/h (0 Bft)
30.06.2018 02:20 12,3 °C 95 % 1012,5 hPa 0,0 mm 0,0 km/h (0 Bft) O-NO 77 ° 0 min 0,000 mm 0,0 UV-I 0 W/m² 11,5 °C 12,3 °C 0,0 km/h (0 Bft)
30.06.2018 02:21 12,3 °C 95 % 1012,4 hPa 0,0 mm 0,0 km/h (0 Bft) O-NO 77 ° 0 min 0,000 mm 0,0 UV-I 0 W/m² 11,5 °C 12,3 °C 0,0 km/h (0 Bft)
30.06.2018 02:22 12,3 °C 95 % 1012,4 hPa 0,0 mm 0,0 km/h (0 Bft) O-NO 77 ° 0 min 0,000 mm 0,0 UV-I 0 W/m² 11,5 °C 12,3 °C 0,0 km/h (0 Bft)
30.06.2018 02:23 12,3 °C 95 % 1012,4 hPa 0,0 mm 0,0 km/h (0 Bft) O-NO 77 ° 0 min 0,000 mm 0,0 UV-I 0 W/m² 11,5 °C 12,3 °C 0,0 km/h (0 Bft)
30.06.2018 02:24 12,3 °C 95 % 1012,5 hPa 0,0 mm 0,0 km/h (0 Bft) O-NO 77 ° 0 min 0,000 mm 0,0 UV-I 0 W/m² 11,5 °C 12,3 °C 0,0 km/h (0 Bft)
30.06.2018 02:25 12,3 °C 95 % 1012,5 hPa 0,0 mm 0,3 km/h (0 Bft) O-NO 77 ° 0 min 0,000 mm 0,0 UV-I 0 W/m² 11,5 °C 12,3 °C 1,6 km/h (1 Bft)
30.06.2018 02:26 12,4 °C 95 % 1012,5 hPa 0,0 mm 0,0 km/h (0 Bft) O-NO 76 ° 0 min 0,000 mm 0,0 UV-I 0 W/m² 11,6 °C 12,4 °C 0,0 km/h (0 Bft)
30.06.2018 02:27 12,5 °C 95 % 1012,5 hPa 0,0 mm 0,0 km/h (0 Bft) O-NO 77 ° 0 min 0,000 mm 0,0 UV-I 0 W/m² 11,7 °C 12,5 °C 0,0 km/h (0 Bft)
30.06.2018 02:28 12,6 °C 95 % 1012,5 hPa 0,0 mm 0,0 km/h (0 Bft) O-NO 76 ° 0 min 0,000 mm 0,0 UV-I 0 W/m² 11,8 °C 12,6 °C 0,0 km/h (0 Bft)
30.06.2018 02:29 12,6 °C 96 % 1012,5 hPa 0,0 mm 0,0 km/h (0 Bft) O-NO 76 ° 0 min 0,000 mm 0,0 UV-I 0 W/m² 12,0 °C 12,6 °C 0,0 km/h (0 Bft)
30.06.2018 02:30 12,6 °C 96 % 1012,6 hPa 0,0 mm 0,0 km/h (0 Bft) O-NO 77 ° 0 min 0,000 mm 0,0 UV-I 0 W/m² 12,0 °C 12,6 °C 0,0 km/h (0 Bft)
30.06.2018 02:31 12,6 °C 96 % 1012,5 hPa 0,0 mm 0,0 km/h (0 Bft) O-NO 77 ° 0 min 0,000 mm 0,0 UV-I 0 W/m² 12,0 °C 12,6 °C 0,0 km/h (0 Bft)
30.06.2018 02:32 12,6 °C 96 % 1012,5 hPa 0,0 mm 0,3 km/h (0 Bft) O-NO 77 ° 0 min 0,000 mm 0,0 UV-I 0 W/m² 12,0 °C 12,6 °C 1,6 km/h (1 Bft)
30.06.2018 02:33 12,6 °C 95 % 1012,5 hPa 0,0 mm 0,1 km/h (0 Bft) O-NO 76 ° 0 min 0,000 mm 0,0 UV-I 0 W/m² 11,8 °C 12,6 °C 1,6 km/h (1 Bft)
30.06.2018 02:34 12,6 °C 95 % 1012,4 hPa 0,0 mm 0,0 km/h (0 Bft) O-NO 76 ° 0 min 0,000 mm 0,0 UV-I 0 W/m² 11,8 °C 12,6 °C 0,0 km/h (0 Bft)
30.06.2018 02:35 12,5 °C 95 % 1012,4 hPa 0,0 mm 0,0 km/h (0 Bft) O-NO 76 ° 0 min 0,000 mm 0,0 UV-I 0 W/m² 11,7 °C 12,5 °C 0,0 km/h (0 Bft)
30.06.2018 02:36 12,5 °C 95 % 1012,4 hPa 0,0 mm 0,0 km/h (0 Bft) O-NO 76 ° 0 min 0,000 mm 0,0 UV-I 0 W/m² 11,7 °C 12,5 °C 0,0 km/h (0 Bft)
30.06.2018 02:37 12,5 °C 95 % 1012,4 hPa 0,0 mm 0,0 km/h (0 Bft) O-NO 76 ° 0 min 0,000 mm 0,0 UV-I 0 W/m² 11,7 °C 12,5 °C 0,0 km/h (0 Bft)
30.06.2018 02:38 12,5 °C 95 % 1012,4 hPa 0,0 mm 0,0 km/h (0 Bft) O-NO 76 ° 0 min 0,000 mm 0,0 UV-I 0 W/m² 11,7 °C 12,5 °C 0,0 km/h (0 Bft)
30.06.2018 02:39 12,5 °C 95 % 1012,4 hPa 0,0 mm 0,0 km/h (0 Bft) O-NO 76 ° 0 min 0,000 mm 0,0 UV-I 0 W/m² 11,7 °C 12,5 °C 0,0 km/h (0 Bft)
30.06.2018 02:40 12,5 °C 95 % 1012,4 hPa 0,0 mm 0,0 km/h (0 Bft) O-NO 76 ° 0 min 0,000 mm 0,0 UV-I 0 W/m² 11,7 °C 12,5 °C 0,0 km/h (0 Bft)
30.06.2018 02:41 12,5 °C 95 % 1012,4 hPa 0,0 mm 0,0 km/h (0 Bft) O-NO 77 ° 0 min 0,000 mm 0,0 UV-I 0 W/m² 11,7 °C 12,5 °C 0,0 km/h (0 Bft)
30.06.2018 02:42 12,4 °C 95 % 1012,4 hPa 0,0 mm 0,7 km/h (0 Bft) O-NO 77 ° 0 min 0,000 mm 0,0 UV-I 0 W/m² 11,6 °C 12,4 °C 3,2 km/h (1 Bft)
30.06.2018 02:43 12,4 °C 95 % 1012,4 hPa 0,0 mm 0,0 km/h (0 Bft) O-NO 77 ° 0 min 0,000 mm 0,0 UV-I 0 W/m² 11,6 °C 12,4 °C 0,0 km/h (0 Bft)
30.06.2018 02:44 12,4 °C 95 % 1012,4 hPa 0,0 mm 0,0 km/h (0 Bft) O-NO 77 ° 0 min 0,000 mm 0,0 UV-I 0 W/m² 11,6 °C 12,4 °C 0,0 km/h (0 Bft)
30.06.2018 02:45 12,3 °C 95 % 1012,3 hPa 0,0 mm 0,0 km/h (0 Bft) O-NO 77 ° 0 min 0,000 mm 0,0 UV-I 0 W/m² 11,5 °C 12,3 °C 0,0 km/h (0 Bft)
30.06.2018 02:46 12,3 °C 95 % 1012,3 hPa 0,0 mm 0,0 km/h (0 Bft) O-NO 76 ° 0 min 0,000 mm 0,0 UV-I 0 W/m² 11,5 °C 12,3 °C 0,0 km/h (0 Bft)
30.06.2018 02:47 12,3 °C 95 % 1012,3 hPa 0,0 mm 0,0 km/h (0 Bft) O-NO 77 ° 0 min 0,000 mm 0,0 UV-I 0 W/m² 11,5 °C 12,3 °C 0,0 km/h (0 Bft)
30.06.2018 02:48 12,3 °C 95 % 1012,3 hPa 0,0 mm 0,0 km/h (0 Bft) O-NO 77 ° 0 min 0,000 mm 0,0 UV-I 0 W/m² 11,5 °C 12,3 °C 0,0 km/h (0 Bft)
30.06.2018 02:49 12,3 °C 95 % 1012,3 hPa 0,0 mm 0,0 km/h (0 Bft) O-NO 76 ° 0 min 0,000 mm 0,0 UV-I 0 W/m² 11,5 °C 12,3 °C 0,0 km/h (0 Bft)
30.06.2018 02:50 12,3 °C 95 % 1012,3 hPa 0,0 mm 0,0 km/h (0 Bft) O-NO 76 ° 0 min 0,000 mm 0,0 UV-I 0 W/m² 11,5 °C 12,3 °C 0,0 km/h (0 Bft)
30.06.2018 02:51 12,3 °C 95 % 1012,3 hPa 0,0 mm 0,0 km/h (0 Bft) O-NO 76 ° 0 min 0,000 mm 0,0 UV-I 0 W/m² 11,5 °C 12,3 °C 0,0 km/h (0 Bft)
30.06.2018 02:52 12,3 °C 95 % 1012,3 hPa 0,0 mm 0,4 km/h (0 Bft) O-NO 76 ° 0 min 0,000 mm 0,0 UV-I 0 W/m² 11,5 °C 12,3 °C 1,6 km/h (1 Bft)
30.06.2018 02:53 12,3 °C 95 % 1012,3 hPa 0,0 mm 0,0 km/h (0 Bft) O-NO 77 ° 0 min 0,000 mm 0,0 UV-I 0 W/m² 11,5 °C 12,3 °C 0,0 km/h (0 Bft)
30.06.2018 02:54 12,2 °C 95 % 1012,3 hPa 0,0 mm 0,0 km/h (0 Bft) O-NO 76 ° 0 min 0,000 mm 0,0 UV-I 0 W/m² 11,4 °C 12,2 °C 0,0 km/h (0 Bft)
30.06.2018 02:55 12,2 °C 95 % 1012,3 hPa 0,0 mm 0,0 km/h (0 Bft) O-NO 77 ° 0 min 0,000 mm 0,0 UV-I 0 W/m² 11,4 °C 12,2 °C 0,0 km/h (0 Bft)
30.06.2018 02:56 12,2 °C 95 % 1012,3 hPa 0,0 mm 0,0 km/h (0 Bft) O-NO 76 ° 0 min 0,000 mm 0,0 UV-I 0 W/m² 11,4 °C 12,2 °C 0,0 km/h (0 Bft)
30.06.2018 02:57 12,2 °C 95 % 1012,3 hPa 0,0 mm 0,0 km/h (0 Bft) O-NO 76 ° 0 min 0,000 mm 0,0 UV-I 0 W/m² 11,4 °C 12,2 °C 0,0 km/h (0 Bft)
30.06.2018 02:58 12,3 °C 95 % 1012,3 hPa 0,0 mm 0,0 km/h (0 Bft) O-NO 76 ° 0 min 0,000 mm 0,0 UV-I 0 W/m² 11,5 °C 12,3 °C 0,0 km/h (0 Bft)
30.06.2018 02:59 12,3 °C 95 % 1012,3 hPa 0,0 mm 0,0 km/h (0 Bft) O-NO 76 ° 0 min 0,000 mm 0,0 UV-I 0 W/m² 11,5 °C 12,3 °C 0,0 km/h (0 Bft)
30.06.2018 03:00 12,4 °C 95 % 1012,3 hPa 0,0 mm 0,1 km/h (0 Bft) O-NO 76 ° 0 min 0,000 mm 0,0 UV-I 0 W/m² 11,6 °C 12,4 °C 1,6 km/h (1 Bft)
30.06.2018 03:01 12,4 °C 95 % 1012,3 hPa 0,0 mm 0,1 km/h (0 Bft) O-NO 76 ° 0 min 0,000 mm 0,0 UV-I 0 W/m² 11,6 °C 12,4 °C 1,6 km/h (1 Bft)
30.06.2018 03:02 12,4 °C 95 % 1012,3 hPa 0,0 mm 0,1 km/h (0 Bft) O-NO 77 ° 0 min 0,000 mm 0,0 UV-I 0 W/m² 11,6 °C 12,4 °C 1,6 km/h (1 Bft)
30.06.2018 03:03 12,4 °C 95 % 1012,3 hPa 0,0 mm 0,0 km/h (0 Bft) O-NO 77 ° 0 min 0,000 mm 0,0 UV-I 0 W/m² 11,6 °C 12,4 °C 0,0 km/h (0 Bft)
30.06.2018 03:04 12,4 °C 95 % 1012,2 hPa 0,0 mm 0,0 km/h (0 Bft) O-NO 77 ° 0 min 0,000 mm 0,0 UV-I 0 W/m² 11,6 °C 12,4 °C 0,0 km/h (0 Bft)
30.06.2018 03:05 12,3 °C 95 % 1012,2 hPa 0,0 mm 0,7 km/h (0 Bft) O-NO 77 ° 0 min 0,000 mm 0,0 UV-I 0 W/m² 11,5 °C 12,3 °C 3,2 km/h (1 Bft)
30.06.2018 03:06 12,3 °C 95 % 1012,3 hPa 0,0 mm 0,1 km/h (0 Bft) O-NO 76 ° 0 min 0,000 mm 0,0 UV-I 0 W/m² 11,5 °C 12,3 °C 1,6 km/h (1 Bft)
30.06.2018 03:07 12,3 °C 95 % 1012,2 hPa 0,0 mm 0,5 km/h (0 Bft) O-NO 76 ° 0 min 0,000 mm 0,0 UV-I 0 W/m² 11,5 °C 12,3 °C 1,6 km/h (1 Bft)
30.06.2018 03:08 12,2 °C 95 % 1012,2 hPa 0,0 mm 0,0 km/h (0 Bft) O-NO 76 ° 0 min 0,000 mm 0,0 UV-I 0 W/m² 11,4 °C 12,2 °C 0,0 km/h (0 Bft)
30.06.2018 03:09 12,3 °C 95 % 1012,1 hPa 0,0 mm 0,0 km/h (0 Bft) O-NO 76 ° 0 min 0,000 mm 0,0 UV-I 0 W/m² 11,5 °C 12,3 °C 0,0 km/h (0 Bft)
30.06.2018 03:10 12,3 °C 95 % 1012,1 hPa 0,0 mm 0,0 km/h (0 Bft) O-NO 76 ° 0 min 0,000 mm 0,0 UV-I 0 W/m² 11,5 °C 12,3 °C 0,0 km/h (0 Bft)
30.06.2018 03:11 12,3 °C 95 % 1012,2 hPa 0,0 mm 0,0 km/h (0 Bft) O-NO 76 ° 0 min 0,000 mm 0,0 UV-I 0 W/m² 11,5 °C 12,3 °C 0,0 km/h (0 Bft)
30.06.2018 03:12 12,3 °C 95 % 1012,1 hPa 0,0 mm 0,0 km/h (0 Bft) O-NO 76 ° 0 min 0,000 mm 0,0 UV-I 0 W/m² 11,5 °C 12,3 °C 0,0 km/h (0 Bft)
30.06.2018 03:13 12,2 °C 95 % 1012,1 hPa 0,0 mm 0,0 km/h (0 Bft) O-NO 76 ° 0 min 0,000 mm 0,0 UV-I 0 W/m² 11,4 °C 12,2 °C 0,0 km/h (0 Bft)
30.06.2018 03:14 12,2 °C 95 % 1012,1 hPa 0,0 mm 0,0 km/h (0 Bft) O-NO 76 ° 0 min 0,000 mm 0,0 UV-I 0 W/m² 11,4 °C 12,2 °C 0,0 km/h (0 Bft)
30.06.2018 03:15 12,2 °C 95 % 1012,1 hPa 0,0 mm 0,0 km/h (0 Bft) O-NO 76 ° 0 min 0,000 mm 0,0 UV-I 0 W/m² 11,4 °C 12,2 °C 0,0 km/h (0 Bft)
30.06.2018 03:16 12,2 °C 95 % 1012,1 hPa 0,0 mm 0,0 km/h (0 Bft) O-NO 76 ° 0 min 0,000 mm 0,0 UV-I 0 W/m² 11,4 °C 12,2 °C 0,0 km/h (0 Bft)
30.06.2018 03:17 12,2 °C 95 % 1012,2 hPa 0,0 mm 0,0 km/h (0 Bft) O-NO 76 ° 0 min 0,000 mm 0,0 UV-I 0 W/m² 11,4 °C 12,2 °C 0,0 km/h (0 Bft)
30.06.2018 03:18 12,3 °C 95 % 1012,1 hPa 0,0 mm 0,0 km/h (0 Bft) O-NO 76 ° 0 min 0,000 mm 0,0 UV-I 0 W/m² 11,5 °C 12,3 °C 0,0 km/h (0 Bft)
30.06.2018 03:19 12,2 °C 95 % 1012,1 hPa 0,0 mm 0,0 km/h (0 Bft) O-NO 76 ° 0 min 0,000 mm 0,0 UV-I 0 W/m² 11,4 °C 12,2 °C 0,0 km/h (0 Bft)
30.06.2018 03:20 12,3 °C 95 % 1012,1 hPa 0,0 mm 0,0 km/h (0 Bft) O-NO 76 ° 0 min 0,000 mm 0,0 UV-I 0 W/m² 11,5 °C 12,3 °C 0,0 km/h (0 Bft)
30.06.2018 03:21 12,2 °C 95 % 1012,1 hPa 0,0 mm 0,0 km/h (0 Bft) O-NO 76 ° 0 min 0,000 mm 0,0 UV-I 0 W/m² 11,4 °C 12,2 °C 0,0 km/h (0 Bft)
30.06.2018 03:22 12,3 °C 95 % 1012,1 hPa 0,0 mm 0,0 km/h (0 Bft) O-NO 76 ° 0 min 0,000 mm 0,0 UV-I 0 W/m² 11,5 °C 12,3 °C 0,0 km/h (0 Bft)
30.06.2018 03:23 12,3 °C 95 % 1012,1 hPa 0,0 mm 0,0 km/h (0 Bft) O-NO 76 ° 0 min 0,000 mm 0,0 UV-I 0 W/m² 11,5 °C 12,3 °C 0,0 km/h (0 Bft)
30.06.2018 03:24 12,3 °C 95 % 1012,1 hPa 0,0 mm 0,0 km/h (0 Bft) O-NO 76 ° 0 min 0,000 mm 0,0 UV-I 0 W/m² 11,5 °C 12,3 °C 0,0 km/h (0 Bft)
30.06.2018 03:25 12,3 °C 95 % 1012,1 hPa 0,0 mm 0,0 km/h (0 Bft) O-NO 76 ° 0 min 0,000 mm 0,0 UV-I 0 W/m² 11,5 °C 12,3 °C 0,0 km/h (0 Bft)
30.06.2018 03:26 12,3 °C 95 % 1012,1 hPa 0,0 mm 0,0 km/h (0 Bft) O-NO 76 ° 0 min 0,000 mm 0,0 UV-I 0 W/m² 11,5 °C 12,3 °C 0,0 km/h (0 Bft)
30.06.2018 03:27 12,3 °C 95 % 1012,1 hPa 0,0 mm 0,0 km/h (0 Bft) O-NO 76 ° 0 min 0,000 mm 0,0 UV-I 0 W/m² 11,5 °C 12,3 °C 0,0 km/h (0 Bft)
30.06.2018 03:28 12,3 °C 95 % 1012,1 hPa 0,0 mm 0,0 km/h (0 Bft) O-NO 76 ° 0 min 0,000 mm 0,0 UV-I 0 W/m² 11,5 °C 12,3 °C 0,0 km/h (0 Bft)
30.06.2018 03:29 12,3 °C 95 % 1012,1 hPa 0,0 mm 0,0 km/h (0 Bft) O-NO 76 ° 0 min 0,000 mm 0,0 UV-I 0 W/m² 11,5 °C 12,3 °C 0,0 km/h (0 Bft)
30.06.2018 03:30 12,3 °C 95 % 1012,2 hPa 0,0 mm 0,0 km/h (0 Bft) O-NO 76 ° 0 min 0,000 mm 0,0 UV-I 0 W/m² 11,5 °C 12,3 °C 0,0 km/h (0 Bft)
30.06.2018 03:31 12,4 °C 95 % 1012,2 hPa 0,0 mm 0,0 km/h (0 Bft) O-NO 76 ° 0 min 0,000 mm 0,0 UV-I 0 W/m² 11,6 °C 12,4 °C 0,0 km/h (0 Bft)
30.06.2018 03:32 12,6 °C 95 % 1012,2 hPa 0,0 mm 0,0 km/h (0 Bft) O-NO 76 ° 0 min 0,000 mm 0,0 UV-I 0 W/m² 11,8 °C 12,6 °C 0,0 km/h (0 Bft)
30.06.2018 03:33 12,6 °C 96 % 1012,2 hPa 0,0 mm 0,0 km/h (0 Bft) O-NO 76 ° 0 min 0,000 mm 0,0 UV-I 0 W/m² 12,0 °C 12,6 °C 0,0 km/h (0 Bft)
30.06.2018 03:34 12,6 °C 96 % 1012,2 hPa 0,0 mm 0,0 km/h (0 Bft) O-NO 76 ° 0 min 0,000 mm 0,0 UV-I 0 W/m² 12,0 °C 12,6 °C 0,0 km/h (0 Bft)
30.06.2018 03:35 12,6 °C 96 % 1012,1 hPa 0,0 mm 0,0 km/h (0 Bft) O-NO 76 ° 0 min 0,000 mm 0,0 UV-I 0 W/m² 12,0 °C 12,6 °C 0,0 km/h (0 Bft)
30.06.2018 03:36 12,6 °C 95 % 1012,2 hPa 0,0 mm 0,0 km/h (0 Bft) O-NO 76 ° 0 min 0,000 mm 0,0 UV-I 0 W/m² 11,8 °C 12,6 °C 0,0 km/h (0 Bft)
30.06.2018 03:37 12,6 °C 95 % 1012,1 hPa 0,0 mm 0,0 km/h (0 Bft) O-NO 76 ° 0 min 0,000 mm 0,0 UV-I 0 W/m² 11,8 °C 12,6 °C 0,0 km/h (0 Bft)
30.06.2018 03:38 12,7 °C 95 % 1012,1 hPa 0,0 mm 0,0 km/h (0 Bft) O-NO 76 ° 0 min 0,000 mm 0,0 UV-I 0 W/m² 11,9 °C 12,7 °C 0,0 km/h (0 Bft)
30.06.2018 03:39 12,6 °C 95 % 1012,1 hPa 0,0 mm 0,0 km/h (0 Bft) O-NO 76 ° 0 min 0,000 mm 0,0 UV-I 0 W/m² 11,8 °C 12,6 °C 0,0 km/h (0 Bft)
30.06.2018 03:40 12,6 °C 95 % 1012,1 hPa 0,0 mm 0,0 km/h (0 Bft) O-NO 76 ° 0 min 0,000 mm 0,0 UV-I 0 W/m² 11,8 °C 12,6 °C 0,0 km/h (0 Bft)
30.06.2018 03:41 12,6 °C 95 % 1012,1 hPa 0,0 mm 0,0 km/h (0 Bft) O-NO 76 ° 0 min 0,000 mm 0,0 UV-I 0 W/m² 11,8 °C 12,6 °C 0,0 km/h (0 Bft)
30.06.2018 03:42 12,6 °C 95 % 1012,1 hPa 0,0 mm 0,0 km/h (0 Bft) O-NO 76 ° 0 min 0,000 mm 0,0 UV-I 0 W/m² 11,8 °C 12,6 °C 0,0 km/h (0 Bft)
30.06.2018 03:43 12,5 °C 95 % 1012,1 hPa 0,0 mm 0,0 km/h (0 Bft) O-NO 76 ° 0 min 0,000 mm 0,0 UV-I 0 W/m² 11,7 °C 12,5 °C 0,0 km/h (0 Bft)
30.06.2018 03:44 12,4 °C 95 % 1012,1 hPa 0,0 mm 0,0 km/h (0 Bft) O-NO 76 ° 0 min 0,000 mm 0,0 UV-I 0 W/m² 11,6 °C 12,4 °C 0,0 km/h (0 Bft)
30.06.2018 03:45 12,3 °C 95 % 1012,1 hPa 0,0 mm 0,0 km/h (0 Bft) O-NO 76 ° 0 min 0,000 mm 0,0 UV-I 0 W/m² 11,5 °C 12,3 °C 0,0 km/h (0 Bft)
30.06.2018 03:46 12,3 °C 95 % 1012,1 hPa 0,0 mm 0,0 km/h (0 Bft) O-NO 76 ° 0 min 0,000 mm 0,0 UV-I 0 W/m² 11,5 °C 12,3 °C 0,0 km/h (0 Bft)
30.06.2018 03:47 12,3 °C 95 % 1012,1 hPa 0,0 mm 0,0 km/h (0 Bft) O-NO 76 ° 0 min 0,000 mm 0,0 UV-I 0 W/m² 11,5 °C 12,3 °C 0,0 km/h (0 Bft)
30.06.2018 03:48 12,3 °C 95 % 1012,0 hPa 0,0 mm 0,0 km/h (0 Bft) O-NO 76 ° 0 min 0,000 mm 0,0 UV-I 0 W/m² 11,5 °C 12,3 °C 0,0 km/h (0 Bft)
30.06.2018 03:49 12,2 °C 95 % 1012,0 hPa 0,0 mm 0,0 km/h (0 Bft) O-NO 76 ° 0 min 0,000 mm 0,0 UV-I 0 W/m² 11,4 °C 12,2 °C 0,0 km/h (0 Bft)
30.06.2018 03:50 12,2 °C 95 % 1012,1 hPa 0,0 mm 0,0 km/h (0 Bft) O-NO 76 ° 0 min 0,000 mm 0,0 UV-I 0 W/m² 11,4 °C 12,2 °C 0,0 km/h (0 Bft)
30.06.2018 03:51 12,1 °C 95 % 1012,0 hPa 0,0 mm 0,0 km/h (0 Bft) O-NO 76 ° 0 min 0,000 mm 0,0 UV-I 0 W/m² 11,3 °C 12,1 °C 0,0 km/h (0 Bft)
30.06.2018 03:52 12,1 °C 95 % 1012,0 hPa 0,0 mm 0,0 km/h (0 Bft) O-NO 76 ° 0 min 0,000 mm 0,0 UV-I 0 W/m² 11,3 °C 12,1 °C 0,0 km/h (0 Bft)
30.06.2018 03:53 12,1 °C 95 % 1012,0 hPa 0,0 mm 0,0 km/h (0 Bft) O-NO 76 ° 0 min 0,000 mm 0,0 UV-I 0 W/m² 11,3 °C 12,1 °C 0,0 km/h (0 Bft)
30.06.2018 03:54 12,0 °C 95 % 1012,0 hPa 0,0 mm 0,0 km/h (0 Bft) O-NO 76 ° 0 min 0,000 mm 0,0 UV-I 0 W/m² 11,2 °C 12,0 °C 0,0 km/h (0 Bft)
30.06.2018 03:55 12,0 °C 95 % 1012,0 hPa 0,0 mm 0,0 km/h (0 Bft) O-NO 76 ° 0 min 0,000 mm 0,0 UV-I 0 W/m² 11,2 °C 12,0 °C 0,0 km/h (0 Bft)
30.06.2018 03:56 12,0 °C 95 % 1012,0 hPa 0,0 mm 0,0 km/h (0 Bft) O-NO 76 ° 0 min 0,000 mm 0,0 UV-I 0 W/m² 11,2 °C 12,0 °C 0,0 km/h (0 Bft)
30.06.2018 03:57 12,0 °C 95 % 1012,0 hPa 0,0 mm 0,0 km/h (0 Bft) O-NO 76 ° 0 min 0,000 mm 0,0 UV-I 0 W/m² 11,2 °C 12,0 °C 0,0 km/h (0 Bft)
30.06.2018 03:58 12,0 °C 95 % 1012,0 hPa 0,0 mm 0,0 km/h (0 Bft) O-NO 76 ° 0 min 0,000 mm 0,0 UV-I 0 W/m² 11,2 °C 12,0 °C 0,0 km/h (0 Bft)
30.06.2018 03:59 11,9 °C 95 % 1011,9 hPa 0,0 mm 0,0 km/h (0 Bft) O-NO 76 ° 0 min 0,000 mm 0,0 UV-I 0 W/m² 11,1 °C 11,9 °C 0,0 km/h (0 Bft)
30.06.2018 04:00 11,9 °C 95 % 1011,9 hPa 0,0 mm 0,0 km/h (0 Bft) O-NO 76 ° 0 min 0,000 mm 0,0 UV-I 0 W/m² 11,1 °C 11,9 °C 0,0 km/h (0 Bft)
30.06.2018 04:01 11,9 °C 95 % 1011,9 hPa 0,0 mm 0,0 km/h (0 Bft) O-NO 76 ° 0 min 0,000 mm 0,0 UV-I 0 W/m² 11,1 °C 11,9 °C 0,0 km/h (0 Bft)
30.06.2018 04:02 11,9 °C 95 % 1011,9 hPa 0,0 mm 0,0 km/h (0 Bft) O-NO 76 ° 0 min 0,000 mm 0,0 UV-I 0 W/m² 11,1 °C 11,9 °C 0,0 km/h (0 Bft)
30.06.2018 04:03 11,9 °C 95 % 1011,9 hPa 0,0 mm 0,0 km/h (0 Bft) O-NO 76 ° 0 min 0,000 mm 0,0 UV-I 0 W/m² 11,1 °C 11,9 °C 0,0 km/h (0 Bft)
30.06.2018 04:04 11,9 °C 95 % 1011,9 hPa 0,0 mm 0,0 km/h (0 Bft) O-NO 76 ° 0 min 0,000 mm 0,0 UV-I 0 W/m² 11,1 °C 11,9 °C 0,0 km/h (0 Bft)
30.06.2018 04:05 11,8 °C 95 % 1011,9 hPa 0,0 mm 0,0 km/h (0 Bft) O-NO 76 ° 0 min 0,000 mm 0,0 UV-I 0 W/m² 11,0 °C 11,8 °C 0,0 km/h (0 Bft)
30.06.2018 04:06 11,8 °C 95 % 1011,9 hPa 0,0 mm 0,0 km/h (0 Bft) O-NO 76 ° 0 min 0,000 mm 0,0 UV-I 0 W/m² 11,0 °C 11,8 °C 0,0 km/h (0 Bft)
30.06.2018 04:07 11,8 °C 95 % 1011,9 hPa 0,0 mm 0,0 km/h (0 Bft) O-NO 76 ° 0 min 0,000 mm 0,0 UV-I 0 W/m² 11,0 °C 11,8 °C 0,0 km/h (0 Bft)
30.06.2018 04:08 11,7 °C 95 % 1011,9 hPa 0,0 mm 0,0 km/h (0 Bft) O-NO 76 ° 0 min 0,000 mm 0,0 UV-I 0 W/m² 10,9 °C 11,7 °C 0,0 km/h (0 Bft)
30.06.2018 04:09 11,7 °C 95 % 1011,9 hPa 0,0 mm 0,0 km/h (0 Bft) O-NO 76 ° 0 min 0,000 mm 0,0 UV-I 0 W/m² 10,9 °C 11,7 °C 0,0 km/h (0 Bft)
30.06.2018 04:10 11,6 °C 95 % 1011,9 hPa 0,0 mm 0,0 km/h (0 Bft) O-NO 76 ° 0 min 0,000 mm 0,0 UV-I 0 W/m² 10,8 °C 11,6 °C 0,0 km/h (0 Bft)
30.06.2018 04:11 11,7 °C 95 % 1011,9 hPa 0,0 mm 0,0 km/h (0 Bft) O-NO 76 ° 0 min 0,000 mm 0,0 UV-I 0 W/m² 10,9 °C 11,7 °C 0,0 km/h (0 Bft)
30.06.2018 04:12 11,6 °C 95 % 1011,8 hPa 0,0 mm 0,0 km/h (0 Bft) O-NO 76 ° 0 min 0,000 mm 0,0 UV-I 0 W/m² 10,8 °C 11,6 °C 0,0 km/h (0 Bft)
30.06.2018 04:13 11,7 °C 95 % 1011,9 hPa 0,0 mm 0,0 km/h (0 Bft) O-NO 76 ° 0 min 0,000 mm 0,0 UV-I 0 W/m² 10,9 °C 11,7 °C 0,0 km/h (0 Bft)
30.06.2018 04:14 11,7 °C 95 % 1011,9 hPa 0,0 mm 0,0 km/h (0 Bft) O-NO 76 ° 0 min 0,000 mm 0,0 UV-I 0 W/m² 10,9 °C 11,7 °C 0,0 km/h (0 Bft)
30.06.2018 04:15 11,8 °C 95 % 1011,8 hPa 0,0 mm 0,0 km/h (0 Bft) O-NO 76 ° 0 min 0,000 mm 0,0 UV-I 0 W/m² 11,0 °C 11,8 °C 0,0 km/h (0 Bft)
30.06.2018 04:16 11,8 °C 95 % 1011,8 hPa 0,0 mm 0,0 km/h (0 Bft) O-NO 76 ° 0 min 0,000 mm 0,0 UV-I 0 W/m² 11,0 °C 11,8 °C 0,0 km/h (0 Bft)
30.06.2018 04:17 11,8 °C 95 % 1011,8 hPa 0,0 mm 0,0 km/h (0 Bft) O-NO 76 ° 0 min 0,000 mm 0,0 UV-I 0 W/m² 11,0 °C 11,8 °C 0,0 km/h (0 Bft)
30.06.2018 04:18 11,7 °C 95 % 1011,9 hPa 0,0 mm 0,0 km/h (0 Bft) O-NO 76 ° 0 min 0,000 mm 0,0 UV-I 0 W/m² 10,9 °C 11,7 °C 0,0 km/h (0 Bft)
30.06.2018 04:19 11,7 °C 95 % 1011,9 hPa 0,0 mm 0,0 km/h (0 Bft) O-NO 76 ° 0 min 0,000 mm 0,0 UV-I 0 W/m² 10,9 °C 11,7 °C 0,0 km/h (0 Bft)
30.06.2018 04:20 11,7 °C 95 % 1011,8 hPa 0,0 mm 0,0 km/h (0 Bft) O-NO 76 ° 0 min 0,000 mm 0,0 UV-I 0 W/m² 10,9 °C 11,7 °C 0,0 km/h (0 Bft)
30.06.2018 04:21 11,7 °C 95 % 1011,8 hPa 0,0 mm 0,0 km/h (0 Bft) O-NO 76 ° 0 min 0,000 mm 0,0 UV-I 0 W/m² 10,9 °C 11,7 °C 0,0 km/h (0 Bft)
30.06.2018 04:22 11,6 °C 95 % 1011,8 hPa 0,0 mm 0,0 km/h (0 Bft) O-NO 76 ° 0 min 0,000 mm 0,0 UV-I 0 W/m² 10,8 °C 11,6 °C 0,0 km/h (0 Bft)
30.06.2018 04:23 11,6 °C 95 % 1011,8 hPa 0,0 mm 0,0 km/h (0 Bft) O-NO 76 ° 0 min 0,000 mm 0,0 UV-I 0 W/m² 10,8 °C 11,6 °C 0,0 km/h (0 Bft)
30.06.2018 04:24 11,6 °C 95 % 1011,8 hPa 0,0 mm 0,0 km/h (0 Bft) O-NO 76 ° 0 min 0,000 mm 0,0 UV-I 0 W/m² 10,8 °C 11,6 °C 0,0 km/h (0 Bft)
30.06.2018 04:25 11,6 °C 95 % 1011,8 hPa 0,0 mm 0,0 km/h (0 Bft) O-NO 76 ° 0 min 0,000 mm 0,0 UV-I 0 W/m² 10,8 °C 11,6 °C 0,0 km/h (0 Bft)
30.06.2018 04:26 11,6 °C 95 % 1011,8 hPa 0,0 mm 0,0 km/h (0 Bft) O-NO 76 ° 0 min 0,000 mm 0,0 UV-I 0 W/m² 10,8 °C 11,6 °C 0,0 km/h (0 Bft)
30.06.2018 04:27 11,6 °C 95 % 1011,8 hPa 0,0 mm 0,0 km/h (0 Bft) O-NO 76 ° 0 min 0,000 mm 0,0 UV-I 0 W/m² 10,8 °C 11,6 °C 0,0 km/h (0 Bft)
30.06.2018 04:28 11,6 °C 95 % 1011,8 hPa 0,0 mm 0,0 km/h (0 Bft) O-NO 76 ° 0 min 0,000 mm 0,0 UV-I 0 W/m² 10,8 °C 11,6 °C 0,0 km/h (0 Bft)
30.06.2018 04:29 11,6 °C 95 % 1011,8 hPa 0,0 mm 0,0 km/h (0 Bft) O-NO 76 ° 0 min 0,000 mm 0,0 UV-I 0 W/m² 10,8 °C 11,6 °C 0,0 km/h (0 Bft)
30.06.2018 04:30 11,5 °C 95 % 1011,8 hPa 0,0 mm 0,0 km/h (0 Bft) O-NO 76 ° 0 min 0,000 mm 0,0 UV-I 0 W/m² 10,7 °C 11,5 °C 0,0 km/h (0 Bft)
30.06.2018 04:31 11,5 °C 95 % 1011,8 hPa 0,0 mm 0,0 km/h (0 Bft) O-NO 76 ° 0 min 0,000 mm 0,0 UV-I 0 W/m² 10,7 °C 11,5 °C 0,0 km/h (0 Bft)
30.06.2018 04:32 11,4 °C 95 % 1011,8 hPa 0,0 mm 0,0 km/h (0 Bft) O-NO 76 ° 0 min 0,000 mm 0,0 UV-I 0 W/m² 10,6 °C 11,4 °C 0,0 km/h (0 Bft)
30.06.2018 04:33 11,5 °C 95 % 1011,8 hPa 0,0 mm 0,0 km/h (0 Bft) O-NO 76 ° 0 min 0,000 mm 0,0 UV-I 0 W/m² 10,7 °C 11,5 °C 0,0 km/h (0 Bft)
30.06.2018 04:34 11,4 °C 95 % 1011,8 hPa 0,0 mm 0,0 km/h (0 Bft) O-NO 76 ° 0 min 0,000 mm 0,0 UV-I 0 W/m² 10,6 °C 11,4 °C 0,0 km/h (0 Bft)
30.06.2018 04:35 11,5 °C 95 % 1011,8 hPa 0,0 mm 0,0 km/h (0 Bft) O-NO 76 ° 0 min 0,000 mm 0,0 UV-I 0 W/m² 10,7 °C 11,5 °C 0,0 km/h (0 Bft)
30.06.2018 04:36 11,6 °C 95 % 1011,8 hPa 0,0 mm 0,0 km/h (0 Bft) O-NO 76 ° 0 min 0,000 mm 0,0 UV-I 0 W/m² 10,8 °C 11,6 °C 0,0 km/h (0 Bft)
30.06.2018 04:37 11,5 °C 95 % 1011,8 hPa 0,0 mm 0,0 km/h (0 Bft) O-NO 76 ° 0 min 0,000 mm 0,0 UV-I 0 W/m² 10,7 °C 11,5 °C 0,0 km/h (0 Bft)
30.06.2018 04:38 11,5 °C 95 % 1011,8 hPa 0,0 mm 0,0 km/h (0 Bft) O-NO 76 ° 0 min 0,000 mm 0,0 UV-I 0 W/m² 10,7 °C 11,5 °C 0,0 km/h (0 Bft)
30.06.2018 04:39 11,5 °C 95 % 1011,8 hPa 0,0 mm 0,0 km/h (0 Bft) O-NO 76 ° 0 min 0,000 mm 0,0 UV-I 0 W/m² 10,7 °C 11,5 °C 0,0 km/h (0 Bft)
30.06.2018 04:40 11,5 °C 95 % 1011,8 hPa 0,0 mm 0,0 km/h (0 Bft) O-NO 76 ° 0 min 0,000 mm 0,0 UV-I 0 W/m² 10,7 °C 11,5 °C 0,0 km/h (0 Bft)
30.06.2018 04:41 11,5 °C 95 % 1011,8 hPa 0,0 mm 0,0 km/h (0 Bft) O-NO 76 ° 0 min 0,000 mm 0,0 UV-I 0 W/m² 10,7 °C 11,5 °C 0,0 km/h (0 Bft)
30.06.2018 04:42 11,4 °C 95 % 1011,8 hPa 0,0 mm 0,0 km/h (0 Bft) O-NO 76 ° 0 min 0,000 mm 0,0 UV-I 0 W/m² 10,6 °C 11,4 °C 0,0 km/h (0 Bft)
30.06.2018 04:43 11,4 °C 95 % 1011,7 hPa 0,0 mm 0,0 km/h (0 Bft) O-NO 76 ° 0 min 0,000 mm 0,0 UV-I 0 W/m² 10,6 °C 11,4 °C 0,0 km/h (0 Bft)
30.06.2018 04:44 11,5 °C 96 % 1011,7 hPa 0,0 mm 0,0 km/h (0 Bft) O-NO 76 ° 0 min 0,000 mm 0,0 UV-I 0 W/m² 10,9 °C 11,5 °C 0,0 km/h (0 Bft)
30.06.2018 04:45 11,4 °C 95 % 1011,7 hPa 0,0 mm 0,0 km/h (0 Bft) O-NO 76 ° 0 min 0,000 mm 0,0 UV-I 0 W/m² 10,6 °C 11,4 °C 0,0 km/h (0 Bft)
30.06.2018 04:46 11,4 °C 96 % 1011,7 hPa 0,0 mm 0,0 km/h (0 Bft) O-NO 76 ° 0 min 0,000 mm 0,0 UV-I 0 W/m² 10,8 °C 11,4 °C 0,0 km/h (0 Bft)
30.06.2018 04:47 11,4 °C 95 % 1011,6 hPa 0,0 mm 0,0 km/h (0 Bft) O-NO 76 ° 0 min 0,000 mm 0,0 UV-I 0 W/m² 10,6 °C 11,4 °C 0,0 km/h (0 Bft)
30.06.2018 04:48 11,4 °C 95 % 1011,6 hPa 0,0 mm 0,0 km/h (0 Bft) O-NO 76 ° 0 min 0,000 mm 0,0 UV-I 0 W/m² 10,6 °C 11,4 °C 0,0 km/h (0 Bft)
30.06.2018 04:49 11,4 °C 95 % 1011,7 hPa 0,0 mm 0,0 km/h (0 Bft) O-NO 76 ° 0 min 0,000 mm 0,0 UV-I 0 W/m² 10,6 °C 11,4 °C 0,0 km/h (0 Bft)
30.06.2018 04:50 11,4 °C 95 % 1011,7 hPa 0,0 mm 0,0 km/h (0 Bft) O-NO 76 ° 0 min 0,000 mm 0,0 UV-I 0 W/m² 10,6 °C 11,4 °C 0,0 km/h (0 Bft)
30.06.2018 04:51 11,4 °C 95 % 1011,7 hPa 0,0 mm 0,0 km/h (0 Bft) O-NO 76 ° 0 min 0,000 mm 0,0 UV-I 0 W/m² 10,6 °C 11,4 °C 0,0 km/h (0 Bft)
30.06.2018 04:52 11,4 °C 95 % 1011,6 hPa 0,0 mm 0,0 km/h (0 Bft) O-NO 76 ° 0 min 0,000 mm 0,0 UV-I 0 W/m² 10,6 °C 11,4 °C 0,0 km/h (0 Bft)
30.06.2018 04:53 11,4 °C 95 % 1011,7 hPa 0,0 mm 0,0 km/h (0 Bft) O-NO 76 ° 0 min 0,000 mm 0,0 UV-I 0 W/m² 10,6 °C 11,4 °C 0,0 km/h (0 Bft)
30.06.2018 04:54 11,4 °C 95 % 1011,7 hPa 0,0 mm 0,0 km/h (0 Bft) O-NO 76 ° 0 min 0,000 mm 0,0 UV-I 0 W/m² 10,6 °C 11,4 °C 0,0 km/h (0 Bft)
30.06.2018 04:55 11,4 °C 95 % 1011,6 hPa 0,0 mm 0,0 km/h (0 Bft) O-NO 76 ° 0 min 0,000 mm 0,0 UV-I 0 W/m² 10,6 °C 11,4 °C 0,0 km/h (0 Bft)
30.06.2018 04:56 11,4 °C 95 % 1011,7 hPa 0,0 mm 0,0 km/h (0 Bft) O-NO 76 ° 0 min 0,000 mm 0,0 UV-I 0 W/m² 10,6 °C 11,4 °C 0,0 km/h (0 Bft)
30.06.2018 04:57 11,4 °C 95 % 1011,8 hPa 0,0 mm 0,4 km/h (0 Bft) O-NO 76 ° 0 min 0,000 mm 0,0 UV-I 0 W/m² 10,6 °C 11,4 °C 1,6 km/h (1 Bft)
30.06.2018 04:58 11,5 °C 95 % 1011,8 hPa 0,0 mm 1,4 km/h (1 Bft) O-NO 76 ° 0 min 0,000 mm 0,0 UV-I 0 W/m² 10,7 °C 11,5 °C 1,6 km/h (1 Bft)
30.06.2018 04:59 11,5 °C 96 % 1011,8 hPa 0,0 mm 0,4 km/h (0 Bft) O-NO 76 ° 0 min 0,000 mm 0,0 UV-I 0 W/m² 10,9 °C 11,5 °C 1,6 km/h (1 Bft)
30.06.2018 05:00 11,5 °C 96 % 1011,8 hPa 0,0 mm 0,0 km/h (0 Bft) O-NO 76 ° 0 min 0,000 mm 0,0 UV-I 0 W/m² 10,9 °C 11,5 °C 0,0 km/h (0 Bft)
30.06.2018 05:01 11,6 °C 96 % 1011,8 hPa 0,0 mm 0,0 km/h (0 Bft) O-NO 76 ° 0 min 0,000 mm 0,0 UV-I 0 W/m² 11,0 °C 11,6 °C 0,0 km/h (0 Bft)
30.06.2018 05:02 11,7 °C 96 % 1011,8 hPa 0,0 mm 0,0 km/h (0 Bft) O-NO 76 ° 0 min 0,000 mm 0,0 UV-I 0 W/m² 11,1 °C 11,7 °C 0,0 km/h (0 Bft)
30.06.2018 05:03 11,7 °C 96 % 1011,8 hPa 0,0 mm 0,0 km/h (0 Bft) O-NO 76 ° 0 min 0,000 mm 0,0 UV-I 0 W/m² 11,1 °C 11,7 °C 0,0 km/h (0 Bft)
30.06.2018 05:04 11,7 °C 96 % 1011,8 hPa 0,0 mm 0,0 km/h (0 Bft) O-NO 76 ° 0 min 0,000 mm 0,0 UV-I 0 W/m² 11,1 °C 11,7 °C 0,0 km/h (0 Bft)
30.06.2018 05:05 11,6 °C 96 % 1011,8 hPa 0,0 mm 0,0 km/h (0 Bft) O-NO 76 ° 0 min 0,000 mm 0,0 UV-I 0 W/m² 11,0 °C 11,6 °C 0,0 km/h (0 Bft)
30.06.2018 05:06 11,6 °C 96 % 1011,8 hPa 0,0 mm 0,0 km/h (0 Bft) O-NO 76 ° 0 min 0,000 mm 0,0 UV-I 0 W/m² 11,0 °C 11,6 °C 0,0 km/h (0 Bft)
30.06.2018 05:07 11,7 °C 96 % 1011,7 hPa 0,0 mm 0,0 km/h (0 Bft) O-NO 76 ° 0 min 0,000 mm 0,0 UV-I 0 W/m² 11,1 °C 11,7 °C 0,0 km/h (0 Bft)
30.06.2018 05:08 11,7 °C 96 % 1011,7 hPa 0,0 mm 0,0 km/h (0 Bft) O-NO 76 ° 0 min 0,000 mm 0,0 UV-I 0 W/m² 11,1 °C 11,7 °C 0,0 km/h (0 Bft)
30.06.2018 05:09 11,7 °C 96 % 1011,7 hPa 0,0 mm 0,0 km/h (0 Bft) O-NO 76 ° 0 min 0,000 mm 0,0 UV-I 0 W/m² 11,1 °C 11,7 °C 0,0 km/h (0 Bft)
30.06.2018 05:10 11,7 °C 96 % 1011,7 hPa 0,0 mm 0,0 km/h (0 Bft) O-NO 76 ° 0 min 0,000 mm 0,0 UV-I 0 W/m² 11,1 °C 11,7 °C 0,0 km/h (0 Bft)
30.06.2018 05:11 11,7 °C 96 % 1011,7 hPa 0,0 mm 0,0 km/h (0 Bft) O-NO 76 ° 0 min 0,000 mm 0,0 UV-I 0 W/m² 11,1 °C 11,7 °C 0,0 km/h (0 Bft)
30.06.2018 05:12 11,6 °C 96 % 1011,7 hPa 0,0 mm 0,0 km/h (0 Bft) O-NO 76 ° 0 min 0,000 mm 0,0 UV-I 0 W/m² 11,0 °C 11,6 °C 0,0 km/h (0 Bft)
30.06.2018 05:13 11,6 °C 96 % 1011,7 hPa 0,0 mm 0,0 km/h (0 Bft) O-NO 76 ° 0 min 0,000 mm 0,0 UV-I 0 W/m² 11,0 °C 11,6 °C 0,0 km/h (0 Bft)
30.06.2018 05:14 11,6 °C 95 % 1011,7 hPa 0,0 mm 0,0 km/h (0 Bft) O-NO 76 ° 0 min 0,000 mm 0,0 UV-I 0 W/m² 10,8 °C 11,6 °C 0,0 km/h (0 Bft)
30.06.2018 05:15 11,6 °C 95 % 1011,7 hPa 0,0 mm 0,0 km/h (0 Bft) O-NO 76 ° 0 min 0,000 mm 0,0 UV-I 0 W/m² 10,8 °C 11,6 °C 0,0 km/h (0 Bft)
30.06.2018 05:16 11,4 °C 95 % 1011,7 hPa 0,0 mm 0,0 km/h (0 Bft) O-NO 76 ° 0 min 0,000 mm 0,0 UV-I 0 W/m² 10,6 °C 11,4 °C 0,0 km/h (0 Bft)
30.06.2018 05:17 11,4 °C 95 % 1011,7 hPa 0,0 mm 0,0 km/h (0 Bft) O-NO 76 ° 0 min 0,000 mm 0,0 UV-I 0 W/m² 10,6 °C 11,4 °C 0,0 km/h (0 Bft)
30.06.2018 05:18 11,4 °C 95 % 1011,7 hPa 0,0 mm 0,0 km/h (0 Bft) O-NO 76 ° 0 min 0,000 mm 0,0 UV-I 0 W/m² 10,6 °C 11,4 °C 0,0 km/h (0 Bft)
30.06.2018 05:19 11,3 °C 95 % 1011,6 hPa 0,0 mm 0,0 km/h (0 Bft) O-NO 76 ° 0 min 0,000 mm 0,0 UV-I 0 W/m² 10,5 °C 11,3 °C 0,0 km/h (0 Bft)
30.06.2018 05:20 11,3 °C 95 % 1011,7 hPa 0,0 mm 0,0 km/h (0 Bft) O-NO 76 ° 0 min 0,000 mm 0,0 UV-I 0 W/m² 10,5 °C 11,3 °C 0,0 km/h (0 Bft)
30.06.2018 05:21 11,3 °C 95 % 1011,7 hPa 0,0 mm 0,1 km/h (0 Bft) O-NO 76 ° 0 min 0,000 mm 0,0 UV-I 0 W/m² 10,5 °C 11,3 °C 1,6 km/h (1 Bft)
30.06.2018 05:22 11,3 °C 95 % 1011,7 hPa 0,0 mm 0,0 km/h (0 Bft) O-NO 76 ° 0 min 0,000 mm 0,0 UV-I 0 W/m² 10,5 °C 11,3 °C 0,0 km/h (0 Bft)
30.06.2018 05:23 11,3 °C 95 % 1011,7 hPa 0,0 mm 0,0 km/h (0 Bft) O-NO 76 ° 0 min 0,000 mm 0,0 UV-I 0 W/m² 10,5 °C 11,3 °C 0,0 km/h (0 Bft)
30.06.2018 05:24 11,4 °C 95 % 1011,7 hPa 0,0 mm 0,0 km/h (0 Bft) O-NO 76 ° 0 min 0,000 mm 0,0 UV-I 0 W/m² 10,6 °C 11,4 °C 0,0 km/h (0 Bft)
30.06.2018 05:25 11,6 °C 96 % 1011,7 hPa 0,0 mm 0,0 km/h (0 Bft) O-NO 76 ° 0 min 0,000 mm 0,0 UV-I 5 W/m² 11,0 °C 11,6 °C 0,0 km/h (0 Bft)
30.06.2018 05:26 11,7 °C 96 % 1011,7 hPa 0,0 mm 0,0 km/h (0 Bft) O-NO 76 ° 0 min 0,000 mm 0,0 UV-I 5 W/m² 11,1 °C 11,7 °C 0,0 km/h (0 Bft)
30.06.2018 05:27 11,6 °C 96 % 1011,7 hPa 0,0 mm 0,0 km/h (0 Bft) O-NO 76 ° 0 min 0,000 mm 0,0 UV-I 5 W/m² 11,0 °C 11,6 °C 0,0 km/h (0 Bft)
30.06.2018 05:28 11,6 °C 96 % 1011,7 hPa 0,0 mm 0,0 km/h (0 Bft) O-NO 76 ° 0 min 0,000 mm 0,0 UV-I 5 W/m² 11,0 °C 11,6 °C 0,0 km/h (0 Bft)
30.06.2018 05:29 11,6 °C 96 % 1011,7 hPa 0,0 mm 0,0 km/h (0 Bft) O-NO 76 ° 0 min 0,000 mm 0,0 UV-I 5 W/m² 11,0 °C 11,6 °C 0,0 km/h (0 Bft)
30.06.2018 05:30 11,6 °C 96 % 1011,8 hPa 0,0 mm 0,0 km/h (0 Bft) O-NO 76 ° 0 min 0,000 mm 0,0 UV-I 5 W/m² 11,0 °C 11,6 °C 0,0 km/h (0 Bft)
30.06.2018 05:31 11,6 °C 96 % 1011,7 hPa 0,0 mm 0,0 km/h (0 Bft) O-NO 76 ° 0 min 0,000 mm 0,0 UV-I 7 W/m² 11,0 °C 11,6 °C 0,0 km/h (0 Bft)
30.06.2018 05:32 11,7 °C 96 % 1011,7 hPa 0,0 mm 0,0 km/h (0 Bft) O-NO 76 ° 0 min 0,000 mm 0,0 UV-I 7 W/m² 11,1 °C 11,7 °C 0,0 km/h (0 Bft)
30.06.2018 05:33 11,7 °C 96 % 1011,7 hPa 0,0 mm 0,0 km/h (0 Bft) O-NO 76 ° 0 min 0,000 mm 0,0 UV-I 7 W/m² 11,1 °C 11,7 °C 0,0 km/h (0 Bft)
30.06.2018 05:34 11,7 °C 96 % 1011,7 hPa 0,0 mm 0,0 km/h (0 Bft) O-NO 76 ° 0 min 0,000 mm 0,0 UV-I 7 W/m² 11,1 °C 11,7 °C 0,0 km/h (0 Bft)
30.06.2018 05:35 11,8 °C 96 % 1011,6 hPa 0,0 mm 0,0 km/h (0 Bft) O-NO 76 ° 0 min 0,000 mm 0,0 UV-I 9 W/m² 11,2 °C 11,8 °C 0,0 km/h (0 Bft)
30.06.2018 05:36 11,8 °C 96 % 1011,8 hPa 0,0 mm 0,0 km/h (0 Bft) O-NO 76 ° 0 min 0,000 mm 0,0 UV-I 9 W/m² 11,2 °C 11,8 °C 0,0 km/h (0 Bft)
30.06.2018 05:37 11,8 °C 96 % 1011,7 hPa 0,0 mm 0,0 km/h (0 Bft) O-NO 76 ° 0 min 0,000 mm 0,0 UV-I 9 W/m² 11,2 °C 11,8 °C 0,0 km/h (0 Bft)
30.06.2018 05:38 11,8 °C 96 % 1011,8 hPa 0,0 mm 0,0 km/h (0 Bft) O-NO 76 ° 0 min 0,000 mm 0,0 UV-I 9 W/m² 11,2 °C 11,8 °C 0,0 km/h (0 Bft)
30.06.2018 05:39 11,8 °C 96 % 1011,7 hPa 0,0 mm 0,0 km/h (0 Bft) O-NO 76 ° 0 min 0,000 mm 0,0 UV-I 11 W/m² 11,2 °C 11,8 °C 0,0 km/h (0 Bft)
30.06.2018 05:40 11,7 °C 96 % 1011,8 hPa 0,0 mm 0,0 km/h (0 Bft) O-NO 76 ° 0 min 0,000 mm 0,0 UV-I 11 W/m² 11,1 °C 11,7 °C 0,0 km/h (0 Bft)
30.06.2018 05:41 11,6 °C 95 % 1011,8 hPa 0,0 mm 0,0 km/h (0 Bft) O-NO 76 ° 0 min 0,000 mm 0,0 UV-I 11 W/m² 10,8 °C 11,6 °C 0,0 km/h (0 Bft)
30.06.2018 05:42 11,5 °C 95 % 1011,8 hPa 0,0 mm 0,0 km/h (0 Bft) O-NO 76 ° 0 min 0,000 mm 0,0 UV-I 12 W/m² 10,7 °C 11,5 °C 0,0 km/h (0 Bft)
30.06.2018 05:43 11,4 °C 95 % 1011,8 hPa 0,0 mm 0,0 km/h (0 Bft) O-NO 76 ° 0 min 0,000 mm 0,0 UV-I 12 W/m² 10,6 °C 11,4 °C 0,0 km/h (0 Bft)
30.06.2018 05:44 11,4 °C 95 % 1011,7 hPa 0,0 mm 0,0 km/h (0 Bft) O-NO 76 ° 0 min 0,000 mm 0,0 UV-I 12 W/m² 10,6 °C 11,4 °C 0,0 km/h (0 Bft)
30.06.2018 05:45 11,4 °C 95 % 1011,7 hPa 0,0 mm 0,0 km/h (0 Bft) O-NO 76 ° 0 min 0,000 mm 0,0 UV-I 12 W/m² 10,6 °C 11,4 °C 0,0 km/h (0 Bft)
30.06.2018 05:46 11,4 °C 95 % 1011,7 hPa 0,0 mm 0,0 km/h (0 Bft) O-NO 76 ° 0 min 0,000 mm 0,0 UV-I 14 W/m² 10,6 °C 11,4 °C 0,0 km/h (0 Bft)
30.06.2018 05:47 11,5 °C 96 % 1011,7 hPa 0,0 mm 0,0 km/h (0 Bft) O-NO 76 ° 0 min 0,000 mm 0,0 UV-I 14 W/m² 10,9 °C 11,5 °C 0,0 km/h (0 Bft)
30.06.2018 05:48 11,5 °C 96 % 1011,7 hPa 0,0 mm 0,0 km/h (0 Bft) O-NO 76 ° 0 min 0,000 mm 0,0 UV-I 16 W/m² 10,9 °C 11,5 °C 0,0 km/h (0 Bft)
30.06.2018 05:49 11,4 °C 96 % 1011,8 hPa 0,0 mm 0,0 km/h (0 Bft) O-NO 76 ° 0 min 0,000 mm 0,0 UV-I 16 W/m² 10,8 °C 11,4 °C 0,0 km/h (0 Bft)
30.06.2018 05:50 11,4 °C 95 % 1011,7 hPa 0,0 mm 0,0 km/h (0 Bft) O-NO 76 ° 0 min 0,000 mm 0,0 UV-I 16 W/m² 10,6 °C 11,4 °C 0,0 km/h (0 Bft)
30.06.2018 05:51 11,4 °C 95 % 1011,8 hPa 0,0 mm 0,0 km/h (0 Bft) O-NO 76 ° 0 min 0,000 mm 0,0 UV-I 18 W/m² 10,6 °C 11,4 °C 0,0 km/h (0 Bft)
30.06.2018 05:52 11,4 °C 95 % 1011,8 hPa 0,0 mm 0,0 km/h (0 Bft) O-NO 76 ° 0 min 0,000 mm 0,0 UV-I 18 W/m² 10,6 °C 11,4 °C 0,0 km/h (0 Bft)
30.06.2018 05:53 11,3 °C 95 % 1011,8 hPa 0,0 mm 0,0 km/h (0 Bft) O-NO 76 ° 0 min 0,000 mm 0,0 UV-I 18 W/m² 10,5 °C 11,3 °C 0,0 km/h (0 Bft)
30.06.2018 05:54 11,4 °C 95 % 1011,7 hPa 0,0 mm 0,0 km/h (0 Bft) O-NO 76 ° 0 min 0,000 mm 0,0 UV-I 19 W/m² 10,6 °C 11,4 °C 0,0 km/h (0 Bft)
30.06.2018 05:55 11,4 °C 95 % 1011,7 hPa 0,0 mm 0,0 km/h (0 Bft) O-NO 76 ° 0 min 0,000 mm 0,0 UV-I 19 W/m² 10,6 °C 11,4 °C 0,0 km/h (0 Bft)
30.06.2018 05:56 11,4 °C 96 % 1011,8 hPa 0,0 mm 0,0 km/h (0 Bft) O-NO 76 ° 0 min 0,000 mm 0,0 UV-I 19 W/m² 10,8 °C 11,4 °C 0,0 km/h (0 Bft)
30.06.2018 05:57 11,5 °C 96 % 1011,7 hPa 0,0 mm 0,0 km/h (0 Bft) O-NO 76 ° 0 min 0,000 mm 0,0 UV-I 21 W/m² 10,9 °C 11,5 °C 0,0 km/h (0 Bft)
30.06.2018 05:58 11,5 °C 96 % 1011,7 hPa 0,0 mm 0,0 km/h (0 Bft) O-NO 76 ° 0 min 0,000 mm 0,0 UV-I 21 W/m² 10,9 °C 11,5 °C 0,0 km/h (0 Bft)
30.06.2018 05:59 11,5 °C 96 % 1011,7 hPa 0,0 mm 0,0 km/h (0 Bft) O-NO 76 ° 0 min 0,000 mm 0,0 UV-I 21 W/m² 10,9 °C 11,5 °C 0,0 km/h (0 Bft)
30.06.2018 06:00 11,5 °C 96 % 1011,7 hPa 0,0 mm 0,0 km/h (0 Bft) O-NO 76 ° 0 min 0,000 mm 0,0 UV-I 21 W/m² 10,9 °C 11,5 °C 0,0 km/h (0 Bft)
30.06.2018 06:01 11,5 °C 95 % 1011,8 hPa 0,0 mm 0,0 km/h (0 Bft) O-NO 76 ° 0 min 0,000 mm 0,0 UV-I 23 W/m² 10,7 °C 11,5 °C 0,0 km/h (0 Bft)
30.06.2018 06:02 11,5 °C 95 % 1011,6 hPa 0,0 mm 0,0 km/h (0 Bft) O-NO 76 ° 0 min 0,000 mm 0,0 UV-I 23 W/m² 10,7 °C 11,5 °C 0,0 km/h (0 Bft)
30.06.2018 06:03 11,5 °C 95 % 1011,6 hPa 0,0 mm 0,0 km/h (0 Bft) O-NO 76 ° 0 min 0,000 mm 0,0 UV-I 25 W/m² 10,7 °C 11,5 °C 0,0 km/h (0 Bft)
30.06.2018 06:04 11,5 °C 96 % 1011,7 hPa 0,0 mm 0,0 km/h (0 Bft) O-NO 76 ° 0 min 0,000 mm 0,0 UV-I 26 W/m² 10,9 °C 11,5 °C 0,0 km/h (0 Bft)
30.06.2018 06:05 11,6 °C 96 % 1011,6 hPa 0,0 mm 0,0 km/h (0 Bft) O-NO 76 ° 0 min 0,000 mm 0,0 UV-I 28 W/m² 11,0 °C 11,6 °C 0,0 km/h (0 Bft)
30.06.2018 06:06 11,6 °C 96 % 1011,7 hPa 0,0 mm 0,0 km/h (0 Bft) O-NO 76 ° 0 min 0,000 mm 0,0 UV-I 33 W/m² 11,0 °C 11,6 °C 0,0 km/h (0 Bft)
30.06.2018 06:07 11,5 °C 96 % 1011,7 hPa 0,0 mm 0,0 km/h (0 Bft) O-NO 76 ° 0 min 0,000 mm 0,0 UV-I 35 W/m² 10,9 °C 11,5 °C 0,0 km/h (0 Bft)
30.06.2018 06:08 11,5 °C 95 % 1011,8 hPa 0,0 mm 0,0 km/h (0 Bft) O-NO 76 ° 0 min 0,000 mm 0,0 UV-I 37 W/m² 10,7 °C 11,5 °C 0,0 km/h (0 Bft)
30.06.2018 06:09 11,5 °C 96 % 1011,8 hPa 0,0 mm 0,0 km/h (0 Bft) O-NO 76 ° 0 min 0,000 mm 0,0 UV-I 40 W/m² 10,9 °C 11,5 °C 0,0 km/h (0 Bft)
30.06.2018 06:10 11,5 °C 96 % 1011,8 hPa 0,0 mm 0,0 km/h (0 Bft) O-NO 76 ° 0 min 0,000 mm 0,0 UV-I 42 W/m² 10,9 °C 11,5 °C 0,0 km/h (0 Bft)
30.06.2018 06:11 11,5 °C 96 % 1011,8 hPa 0,0 mm 0,0 km/h (0 Bft) O-NO 76 ° 0 min 0,000 mm 0,0 UV-I 42 W/m² 10,9 °C 11,5 °C 0,0 km/h (0 Bft)
30.06.2018 06:12 11,5 °C 96 % 1011,8 hPa 0,0 mm 0,0 km/h (0 Bft) O-NO 76 ° 0 min 0,000 mm 0,0 UV-I 44 W/m² 10,9 °C 11,5 °C 0,0 km/h (0 Bft)
30.06.2018 06:13 11,5 °C 96 % 1011,9 hPa 0,0 mm 0,0 km/h (0 Bft) O-NO 76 ° 0 min 0,000 mm 0,0 UV-I 46 W/m² 10,9 °C 11,5 °C 0,0 km/h (0 Bft)
30.06.2018 06:14 11,6 °C 96 % 1011,8 hPa 0,0 mm 0,0 km/h (0 Bft) O-NO 76 ° 0 min 0,000 mm 0,0 UV-I 47 W/m² 11,0 °C 11,6 °C 0,0 km/h (0 Bft)
30.06.2018 06:15 11,6 °C 96 % 1011,8 hPa 0,0 mm 0,0 km/h (0 Bft) O-NO 76 ° 0 min 0,000 mm 0,0 UV-I 51 W/m² 11,0 °C 11,6 °C 0,0 km/h (0 Bft)
30.06.2018 06:16 11,7 °C 96 % 1011,8 hPa 0,0 mm 0,0 km/h (0 Bft) O-NO 76 ° 0 min 0,000 mm 0,0 UV-I 53 W/m² 11,1 °C 11,7 °C 0,0 km/h (0 Bft)
30.06.2018 06:17 11,7 °C 96 % 1011,8 hPa 0,0 mm 0,0 km/h (0 Bft) O-NO 76 ° 0 min 0,000 mm 0,0 UV-I 54 W/m² 11,1 °C 11,7 °C 0,0 km/h (0 Bft)
30.06.2018 06:18 11,7 °C 96 % 1011,8 hPa 0,0 mm 0,0 km/h (0 Bft) O-NO 76 ° 0 min 0,000 mm 0,0 UV-I 56 W/m² 11,1 °C 11,7 °C 0,0 km/h (0 Bft)
30.06.2018 06:19 11,8 °C 96 % 1011,8 hPa 0,0 mm 0,0 km/h (0 Bft) O-NO 76 ° 0 min 0,000 mm 0,0 UV-I 58 W/m² 11,2 °C 11,8 °C 0,0 km/h (0 Bft)
30.06.2018 06:20 11,8 °C 96 % 1011,8 hPa 0,0 mm 0,0 km/h (0 Bft) O-NO 76 ° 0 min 0,000 mm 0,0 UV-I 60 W/m² 11,2 °C 11,8 °C 0,0 km/h (0 Bft)
30.06.2018 06:21 11,8 °C 96 % 1011,8 hPa 0,0 mm 0,0 km/h (0 Bft) O-NO 76 ° 0 min 0,000 mm 0,0 UV-I 63 W/m² 11,2 °C 11,8 °C 0,0 km/h (0 Bft)
30.06.2018 06:22 11,8 °C 96 % 1011,8 hPa 0,0 mm 0,0 km/h (0 Bft) O-NO 76 ° 0 min 0,000 mm 0,0 UV-I 65 W/m² 11,2 °C 11,8 °C 0,0 km/h (0 Bft)
30.06.2018 06:23 11,8 °C 95 % 1011,8 hPa 0,0 mm 0,0 km/h (0 Bft) O-NO 76 ° 0 min 0,000 mm 0,0 UV-I 67 W/m² 11,0 °C 11,8 °C 0,0 km/h (0 Bft)
30.06.2018 06:24 11,8 °C 96 % 1011,8 hPa 0,0 mm 0,0 km/h (0 Bft) O-NO 76 ° 0 min 0,000 mm 0,0 UV-I 69 W/m² 11,2 °C 11,8 °C 0,0 km/h (0 Bft)
30.06.2018 06:25 11,9 °C 96 % 1011,8 hPa 0,0 mm 0,0 km/h (0 Bft) O-NO 76 ° 0 min 0,000 mm 0,0 UV-I 70 W/m² 11,3 °C 11,9 °C 0,0 km/h (0 Bft)
30.06.2018 06:26 11,9 °C 96 % 1011,8 hPa 0,0 mm 0,0 km/h (0 Bft) O-NO 76 ° 0 min 0,000 mm 0,0 UV-I 76 W/m² 11,3 °C 11,9 °C 0,0 km/h (0 Bft)
30.06.2018 06:27 12,0 °C 96 % 1011,8 hPa 0,0 mm 0,0 km/h (0 Bft) O-NO 76 ° 0 min 0,000 mm 0,0 UV-I 77 W/m² 11,4 °C 12,0 °C 0,0 km/h (0 Bft)
30.06.2018 06:28 12,1 °C 96 % 1011,8 hPa 0,0 mm 0,0 km/h (0 Bft) O-NO 76 ° 0 min 0,000 mm 0,0 UV-I 79 W/m² 11,5 °C 12,1 °C 0,0 km/h (0 Bft)
30.06.2018 06:29 12,1 °C 96 % 1011,8 hPa 0,0 mm 0,0 km/h (0 Bft) O-NO 76 ° 0 min 0,000 mm 0,0 UV-I 81 W/m² 11,5 °C 12,1 °C 0,0 km/h (0 Bft)
30.06.2018 06:30 12,3 °C 96 % 1011,8 hPa 0,0 mm 0,0 km/h (0 Bft) O-NO 76 ° 0 min 0,000 mm 0,0 UV-I 83 W/m² 11,7 °C 12,3 °C 0,0 km/h (0 Bft)
30.06.2018 06:31 12,3 °C 96 % 1011,8 hPa 0,0 mm 0,0 km/h (0 Bft) O-NO 76 ° 0 min 0,000 mm 0,0 UV-I 84 W/m² 11,7 °C 12,3 °C 0,0 km/h (0 Bft)
30.06.2018 06:32 12,3 °C 96 % 1011,8 hPa 0,0 mm 0,0 km/h (0 Bft) O-NO 76 ° 0 min 0,000 mm 0,0 UV-I 88 W/m² 11,7 °C 12,3 °C 0,0 km/h (0 Bft)
30.06.2018 06:33 12,3 °C 96 % 1011,8 hPa 0,0 mm 0,0 km/h (0 Bft) O-NO 76 ° 0 min 0,000 mm 0,0 UV-I 90 W/m² 11,7 °C 12,3 °C 0,0 km/h (0 Bft)
30.06.2018 06:34 12,3 °C 96 % 1011,8 hPa 0,0 mm 0,0 km/h (0 Bft) O-NO 76 ° 0 min 0,000 mm 0,0 UV-I 91 W/m² 11,7 °C 12,3 °C 0,0 km/h (0 Bft)
30.06.2018 06:35 12,3 °C 96 % 1011,8 hPa 0,0 mm 0,0 km/h (0 Bft) O-NO 76 ° 0 min 0,000 mm 0,0 UV-I 93 W/m² 11,7 °C 12,3 °C 0,0 km/h (0 Bft)
30.06.2018 06:36 12,3 °C 96 % 1011,8 hPa 0,0 mm 0,0 km/h (0 Bft) O-NO 76 ° 0 min 0,000 mm 0,0 UV-I 97 W/m² 11,7 °C 12,3 °C 0,0 km/h (0 Bft)
30.06.2018 06:37 12,3 °C 95 % 1011,8 hPa 0,0 mm 0,0 km/h (0 Bft) O-NO 76 ° 0 min 0,000 mm 0,0 UV-I 98 W/m² 11,5 °C 12,3 °C 0,0 km/h (0 Bft)
30.06.2018 06:38 12,3 °C 95 % 1011,8 hPa 0,0 mm 0,0 km/h (0 Bft) O-NO 76 ° 0 min 0,000 mm 0,0 UV-I 102 W/m² 11,5 °C 12,3 °C 0,0 km/h (0 Bft)
30.06.2018 06:39 12,4 °C 95 % 1011,8 hPa 0,0 mm 0,0 km/h (0 Bft) O-NO 76 ° 0 min 0,000 mm 0,0 UV-I 104 W/m² 11,6 °C 12,4 °C 0,0 km/h (0 Bft)
30.06.2018 06:40 12,4 °C 95 % 1011,8 hPa 0,0 mm 0,0 km/h (0 Bft) O-NO 76 ° 0 min 0,000 mm 0,0 UV-I 105 W/m² 11,6 °C 12,4 °C 0,0 km/h (0 Bft)
30.06.2018 06:41 12,4 °C 95 % 1011,8 hPa 0,0 mm 0,0 km/h (0 Bft) O-NO 76 ° 0 min 0,000 mm 0,0 UV-I 107 W/m² 11,6 °C 12,4 °C 0,0 km/h (0 Bft)
30.06.2018 06:42 12,4 °C 95 % 1011,8 hPa 0,0 mm 0,0 km/h (0 Bft) O-NO 76 ° 0 min 0,000 mm 0,0 UV-I 109 W/m² 11,6 °C 12,4 °C 0,0 km/h (0 Bft)
30.06.2018 06:43 12,4 °C 95 % 1011,8 hPa 0,0 mm 0,0 km/h (0 Bft) O-NO 76 ° 0 min 0,000 mm 0,5 UV-I 113 W/m² 11,6 °C 12,4 °C 0,0 km/h (0 Bft)
30.06.2018 06:44 12,4 °C 95 % 1011,8 hPa 0,0 mm 0,0 km/h (0 Bft) O-NO 76 ° 0 min 0,000 mm 0,5 UV-I 116 W/m² 11,6 °C 12,4 °C 0,0 km/h (0 Bft)
30.06.2018 06:45 12,4 °C 95 % 1011,8 hPa 0,0 mm 0,0 km/h (0 Bft) O-NO 76 ° 0 min 0,000 mm 0,5 UV-I 118 W/m² 11,6 °C 12,4 °C 0,0 km/h (0 Bft)
30.06.2018 06:46 12,4 °C 95 % 1011,8 hPa 0,0 mm 0,0 km/h (0 Bft) O-NO 76 ° 0 min 0,000 mm 0,5 UV-I 120 W/m² 11,6 °C 12,4 °C 0,0 km/h (0 Bft)
30.06.2018 06:47 12,5 °C 95 % 1011,8 hPa 0,0 mm 0,0 km/h (0 Bft) O-NO 76 ° 0 min 0,000 mm 0,5 UV-I 123 W/m² 11,7 °C 12,5 °C 0,0 km/h (0 Bft)
30.06.2018 06:48 12,5 °C 95 % 1011,8 hPa 0,0 mm 0,0 km/h (0 Bft) O-NO 76 ° 0 min 0,000 mm 0,5 UV-I 125 W/m² 11,7 °C 12,5 °C 0,0 km/h (0 Bft)
30.06.2018 06:49 12,6 °C 95 % 1011,8 hPa 0,0 mm 0,0 km/h (0 Bft) O-NO 76 ° 0 min 0,000 mm 0,5 UV-I 127 W/m² 11,8 °C 12,6 °C 0,0 km/h (0 Bft)
30.06.2018 06:50 12,6 °C 95 % 1011,8 hPa 0,0 mm 0,0 km/h (0 Bft) O-NO 76 ° 0 min 0,000 mm 0,5 UV-I 130 W/m² 11,8 °C 12,6 °C 0,0 km/h (0 Bft)
30.06.2018 06:51 12,6 °C 95 % 1011,8 hPa 0,0 mm 0,0 km/h (0 Bft) O-NO 76 ° 0 min 0,000 mm 0,5 UV-I 132 W/m² 11,8 °C 12,6 °C 0,0 km/h (0 Bft)
30.06.2018 06:52 12,6 °C 95 % 1011,8 hPa 0,0 mm 0,0 km/h (0 Bft) O-NO 76 ° 0 min 0,000 mm 0,5 UV-I 134 W/m² 11,8 °C 12,6 °C 0,0 km/h (0 Bft)
30.06.2018 06:53 12,7 °C 95 % 1011,8 hPa 0,0 mm 0,0 km/h (0 Bft) O-NO 76 ° 0 min 0,000 mm 0,5 UV-I 135 W/m² 11,9 °C 12,7 °C 0,0 km/h (0 Bft)
30.06.2018 06:54 12,7 °C 95 % 1011,8 hPa 0,0 mm 0,0 km/h (0 Bft) O-NO 76 ° 0 min 0,000 mm 0,6 UV-I 137 W/m² 11,9 °C 12,7 °C 0,0 km/h (0 Bft)
30.06.2018 06:55 12,7 °C 95 % 1011,8 hPa 0,0 mm 0,0 km/h (0 Bft) O-NO 76 ° 0 min 0,000 mm 0,6 UV-I 139 W/m² 11,9 °C 12,7 °C 0,0 km/h (0 Bft)
30.06.2018 06:56 12,8 °C 95 % 1011,8 hPa 0,0 mm 0,0 km/h (0 Bft) O-NO 76 ° 0 min 0,000 mm 0,6 UV-I 144 W/m² 12,0 °C 12,8 °C 0,0 km/h (0 Bft)
30.06.2018 06:57 12,9 °C 95 % 1011,9 hPa 0,0 mm 0,0 km/h (0 Bft) O-NO 76 ° 0 min 0,000 mm 0,6 UV-I 146 W/m² 12,1 °C 12,9 °C 0,0 km/h (0 Bft)
30.06.2018 06:58 12,9 °C 95 % 1011,9 hPa 0,0 mm 0,0 km/h (0 Bft) O-NO 76 ° 0 min 0,000 mm 0,6 UV-I 148 W/m² 12,1 °C 12,9 °C 0,0 km/h (0 Bft)
30.06.2018 06:59 13,1 °C 95 % 1011,9 hPa 0,0 mm 0,0 km/h (0 Bft) O-NO 76 ° 0 min 0,000 mm 0,6 UV-I 149 W/m² 12,3 °C 13,1 °C 0,0 km/h (0 Bft)
30.06.2018 07:00 13,1 °C 95 % 1011,9 hPa 0,0 mm 0,0 km/h (0 Bft) O-NO 76 ° 0 min 0,000 mm 0,6 UV-I 153 W/m² 12,3 °C 13,1 °C 0,0 km/h (0 Bft)
30.06.2018 07:01 13,2 °C 95 % 1011,9 hPa 0,0 mm 0,0 km/h (0 Bft) O-NO 76 ° 0 min 0,051 mm 0,6 UV-I 155 W/m² 12,4 °C 13,2 °C 0,0 km/h (0 Bft)
30.06.2018 07:02 13,3 °C 95 % 1011,9 hPa 0,0 mm 0,0 km/h (0 Bft) O-NO 76 ° 0 min 0,000 mm 0,6 UV-I 160 W/m² 12,5 °C 13,3 °C 0,0 km/h (0 Bft)
30.06.2018 07:04 13,4 °C 95 % 1011,9 hPa 0,0 mm 0,0 km/h (0 Bft) O-NO 76 ° 0 min 0,000 mm 0,7 UV-I 162 W/m² 12,6 °C 13,4 °C 0,0 km/h (0 Bft)
30.06.2018 07:05 13,4 °C 94 % 1011,9 hPa 0,0 mm 0,0 km/h (0 Bft) O-NO 76 ° 0 min 0,000 mm 0,7 UV-I 165 W/m² 12,5 °C 13,4 °C 0,0 km/h (0 Bft)
30.06.2018 07:06 13,4 °C 94 % 1011,9 hPa 0,0 mm 0,0 km/h (0 Bft) O-NO 76 ° 0 min 0,000 mm 0,7 UV-I 167 W/m² 12,5 °C 13,4 °C 0,0 km/h (0 Bft)
30.06.2018 07:07 13,6 °C 95 % 1011,9 hPa 0,0 mm 0,0 km/h (0 Bft) O-NO 76 ° 0 min 0,000 mm 0,7 UV-I 171 W/m² 12,8 °C 13,6 °C 0,0 km/h (0 Bft)
30.06.2018 07:08 13,7 °C 95 % 1011,9 hPa 0,0 mm 0,0 km/h (0 Bft) O-NO 76 ° 0 min 0,000 mm 0,7 UV-I 172 W/m² 12,9 °C 13,7 °C 0,0 km/h (0 Bft)
30.06.2018 07:09 13,7 °C 94 % 1011,9 hPa 0,0 mm 0,0 km/h (0 Bft) O-NO 76 ° 0 min 0,000 mm 0,7 UV-I 174 W/m² 12,8 °C 13,7 °C 0,0 km/h (0 Bft)
30.06.2018 07:10 13,8 °C 94 % 1011,9 hPa 0,0 mm 0,0 km/h (0 Bft) O-NO 76 ° 0 min 0,000 mm 0,7 UV-I 176 W/m² 12,9 °C 13,8 °C 0,0 km/h (0 Bft)
30.06.2018 07:11 13,8 °C 94 % 1011,9 hPa 0,0 mm 0,0 km/h (0 Bft) O-NO 76 ° 0 min 0,000 mm 0,7 UV-I 178 W/m² 12,9 °C 13,8 °C 0,0 km/h (0 Bft)
30.06.2018 07:12 13,9 °C 94 % 1011,9 hPa 0,0 mm 0,0 km/h (0 Bft) O-NO 76 ° 0 min 0,000 mm 0,8 UV-I 181 W/m² 12,9 °C 13,9 °C 0,0 km/h (0 Bft)
30.06.2018 07:13 13,9 °C 94 % 1011,8 hPa 0,0 mm 0,0 km/h (0 Bft) O-NO 76 ° 0 min 0,000 mm 0,8 UV-I 181 W/m² 12,9 °C 13,9 °C 0,0 km/h (0 Bft)
30.06.2018 07:14 14,0 °C 94 % 1011,8 hPa 0,0 mm 0,0 km/h (0 Bft) O-NO 76 ° 0 min 0,000 mm 0,8 UV-I 186 W/m² 13,0 °C 14,0 °C 0,0 km/h (0 Bft)
30.06.2018 07:15 14,0 °C 94 % 1011,8 hPa 0,0 mm 0,0 km/h (0 Bft) O-NO 76 ° 0 min 0,000 mm 0,8 UV-I 188 W/m² 13,0 °C 14,0 °C 0,0 km/h (0 Bft)
30.06.2018 07:16 14,1 °C 94 % 1011,9 hPa 0,0 mm 0,0 km/h (0 Bft) O-NO 76 ° 0 min 0,000 mm 0,8 UV-I 190 W/m² 13,1 °C 14,1 °C 0,0 km/h (0 Bft)
30.06.2018 07:17 14,1 °C 94 % 1011,8 hPa 0,0 mm 0,0 km/h (0 Bft) O-NO 76 ° 0 min 0,000 mm 0,8 UV-I 193 W/m² 13,1 °C 14,1 °C 0,0 km/h (0 Bft)
30.06.2018 07:18 14,1 °C 94 % 1011,8 hPa 0,0 mm 0,0 km/h (0 Bft) O-NO 76 ° 0 min 0,000 mm 0,8 UV-I 195 W/m² 13,1 °C 14,1 °C 0,0 km/h (0 Bft)
30.06.2018 07:19 14,1 °C 93 % 1011,8 hPa 0,0 mm 0,0 km/h (0 Bft) O-NO 76 ° 0 min 0,000 mm 0,8 UV-I 199 W/m² 13,0 °C 14,1 °C 0,0 km/h (0 Bft)
30.06.2018 07:20 14,2 °C 93 % 1011,8 hPa 0,0 mm 0,0 km/h (0 Bft) O-NO 76 ° 0 min 0,000 mm 0,9 UV-I 200 W/m² 13,1 °C 14,2 °C 0,0 km/h (0 Bft)
30.06.2018 07:21 14,3 °C 93 % 1011,8 hPa 0,0 mm 0,0 km/h (0 Bft) O-NO 76 ° 0 min 0,000 mm 0,9 UV-I 202 W/m² 13,2 °C 14,3 °C 0,0 km/h (0 Bft)
30.06.2018 07:22 14,4 °C 94 % 1011,8 hPa 0,0 mm 0,0 km/h (0 Bft) O-NO 76 ° 0 min 0,000 mm 0,9 UV-I 204 W/m² 13,4 °C 14,4 °C 0,0 km/h (0 Bft)
30.06.2018 07:23 14,6 °C 93 % 1011,8 hPa 0,0 mm 0,0 km/h (0 Bft) O-NO 76 ° 0 min 0,000 mm 0,9 UV-I 207 W/m² 13,5 °C 14,6 °C 0,0 km/h (0 Bft)
30.06.2018 07:24 14,7 °C 94 % 1011,8 hPa 0,0 mm 0,0 km/h (0 Bft) O-NO 76 ° 0 min 0,000 mm 0,9 UV-I 209 W/m² 13,7 °C 14,7 °C 0,0 km/h (0 Bft)
30.06.2018 07:25 14,8 °C 93 % 1011,8 hPa 0,0 mm 0,0 km/h (0 Bft) O-NO 76 ° 0 min 0,000 mm 0,9 UV-I 213 W/m² 13,7 °C 14,8 °C 0,0 km/h (0 Bft)
30.06.2018 07:26 14,8 °C 93 % 1011,8 hPa 0,0 mm 0,0 km/h (0 Bft) O-NO 76 ° 0 min 0,000 mm 1,0 UV-I 216 W/m² 13,7 °C 14,8 °C 0,0 km/h (0 Bft)
30.06.2018 07:27 14,8 °C 93 % 1011,8 hPa 0,0 mm 0,0 km/h (0 Bft) O-NO 76 ° 0 min 0,000 mm 1,0 UV-I 218 W/m² 13,7 °C 14,8 °C 0,0 km/h (0 Bft)
30.06.2018 07:28 14,8 °C 93 % 1011,8 hPa 0,0 mm 0,0 km/h (0 Bft) O-NO 76 ° 0 min 0,000 mm 1,0 UV-I 220 W/m² 13,7 °C 14,8 °C 0,0 km/h (0 Bft)
30.06.2018 07:29 15,1 °C 93 % 1011,8 hPa 0,0 mm 0,0 km/h (0 Bft) O-NO 76 ° 0 min 0,000 mm 1,0 UV-I 221 W/m² 14,0 °C 15,1 °C 0,0 km/h (0 Bft)
30.06.2018 07:30 15,2 °C 93 % 1011,8 hPa 0,0 mm 0,0 km/h (0 Bft) O-NO 76 ° 0 min 0,000 mm 1,0 UV-I 223 W/m² 14,1 °C 15,2 °C 0,0 km/h (0 Bft)
30.06.2018 07:31 15,2 °C 93 % 1011,8 hPa 0,0 mm 0,0 km/h (0 Bft) O-NO 76 ° 0 min 0,000 mm 1,1 UV-I 227 W/m² 14,1 °C 15,2 °C 0,0 km/h (0 Bft)
30.06.2018 07:32 15,3 °C 92 % 1011,8 hPa 0,0 mm 0,0 km/h (0 Bft) O-NO 76 ° 0 min 0,000 mm 1,1 UV-I 229 W/m² 14,0 °C 15,3 °C 0,0 km/h (0 Bft)
30.06.2018 07:33 15,3 °C 93 % 1011,8 hPa 0,0 mm 0,0 km/h (0 Bft) O-NO 76 ° 0 min 0,000 mm 1,1 UV-I 232 W/m² 14,2 °C 15,3 °C 0,0 km/h (0 Bft)
30.06.2018 07:34 15,3 °C 92 % 1011,8 hPa 0,0 mm 0,0 km/h (0 Bft) O-NO 76 ° 0 min 0,000 mm 1,1 UV-I 234 W/m² 14,0 °C 15,3 °C 0,0 km/h (0 Bft)
30.06.2018 07:35 15,2 °C 92 % 1011,8 hPa 0,0 mm 0,0 km/h (0 Bft) O-NO 76 ° 0 min 0,000 mm 1,1 UV-I 236 W/m² 13,9 °C 15,2 °C 0,0 km/h (0 Bft)
30.06.2018 07:36 15,3 °C 92 % 1011,8 hPa 0,0 mm 0,0 km/h (0 Bft) O-NO 76 ° 0 min 0,000 mm 1,1 UV-I 239 W/m² 14,0 °C 15,3 °C 0,0 km/h (0 Bft)
30.06.2018 07:37 15,3 °C 92 % 1011,9 hPa 0,0 mm 0,0 km/h (0 Bft) O-NO 76 ° 0 min 0,000 mm 1,2 UV-I 243 W/m² 14,0 °C 15,3 °C 0,0 km/h (0 Bft)
30.06.2018 07:38 15,4 °C 92 % 1011,9 hPa 0,0 mm 0,0 km/h (0 Bft) O-NO 76 ° 0 min 0,000 mm 1,2 UV-I 244 W/m² 14,1 °C 15,4 °C 0,0 km/h (0 Bft)
30.06.2018 07:39 15,5 °C 92 % 1011,9 hPa 0,0 mm 0,0 km/h (0 Bft) O-NO 76 ° 0 min 0,000 mm 1,2 UV-I 248 W/m² 14,2 °C 15,5 °C 0,0 km/h (0 Bft)
30.06.2018 07:40 15,5 °C 92 % 1011,8 hPa 0,0 mm 0,0 km/h (0 Bft) O-NO 76 ° 0 min 0,000 mm 1,2 UV-I 250 W/m² 14,2 °C 15,5 °C 0,0 km/h (0 Bft)
30.06.2018 07:41 15,4 °C 92 % 1011,8 hPa 0,0 mm 0,0 km/h (0 Bft) O-NO 76 ° 0 min 0,000 mm 1,2 UV-I 251 W/m² 14,1 °C 15,4 °C 0,0 km/h (0 Bft)
30.06.2018 07:42 15,4 °C 92 % 1011,8 hPa 0,0 mm 0,0 km/h (0 Bft) O-NO 76 ° 0 min 0,000 mm 1,2 UV-I 260 W/m² 14,1 °C 15,4 °C 0,0 km/h (0 Bft)
30.06.2018 07:43 15,4 °C 92 % 1011,8 hPa 0,0 mm 0,0 km/h (0 Bft) O 88 ° 0 min 0,000 mm 1,3 UV-I 179 W/m² 14,1 °C 15,4 °C 0,0 km/h (0 Bft)
30.06.2018 07:44 15,4 °C 92 % 1011,9 hPa 0,0 mm 0,0 km/h (0 Bft) O 88 ° 0 min 0,000 mm 1,3 UV-I 265 W/m² 14,1 °C 15,4 °C 0,0 km/h (0 Bft)
30.06.2018 07:45 15,4 °C 92 % 1011,9 hPa 0,0 mm 0,0 km/h (0 Bft) O 88 ° 0 min 0,000 mm 1,3 UV-I 265 W/m² 14,1 °C 15,4 °C 0,0 km/h (0 Bft)
30.06.2018 07:46 15,5 °C 92 % 1011,9 hPa 0,0 mm 0,0 km/h (0 Bft) O 88 ° 0 min 0,000 mm 1,3 UV-I 265 W/m² 14,2 °C 15,5 °C 0,0 km/h (0 Bft)
30.06.2018 07:47 15,6 °C 92 % 1011,9 hPa 0,0 mm 0,0 km/h (0 Bft) O 88 ° 0 min 0,000 mm 1,3 UV-I 267 W/m² 14,3 °C 15,6 °C 0,0 km/h (0 Bft)
30.06.2018 07:48 15,7 °C 92 % 1011,8 hPa 0,0 mm 0,0 km/h (0 Bft) O 88 ° 0 min 0,000 mm 1,3 UV-I 271 W/m² 14,4 °C 15,7 °C 0,0 km/h (0 Bft)
30.06.2018 07:49 15,7 °C 92 % 1011,9 hPa 0,0 mm 0,0 km/h (0 Bft) O 88 ° 0 min 0,000 mm 1,4 UV-I 274 W/m² 14,4 °C 15,7 °C 0,0 km/h (0 Bft)
30.06.2018 07:50 15,8 °C 91 % 1011,9 hPa 0,0 mm 0,0 km/h (0 Bft) O 88 ° 0 min 0,000 mm 1,4 UV-I 276 W/m² 14,3 °C 15,8 °C 0,0 km/h (0 Bft)
30.06.2018 07:51 15,9 °C 92 % 1011,9 hPa 0,0 mm 0,0 km/h (0 Bft) O 88 ° 0 min 0,000 mm 1,4 UV-I 278 W/m² 14,6 °C 15,9 °C 0,0 km/h (0 Bft)
30.06.2018 07:52 15,9 °C 91 % 1011,9 hPa 0,0 mm 0,0 km/h (0 Bft) O 88 ° 0 min 0,000 mm 1,4 UV-I 281 W/m² 14,4 °C 15,9 °C 0,0 km/h (0 Bft)
30.06.2018 07:53 15,9 °C 91 % 1011,9 hPa 0,0 mm 0,0 km/h (0 Bft) O 88 ° 0 min 0,000 mm 1,4 UV-I 285 W/m² 14,4 °C 15,9 °C 0,0 km/h (0 Bft)
30.06.2018 07:54 15,9 °C 91 % 1011,9 hPa 0,0 mm 0,0 km/h (0 Bft) O 88 ° 0 min 0,000 mm 1,4 UV-I 288 W/m² 14,4 °C 15,9 °C 0,0 km/h (0 Bft)
30.06.2018 07:55 15,9 °C 91 % 1011,9 hPa 0,0 mm 0,0 km/h (0 Bft) O 88 ° 0 min 0,000 mm 1,5 UV-I 295 W/m² 14,4 °C 15,9 °C 0,0 km/h (0 Bft)
30.06.2018 07:56 16,1 °C 91 % 1011,9 hPa 0,0 mm 0,0 km/h (0 Bft) O 88 ° 0 min 0,000 mm 1,5 UV-I 299 W/m² 14,6 °C 16,1 °C 0,0 km/h (0 Bft)
30.06.2018 07:57 16,1 °C 91 % 1011,9 hPa 0,0 mm 0,0 km/h (0 Bft) O 88 ° 0 min 0,000 mm 1,5 UV-I 301 W/m² 14,6 °C 16,1 °C 0,0 km/h (0 Bft)
30.06.2018 07:58 16,2 °C 91 % 1011,9 hPa 0,0 mm 0,0 km/h (0 Bft) O 88 ° 0 min 0,000 mm 1,5 UV-I 304 W/m² 14,7 °C 16,2 °C 0,0 km/h (0 Bft)
30.06.2018 07:59 16,3 °C 91 % 1011,9 hPa 0,0 mm 0,0 km/h (0 Bft) O 88 ° 0 min 0,000 mm 1,5 UV-I 308 W/m² 14,8 °C 16,3 °C 0,0 km/h (0 Bft)
30.06.2018 08:00 16,4 °C 91 % 1011,9 hPa 0,0 mm 0,0 km/h (0 Bft) O 88 ° 0 min 0,000 mm 1,6 UV-I 315 W/m² 14,9 °C 16,4 °C 0,0 km/h (0 Bft)
30.06.2018 08:01 16,4 °C 90 % 1011,9 hPa 0,0 mm 0,0 km/h (0 Bft) O 88 ° 0 min 0,127 mm 1,6 UV-I 316 W/m² 14,8 °C 16,4 °C 0,0 km/h (0 Bft)
30.06.2018 08:02 16,4 °C 90 % 1011,9 hPa 0,0 mm 0,0 km/h (0 Bft) O 88 ° 0 min 0,000 mm 1,6 UV-I 318 W/m² 14,8 °C 16,4 °C 0,0 km/h (0 Bft)
30.06.2018 08:03 16,6 °C 90 % 1012,0 hPa 0,0 mm 0,0 km/h (0 Bft) O 88 ° 0 min 0,000 mm 1,6 UV-I 322 W/m² 15,0 °C 16,6 °C 0,0 km/h (0 Bft)
30.06.2018 08:04 16,6 °C 90 % 1012,0 hPa 0,0 mm 0,0 km/h (0 Bft) O 88 ° 0 min 0,000 mm 1,6 UV-I 322 W/m² 15,0 °C 16,6 °C 0,0 km/h (0 Bft)
30.06.2018 08:05 16,7 °C 90 % 1011,9 hPa 0,0 mm 0,0 km/h (0 Bft) O 88 ° 0 min 0,000 mm 1,7 UV-I 325 W/m² 15,0 °C 16,7 °C 0,0 km/h (0 Bft)
30.06.2018 08:06 16,7 °C 89 % 1012,0 hPa 0,0 mm 0,0 km/h (0 Bft) O 88 ° 0 min 0,000 mm 1,7 UV-I 330 W/m² 14,9 °C 16,7 °C 0,0 km/h (0 Bft)
30.06.2018 08:07 16,7 °C 89 % 1011,9 hPa 0,0 mm 0,0 km/h (0 Bft) O 88 ° 0 min 0,000 mm 1,7 UV-I 334 W/m² 14,9 °C 16,7 °C 0,0 km/h (0 Bft)
30.06.2018 08:08 16,7 °C 89 % 1011,9 hPa 0,0 mm 0,0 km/h (0 Bft) O 88 ° 0 min 0,000 mm 1,7 UV-I 336 W/m² 14,9 °C 16,7 °C 0,0 km/h (0 Bft)
30.06.2018 08:09 16,7 °C 89 % 1011,9 hPa 0,0 mm 0,0 km/h (0 Bft) O 88 ° 0 min 0,000 mm 1,8 UV-I 338 W/m² 14,9 °C 16,7 °C 0,0 km/h (0 Bft)
30.06.2018 08:10 16,9 °C 90 % 1011,9 hPa 0,0 mm 0,0 km/h (0 Bft) O 88 ° 0 min 0,000 mm 1,8 UV-I 339 W/m² 15,2 °C 16,9 °C 0,0 km/h (0 Bft)
30.06.2018 08:11 17,0 °C 90 % 1011,9 hPa 0,0 mm 0,0 km/h (0 Bft) O 88 ° 0 min 0,000 mm 1,8 UV-I 341 W/m² 15,3 °C 17,0 °C 0,0 km/h (0 Bft)
30.06.2018 08:12 17,1 °C 90 % 1011,9 hPa 0,0 mm 0,0 km/h (0 Bft) O 88 ° 0 min 0,000 mm 1,8 UV-I 348 W/m² 15,4 °C 17,1 °C 0,0 km/h (0 Bft)
30.06.2018 08:13 17,1 °C 89 % 1011,9 hPa 0,0 mm 0,0 km/h (0 Bft) O 88 ° 0 min 0,000 mm 1,8 UV-I 350 W/m² 15,3 °C 17,1 °C 0,0 km/h (0 Bft)
30.06.2018 08:14 17,0 °C 89 % 1011,9 hPa 0,0 mm 0,0 km/h (0 Bft) O 88 ° 0 min 0,000 mm 1,9 UV-I 353 W/m² 15,2 °C 17,0 °C 0,0 km/h (0 Bft)
30.06.2018 08:15 17,0 °C 90 % 1011,9 hPa 0,0 mm 0,0 km/h (0 Bft) O 88 ° 0 min 0,000 mm 1,9 UV-I 355 W/m² 15,3 °C 17,0 °C 0,0 km/h (0 Bft)
30.06.2018 08:16 17,1 °C 90 % 1011,9 hPa 0,0 mm 0,0 km/h (0 Bft) O 88 ° 0 min 0,000 mm 1,9 UV-I 359 W/m² 15,4 °C 17,1 °C 0,0 km/h (0 Bft)
30.06.2018 08:17 17,3 °C 90 % 1011,9 hPa 0,0 mm 0,1 km/h (0 Bft) O 88 ° 0 min 0,000 mm 1,9 UV-I 360 W/m² 15,6 °C 17,3 °C 1,6 km/h (1 Bft)
30.06.2018 08:18 17,6 °C 90 % 1011,9 hPa 0,0 mm 0,0 km/h (0 Bft) O 88 ° 0 min 0,000 mm 1,9 UV-I 366 W/m² 15,9 °C 17,6 °C 0,0 km/h (0 Bft)
30.06.2018 08:19 17,6 °C 89 % 1011,9 hPa 0,0 mm 0,0 km/h (0 Bft) O 88 ° 0 min 0,000 mm 2,0 UV-I 367 W/m² 15,8 °C 17,6 °C 0,0 km/h (0 Bft)
30.06.2018 08:20 17,4 °C 89 % 1011,9 hPa 0,0 mm 0,0 km/h (0 Bft) O 88 ° 0 min 0,000 mm 2,0 UV-I 371 W/m² 15,6 °C 17,4 °C 0,0 km/h (0 Bft)
30.06.2018 08:21 17,4 °C 89 % 1011,8 hPa 0,0 mm 0,0 km/h (0 Bft) O 88 ° 0 min 0,000 mm 2,0 UV-I 374 W/m² 15,6 °C 17,4 °C 0,0 km/h (0 Bft)
30.06.2018 08:22 17,4 °C 89 % 1011,9 hPa 0,0 mm 0,0 km/h (0 Bft) O 88 ° 0 min 0,000 mm 2,0 UV-I 376 W/m² 15,6 °C 17,4 °C 0,0 km/h (0 Bft)
30.06.2018 08:23 17,5 °C 88 % 1011,8 hPa 0,0 mm 0,0 km/h (0 Bft) O 88 ° 0 min 0,000 mm 2,1 UV-I 380 W/m² 15,5 °C 17,5 °C 0,0 km/h (0 Bft)
30.06.2018 08:24 17,6 °C 88 % 1011,8 hPa 0,0 mm 0,0 km/h (0 Bft) O 88 ° 0 min 0,000 mm 2,1 UV-I 383 W/m² 15,6 °C 17,6 °C 0,0 km/h (0 Bft)
30.06.2018 08:25 17,7 °C 89 % 1011,8 hPa 0,0 mm 0,0 km/h (0 Bft) O 88 ° 0 min 0,000 mm 2,1 UV-I 387 W/m² 15,9 °C 17,7 °C 0,0 km/h (0 Bft)
30.06.2018 08:26 17,7 °C 88 % 1011,8 hPa 0,0 mm 0,0 km/h (0 Bft) O 88 ° 0 min 0,000 mm 2,1 UV-I 388 W/m² 15,7 °C 17,7 °C 0,0 km/h (0 Bft)
30.06.2018 08:27 17,8 °C 88 % 1011,8 hPa 0,0 mm 0,0 km/h (0 Bft) O 88 ° 0 min 0,000 mm 2,1 UV-I 392 W/m² 15,8 °C 17,8 °C 0,0 km/h (0 Bft)
30.06.2018 08:28 17,9 °C 89 % 1011,8 hPa 0,0 mm 0,0 km/h (0 Bft) O 88 ° 0 min 0,000 mm 2,2 UV-I 394 W/m² 16,1 °C 17,9 °C 0,0 km/h (0 Bft)
30.06.2018 08:29 17,9 °C 89 % 1011,7 hPa 0,0 mm 0,0 km/h (0 Bft) O 88 ° 0 min 0,000 mm 2,2 UV-I 399 W/m² 16,1 °C 17,9 °C 0,0 km/h (0 Bft)
30.06.2018 08:30 17,9 °C 89 % 1011,8 hPa 0,0 mm 0,0 km/h (0 Bft) O 88 ° 0 min 0,000 mm 2,2 UV-I 399 W/m² 16,1 °C 17,9 °C 0,0 km/h (0 Bft)
30.06.2018 08:31 17,9 °C 88 % 1011,8 hPa 0,0 mm 0,0 km/h (0 Bft) O 88 ° 0 min 0,000 mm 2,2 UV-I 404 W/m² 15,9 °C 17,9 °C 0,0 km/h (0 Bft)
30.06.2018 08:32 18,1 °C 88 % 1011,8 hPa 0,0 mm 0,0 km/h (0 Bft) O 88 ° 0 min 0,000 mm 2,2 UV-I 406 W/m² 16,1 °C 18,1 °C 0,0 km/h (0 Bft)
30.06.2018 08:33 18,1 °C 88 % 1011,9 hPa 0,0 mm 0,0 km/h (0 Bft) O 88 ° 0 min 0,000 mm 2,3 UV-I 410 W/m² 16,1 °C 18,1 °C 0,0 km/h (0 Bft)
30.06.2018 08:34 18,0 °C 87 % 1011,8 hPa 0,0 mm 0,0 km/h (0 Bft) O 88 ° 0 min 0,000 mm 2,3 UV-I 413 W/m² 15,8 °C 18,0 °C 0,0 km/h (0 Bft)
30.06.2018 08:35 18,1 °C 88 % 1011,8 hPa 0,0 mm 0,0 km/h (0 Bft) O 88 ° 0 min 0,000 mm 2,3 UV-I 417 W/m² 16,1 °C 18,1 °C 0,0 km/h (0 Bft)
30.06.2018 08:36 18,1 °C 87 % 1011,8 hPa 0,0 mm 0,0 km/h (0 Bft) O 88 ° 0 min 0,000 mm 2,3 UV-I 420 W/m² 15,9 °C 18,1 °C 0,0 km/h (0 Bft)
30.06.2018 08:37 18,1 °C 87 % 1011,8 hPa 0,0 mm 0,0 km/h (0 Bft) O 88 ° 0 min 0,000 mm 2,4 UV-I 422 W/m² 15,9 °C 18,1 °C 0,0 km/h (0 Bft)
30.06.2018 08:38 18,0 °C 87 % 1011,8 hPa 0,0 mm 0,0 km/h (0 Bft) O 88 ° 0 min 0,000 mm 2,4 UV-I 425 W/m² 15,8 °C 18,0 °C 0,0 km/h (0 Bft)
30.06.2018 08:39 18,0 °C 86 % 1011,7 hPa 0,0 mm 0,0 km/h (0 Bft) O 88 ° 0 min 0,000 mm 2,4 UV-I 427 W/m² 15,6 °C 18,0 °C 0,0 km/h (0 Bft)
30.06.2018 08:40 18,1 °C 88 % 1011,8 hPa 0,0 mm 0,0 km/h (0 Bft) O 88 ° 0 min 0,000 mm 2,4 UV-I 431 W/m² 16,1 °C 18,1 °C 0,0 km/h (0 Bft)
30.06.2018 08:41 18,2 °C 87 % 1011,8 hPa 0,0 mm 0,0 km/h (0 Bft) O 88 ° 0 min 0,000 mm 2,4 UV-I 436 W/m² 16,0 °C 18,2 °C 0,0 km/h (0 Bft)
30.06.2018 08:42 18,3 °C 87 % 1011,7 hPa 0,0 mm 0,0 km/h (0 Bft) O 88 ° 0 min 0,000 mm 2,5 UV-I 438 W/m² 16,1 °C 18,3 °C 0,0 km/h (0 Bft)
30.06.2018 08:43 18,4 °C 86 % 1011,7 hPa 0,0 mm 0,0 km/h (0 Bft) O 88 ° 0 min 0,000 mm 2,5 UV-I 439 W/m² 16,0 °C 18,4 °C 0,0 km/h (0 Bft)
30.06.2018 08:44 18,7 °C 85 % 1011,7 hPa 0,0 mm 0,0 km/h (0 Bft) O 88 ° 0 min 0,000 mm 2,5 UV-I 443 W/m² 16,1 °C 18,7 °C 0,0 km/h (0 Bft)
30.06.2018 08:45 18,8 °C 87 % 1011,7 hPa 0,0 mm 0,0 km/h (0 Bft) O 88 ° 0 min 0,000 mm 2,5 UV-I 445 W/m² 16,6 °C 18,8 °C 0,0 km/h (0 Bft)
30.06.2018 08:46 19,0 °C 86 % 1011,7 hPa 0,0 mm 0,0 km/h (0 Bft) O 88 ° 0 min 0,000 mm 2,6 UV-I 446 W/m² 16,6 °C 19,0 °C 0,0 km/h (0 Bft)
30.06.2018 08:47 19,0 °C 87 % 1011,7 hPa 0,0 mm 0,0 km/h (0 Bft) O 88 ° 0 min 0,000 mm 2,6 UV-I 450 W/m² 16,8 °C 19,0 °C 0,0 km/h (0 Bft)
30.06.2018 08:48 19,0 °C 85 % 1011,7 hPa 0,0 mm 0,0 km/h (0 Bft) O 88 ° 0 min 0,000 mm 2,6 UV-I 454 W/m² 16,4 °C 19,0 °C 0,0 km/h (0 Bft)
30.06.2018 08:49 19,1 °C 84 % 1011,7 hPa 0,0 mm 0,0 km/h (0 Bft) O 88 ° 0 min 0,000 mm 2,7 UV-I 455 W/m² 16,3 °C 19,1 °C 0,0 km/h (0 Bft)
30.06.2018 08:50 19,2 °C 85 % 1011,6 hPa 0,0 mm 0,0 km/h (0 Bft) O 88 ° 0 min 0,000 mm 2,7 UV-I 459 W/m² 16,6 °C 19,2 °C 0,0 km/h (0 Bft)
30.06.2018 08:51 19,3 °C 84 % 1011,7 hPa 0,0 mm 0,5 km/h (0 Bft) N-NO 27 ° 0 min 0,000 mm 2,7 UV-I 461 W/m² 16,5 °C 19,3 °C 3,2 km/h (1 Bft)
30.06.2018 08:52 19,4 °C 84 % 1011,6 hPa 0,0 mm 1,6 km/h (1 Bft) N-NO 27 ° 0 min 0,000 mm 2,7 UV-I 464 W/m² 16,6 °C 19,4 °C 3,2 km/h (1 Bft)
30.06.2018 08:53 19,4 °C 84 % 1011,6 hPa 0,0 mm 1,7 km/h (1 Bft) N-NO 27 ° 0 min 0,000 mm 2,7 UV-I 469 W/m² 16,6 °C 19,4 °C 3,2 km/h (1 Bft)
30.06.2018 08:54 19,5 °C 83 % 1011,6 hPa 0,0 mm 1,3 km/h (1 Bft) N-NO 27 ° 0 min 0,000 mm 2,8 UV-I 471 W/m² 16,5 °C 19,5 °C 3,2 km/h (1 Bft)
30.06.2018 08:55 19,6 °C 82 % 1011,6 hPa 0,0 mm 0,5 km/h (0 Bft) N-NO 27 ° 0 min 0,000 mm 2,8 UV-I 473 W/m² 16,4 °C 19,6 °C 1,6 km/h (1 Bft)
30.06.2018 08:56 19,5 °C 81 % 1011,6 hPa 0,0 mm 0,0 km/h (0 Bft) N-NO 27 ° 0 min 0,000 mm 2,8 UV-I 476 W/m² 16,1 °C 19,5 °C 0,0 km/h (0 Bft)
30.06.2018 08:57 19,6 °C 81 % 1011,6 hPa 0,0 mm 0,0 km/h (0 Bft) N-NO 27 ° 0 min 0,000 mm 2,8 UV-I 476 W/m² 16,2 °C 19,6 °C 0,0 km/h (0 Bft)
30.06.2018 08:58 19,6 °C 82 % 1011,6 hPa 0,0 mm 0,3 km/h (0 Bft) N-NO 26 ° 0 min 0,000 mm 2,9 UV-I 480 W/m² 16,4 °C 19,6 °C 1,6 km/h (1 Bft)
30.06.2018 08:59 19,6 °C 82 % 1011,6 hPa 0,0 mm 0,1 km/h (0 Bft) N-NO 26 ° 0 min 0,000 mm 2,9 UV-I 485 W/m² 16,4 °C 19,6 °C 1,6 km/h (1 Bft)
30.06.2018 09:00 19,6 °C 82 % 1011,6 hPa 0,0 mm 0,0 km/h (0 Bft) N-NO 27 ° 0 min 0,228 mm 2,9 UV-I 489 W/m² 16,4 °C 19,6 °C 0,0 km/h (0 Bft)
30.06.2018 09:01 19,6 °C 80 % 1011,6 hPa 0,0 mm 0,0 km/h (0 Bft) N-NO 27 ° 0 min 0,000 mm 3,0 UV-I 490 W/m² 16,1 °C 19,6 °C 0,0 km/h (0 Bft)
30.06.2018 09:02 19,4 °C 81 % 1011,6 hPa 0,0 mm 0,3 km/h (0 Bft) N-NO 26 ° 0 min 0,000 mm 3,0 UV-I 494 W/m² 16,1 °C 19,4 °C 1,6 km/h (1 Bft)
30.06.2018 09:03 19,3 °C 82 % 1011,5 hPa 0,0 mm 1,1 km/h (1 Bft) N-NO 27 ° 0 min 0,000 mm 3,0 UV-I 496 W/m² 16,1 °C 19,3 °C 1,6 km/h (1 Bft)
30.06.2018 09:04 19,3 °C 82 % 1011,6 hPa 0,0 mm 2,0 km/h (1 Bft) N-NO 27 ° 0 min 0,000 mm 3,0 UV-I 499 W/m² 16,1 °C 19,3 °C 3,2 km/h (1 Bft)
30.06.2018 09:05 19,2 °C 84 % 1011,5 hPa 0,0 mm 2,1 km/h (1 Bft) N-NO 27 ° 0 min 0,000 mm 3,0 UV-I 504 W/m² 16,4 °C 19,2 °C 3,2 km/h (1 Bft)
30.06.2018 09:06 19,2 °C 83 % 1011,5 hPa 0,0 mm 1,7 km/h (1 Bft) N-NO 27 ° 0 min 0,000 mm 3,1 UV-I 506 W/m² 16,2 °C 19,2 °C 3,2 km/h (1 Bft)
30.06.2018 09:07 19,2 °C 82 % 1011,5 hPa 0,0 mm 1,0 km/h (0 Bft) N-NO 27 ° 0 min 0,000 mm 3,1 UV-I 510 W/m² 16,0 °C 19,2 °C 3,2 km/h (1 Bft)
30.06.2018 09:08 19,3 °C 81 % 1011,5 hPa 0,0 mm 2,0 km/h (1 Bft) N-NO 27 ° 0 min 0,000 mm 3,1 UV-I 512 W/m² 16,0 °C 19,3 °C 3,2 km/h (1 Bft)
30.06.2018 09:09 19,3 °C 79 % 1011,5 hPa 0,0 mm 0,2 km/h (0 Bft) N-NO 27 ° 0 min 0,000 mm 3,1 UV-I 513 W/m² 15,6 °C 19,3 °C 1,6 km/h (1 Bft)
30.06.2018 09:10 19,3 °C 79 % 1011,5 hPa 0,0 mm 0,0 km/h (0 Bft) N-NO 27 ° 0 min 0,000 mm 3,1 UV-I 515 W/m² 15,6 °C 19,3 °C 0,0 km/h (0 Bft)
30.06.2018 09:11 19,6 °C 78 % 1011,5 hPa 0,0 mm 0,0 km/h (0 Bft) N-NO 27 ° 0 min 0,000 mm 3,1 UV-I 519 W/m² 15,7 °C 19,6 °C 0,0 km/h (0 Bft)
30.06.2018 09:12 19,6 °C 79 % 1011,5 hPa 0,0 mm 0,0 km/h (0 Bft) N-NO 27 ° 0 min 0,000 mm 3,2 UV-I 520 W/m² 15,9 °C 19,6 °C 0,0 km/h (0 Bft)
30.06.2018 09:13 19,6 °C 78 % 1011,5 hPa 0,0 mm 0,1 km/h (0 Bft) N-NO 27 ° 0 min 0,000 mm 3,2 UV-I 522 W/m² 15,7 °C 19,6 °C 1,6 km/h (1 Bft)
30.06.2018 09:14 19,6 °C 80 % 1011,5 hPa 0,0 mm 0,0 km/h (0 Bft) N-NO 27 ° 0 min 0,000 mm 3,2 UV-I 524 W/m² 16,1 °C 19,6 °C 0,0 km/h (0 Bft)
30.06.2018 09:15 19,7 °C 77 % 1011,5 hPa 0,0 mm 0,2 km/h (0 Bft) N-NO 27 ° 0 min 0,000 mm 3,3 UV-I 527 W/m² 15,5 °C 19,7 °C 1,6 km/h (1 Bft)
30.06.2018 09:16 19,7 °C 78 % 1011,5 hPa 0,0 mm 0,0 km/h (0 Bft) N-NO 27 ° 0 min 0,000 mm 3,3 UV-I 531 W/m² 15,8 °C 19,7 °C 0,0 km/h (0 Bft)
30.06.2018 09:17 19,6 °C 79 % 1011,5 hPa 0,0 mm 0,8 km/h (0 Bft) N-NO 27 ° 0 min 0,000 mm 3,3 UV-I 534 W/m² 15,9 °C 19,6 °C 1,6 km/h (1 Bft)
30.06.2018 09:18 19,6 °C 81 % 1011,4 hPa 0,0 mm 0,1 km/h (0 Bft) N-NO 27 ° 0 min 0,000 mm 3,3 UV-I 536 W/m² 16,2 °C 19,6 °C 1,6 km/h (1 Bft)
30.06.2018 09:19 19,7 °C 82 % 1011,5 hPa 0,0 mm 1,3 km/h (1 Bft) N-NO 27 ° 0 min 0,000 mm 3,4 UV-I 540 W/m² 16,5 °C 19,7 °C 3,2 km/h (1 Bft)
30.06.2018 09:20 19,8 °C 82 % 1011,4 hPa 0,0 mm 1,4 km/h (1 Bft) N-NO 27 ° 0 min 0,000 mm 3,4 UV-I 541 W/m² 16,6 °C 19,8 °C 3,2 km/h (1 Bft)
30.06.2018 09:21 20,0 °C 80 % 1011,4 hPa 0,0 mm 2,2 km/h (1 Bft) N-NO 27 ° 0 min 0,000 mm 3,4 UV-I 545 W/m² 16,4 °C 20,0 °C 3,2 km/h (1 Bft)
30.06.2018 09:22 20,2 °C 80 % 1011,5 hPa 0,0 mm 2,2 km/h (1 Bft) N-NO 27 ° 0 min 0,000 mm 3,4 UV-I 550 W/m² 16,6 °C 20,2 °C 3,2 km/h (1 Bft)
30.06.2018 09:23 20,1 °C 79 % 1011,5 hPa 0,0 mm 2,0 km/h (1 Bft) N-NO 28 ° 0 min 0,000 mm 3,5 UV-I 554 W/m² 16,3 °C 20,1 °C 3,2 km/h (1 Bft)
30.06.2018 09:24 20,1 °C 78 % 1011,4 hPa 0,0 mm 1,2 km/h (1 Bft) N-NO 28 ° 0 min 0,000 mm 3,5 UV-I 555 W/m² 16,1 °C 20,1 °C 3,2 km/h (1 Bft)
30.06.2018 09:25 20,2 °C 76 % 1011,4 hPa 0,0 mm 1,0 km/h (0 Bft) NO 34 ° 0 min 0,000 mm 3,5 UV-I 557 W/m² 15,8 °C 20,2 °C 4,8 km/h (1 Bft)
30.06.2018 09:26 20,3 °C 77 % 1011,4 hPa 0,0 mm 4,0 km/h (1 Bft) NO 42 ° 0 min 0,000 mm 3,5 UV-I 561 W/m² 16,1 °C 20,3 °C 4,8 km/h (1 Bft)
30.06.2018 09:27 20,3 °C 77 % 1011,4 hPa 0,0 mm 1,3 km/h (1 Bft) NO 42 ° 0 min 0,000 mm 3,6 UV-I 563 W/m² 16,1 °C 20,3 °C 4,8 km/h (1 Bft)
30.06.2018 09:28 20,3 °C 76 % 1011,4 hPa 0,0 mm 2,8 km/h (1 Bft) NO 42 ° 0 min 0,000 mm 3,6 UV-I 568 W/m² 15,9 °C 20,3 °C 4,8 km/h (1 Bft)
30.06.2018 09:29 20,4 °C 77 % 1011,4 hPa 0,0 mm 1,2 km/h (1 Bft) NO 43 ° 0 min 0,000 mm 3,6 UV-I 570 W/m² 16,2 °C 20,4 °C 3,2 km/h (1 Bft)
30.06.2018 09:30 20,4 °C 76 % 1011,4 hPa 0,0 mm 1,8 km/h (1 Bft) NO 43 ° 0 min 0,000 mm 3,6 UV-I 571 W/m² 16,0 °C 20,4 °C 4,8 km/h (1 Bft)
30.06.2018 09:31 20,4 °C 77 % 1011,5 hPa 0,0 mm 5,2 km/h (1 Bft) O-NO 64 ° 0 min 0,000 mm 3,7 UV-I 571 W/m² 16,2 °C 20,4 °C 6,4 km/h (2 Bft)
30.06.2018 09:32 20,4 °C 78 % 1011,4 hPa 0,0 mm 4,0 km/h (1 Bft) O-NO 57 ° 0 min 0,000 mm 3,7 UV-I 575 W/m² 16,4 °C 20,4 °C 6,4 km/h (2 Bft)
30.06.2018 09:33 20,6 °C 78 % 1011,5 hPa 0,0 mm 3,2 km/h (1 Bft) O 91 ° 0 min 0,000 mm 3,7 UV-I 575 W/m² 16,6 °C 20,6 °C 6,4 km/h (2 Bft)
30.06.2018 09:34 20,6 °C 76 % 1011,5 hPa 0,0 mm 3,2 km/h (1 Bft) O 86 ° 0 min 0,000 mm 3,7 UV-I 580 W/m² 16,2 °C 20,6 °C 4,8 km/h (1 Bft)
30.06.2018 09:35 20,6 °C 76 % 1011,4 hPa 0,0 mm 1,7 km/h (1 Bft) O 86 ° 0 min 0,000 mm 3,7 UV-I 582 W/m² 16,2 °C 20,6 °C 3,2 km/h (1 Bft)
30.06.2018 09:36 20,5 °C 75 % 1011,5 hPa 0,0 mm 0,1 km/h (0 Bft) O 86 ° 0 min 0,000 mm 3,8 UV-I 584 W/m² 15,9 °C 20,5 °C 1,6 km/h (1 Bft)
30.06.2018 09:37 20,4 °C 75 % 1011,5 hPa 0,0 mm 0,3 km/h (0 Bft) O 86 ° 0 min 0,000 mm 3,8 UV-I 585 W/m² 15,8 °C 20,4 °C 3,2 km/h (1 Bft)
30.06.2018 09:38 20,5 °C 76 % 1011,5 hPa 0,0 mm 1,7 km/h (1 Bft) O 86 ° 0 min 0,000 mm 3,8 UV-I 589 W/m² 16,1 °C 20,5 °C 3,2 km/h (1 Bft)
30.06.2018 09:39 20,7 °C 75 % 1011,5 hPa 0,0 mm 1,0 km/h (0 Bft) O 86 ° 0 min 0,000 mm 3,8 UV-I 591 W/m² 16,1 °C 20,7 °C 3,2 km/h (1 Bft)
30.06.2018 09:40 20,7 °C 74 % 1011,5 hPa 0,0 mm 2,5 km/h (1 Bft) O-NO 57 ° 0 min 0,000 mm 3,8 UV-I 592 W/m² 15,9 °C 20,7 °C 4,8 km/h (1 Bft)
30.06.2018 09:41 20,7 °C 75 % 1011,5 hPa 0,0 mm 4,2 km/h (1 Bft) O-NO 57 ° 0 min 0,000 mm 3,9 UV-I 594 W/m² 16,1 °C 20,7 °C 6,4 km/h (2 Bft)
30.06.2018 09:42 20,6 °C 77 % 1011,4 hPa 0,0 mm 2,7 km/h (1 Bft) O-NO 57 ° 0 min 0,000 mm 3,9 UV-I 598 W/m² 16,4 °C 20,6 °C 4,8 km/h (1 Bft)
30.06.2018 09:43 20,5 °C 75 % 1011,5 hPa 0,0 mm 0,9 km/h (0 Bft) O-NO 57 ° 1 min 0,000 mm 3,9 UV-I 601 W/m² 15,9 °C 20,5 °C 3,2 km/h (1 Bft)
30.06.2018 09:44 20,6 °C 76 % 1011,5 hPa 0,0 mm 1,3 km/h (1 Bft) O-NO 57 ° 1 min 0,000 mm 4,0 UV-I 605 W/m² 16,2 °C 20,6 °C 3,2 km/h (1 Bft)
30.06.2018 09:45 20,7 °C 75 % 1011,5 hPa 0,0 mm 0,9 km/h (0 Bft) O-NO 57 ° 1 min 0,000 mm 4,0 UV-I 605 W/m² 16,1 °C 20,7 °C 1,6 km/h (1 Bft)
30.06.2018 09:46 20,7 °C 77 % 1011,4 hPa 0,0 mm 2,5 km/h (1 Bft) O-NO 57 ° 1 min 0,000 mm 4,0 UV-I 612 W/m² 16,5 °C 20,7 °C 4,8 km/h (1 Bft)
30.06.2018 09:47 20,6 °C 77 % 1011,4 hPa 0,0 mm 1,1 km/h (1 Bft) O-NO 57 ° 1 min 0,000 mm 4,0 UV-I 613 W/m² 16,4 °C 20,6 °C 3,2 km/h (1 Bft)
30.06.2018 09:48 20,6 °C 75 % 1011,5 hPa 0,0 mm 0,4 km/h (0 Bft) O-NO 57 ° 1 min 0,000 mm 4,1 UV-I 615 W/m² 16,0 °C 20,6 °C 1,6 km/h (1 Bft)
30.06.2018 09:49 20,6 °C 74 % 1011,4 hPa 0,0 mm 0,7 km/h (0 Bft) O-NO 58 ° 1 min 0,000 mm 4,1 UV-I 617 W/m² 15,8 °C 20,6 °C 1,6 km/h (1 Bft)
30.06.2018 09:50 20,7 °C 75 % 1011,4 hPa 0,0 mm 0,7 km/h (0 Bft) O-NO 58 ° 1 min 0,000 mm 4,1 UV-I 619 W/m² 16,1 °C 20,7 °C 1,6 km/h (1 Bft)
30.06.2018 09:51 20,8 °C 75 % 1011,4 hPa 0,0 mm 0,1 km/h (0 Bft) O-NO 58 ° 1 min 0,000 mm 4,1 UV-I 622 W/m² 16,2 °C 20,8 °C 1,6 km/h (1 Bft)
30.06.2018 09:52 20,8 °C 76 % 1011,4 hPa 0,0 mm 0,7 km/h (0 Bft) O-NO 58 ° 1 min 0,000 mm 4,2 UV-I 626 W/m² 16,4 °C 20,8 °C 1,6 km/h (1 Bft)
30.06.2018 09:53 20,8 °C 75 % 1011,4 hPa 0,0 mm 2,4 km/h (1 Bft) N 5 ° 1 min 0,000 mm 4,2 UV-I 629 W/m² 16,2 °C 20,8 °C 4,8 km/h (1 Bft)
30.06.2018 09:54 20,9 °C 77 % 1011,4 hPa 0,0 mm 4,4 km/h (1 Bft) N-NW 347 ° 1 min 0,000 mm 4,2 UV-I 631 W/m² 16,7 °C 20,9 °C 6,4 km/h (2 Bft)
30.06.2018 09:55 21,2 °C 76 % 1011,4 hPa 0,0 mm 4,5 km/h (1 Bft) N 5 ° 1 min 0,000 mm 4,2 UV-I 631 W/m² 16,8 °C 21,2 °C 6,4 km/h (2 Bft)
30.06.2018 09:56 21,3 °C 77 % 1011,5 hPa 0,0 mm 4,3 km/h (1 Bft) N 5 ° 1 min 0,000 mm 4,3 UV-I 635 W/m² 17,1 °C 21,3 °C 8,0 km/h (2 Bft)
30.06.2018 09:57 21,4 °C 74 % 1011,5 hPa 0,0 mm 5,6 km/h (1 Bft) N 360 ° 1 min 0,000 mm 4,3 UV-I 638 W/m² 16,6 °C 21,4 °C 11,3 km/h (2 Bft)
30.06.2018 09:58 21,5 °C 75 % 1011,5 hPa 0,0 mm 4,2 km/h (1 Bft) N 360 ° 1 min 0,000 mm 4,3 UV-I 640 W/m² 16,9 °C 21,5 °C 6,4 km/h (2 Bft)
30.06.2018 09:59 21,6 °C 72 % 1011,5 hPa 0,0 mm 4,4 km/h (1 Bft) NO 35 ° 1 min 0,000 mm 4,3 UV-I 643 W/m² 16,3 °C 21,6 °C 6,4 km/h (2 Bft)
30.06.2018 10:00 21,5 °C 71 % 1011,5 hPa 0,0 mm 3,7 km/h (1 Bft) NO 38 ° 1 min 0,331 mm 4,4 UV-I 643 W/m² 16,0 °C 21,5 °C 4,8 km/h (1 Bft)
30.06.2018 10:01 21,4 °C 72 % 1011,5 hPa 0,0 mm 1,0 km/h (0 Bft) NO 38 ° 1 min 0,000 mm 4,4 UV-I 645 W/m² 16,1 °C 21,4 °C 3,2 km/h (1 Bft)
30.06.2018 10:02 21,4 °C 73 % 1011,5 hPa 0,0 mm 1,5 km/h (1 Bft) NO 38 ° 1 min 0,000 mm 4,4 UV-I 647 W/m² 16,4 °C 21,4 °C 4,8 km/h (1 Bft)
30.06.2018 10:03 21,4 °C 75 % 1011,5 hPa 0,0 mm 2,6 km/h (1 Bft) NO 35 ° 1 min 0,000 mm 4,4 UV-I 652 W/m² 16,8 °C 21,4 °C 4,8 km/h (1 Bft)
30.06.2018 10:04 21,4 °C 73 % 1011,5 hPa 0,0 mm 2,6 km/h (1 Bft) N-NW 340 ° 1 min 0,000 mm 4,4 UV-I 652 W/m² 16,4 °C 21,4 °C 4,8 km/h (1 Bft)
30.06.2018 10:05 21,6 °C 74 % 1011,5 hPa 0,0 mm 3,4 km/h (1 Bft) N 360 ° 1 min 0,000 mm 4,5 UV-I 656 W/m² 16,8 °C 21,6 °C 6,4 km/h (2 Bft)
30.06.2018 10:06 21,7 °C 74 % 1011,5 hPa 0,0 mm 7,4 km/h (2 Bft) O 87 ° 1 min 0,000 mm 4,5 UV-I 657 W/m² 16,9 °C 21,7 °C 11,3 km/h (2 Bft)
30.06.2018 10:07 21,7 °C 72 % 1011,5 hPa 0,0 mm 4,7 km/h (1 Bft) NO 52 ° 1 min 0,000 mm 4,5 UV-I 663 W/m² 16,4 °C 21,7 °C 9,7 km/h (2 Bft)
30.06.2018 10:08 21,7 °C 71 % 1011,5 hPa 0,0 mm 8,0 km/h (2 Bft) O-NO 69 ° 1 min 0,000 mm 4,5 UV-I 664 W/m² 16,2 °C 21,7 °C 9,7 km/h (2 Bft)
30.06.2018 10:09 21,6 °C 73 % 1011,5 hPa 0,0 mm 5,0 km/h (1 Bft) O 88 ° 1 min 0,000 mm 4,5 UV-I 668 W/m² 16,5 °C 21,6 °C 6,4 km/h (2 Bft)
30.06.2018 10:10 21,6 °C 72 % 1011,6 hPa 0,0 mm 3,0 km/h (1 Bft) NO 51 ° 1 min 0,000 mm 4,6 UV-I 670 W/m² 16,3 °C 21,6 °C 4,8 km/h (1 Bft)
30.06.2018 10:11 21,6 °C 76 % 1011,6 hPa 0,0 mm 1,4 km/h (1 Bft) O-SO 102 ° 1 min 0,000 mm 4,6 UV-I 671 W/m² 17,2 °C 21,6 °C 3,2 km/h (1 Bft)
30.06.2018 10:12 21,6 °C 73 % 1011,6 hPa 0,0 mm 1,0 km/h (0 Bft) O-SO 102 ° 1 min 0,000 mm 4,6 UV-I 673 W/m² 16,5 °C 21,6 °C 3,2 km/h (1 Bft)
30.06.2018 10:13 21,5 °C 73 % 1011,6 hPa 0,0 mm 2,9 km/h (1 Bft) O-NO 61 ° 1 min 0,000 mm 4,6 UV-I 673 W/m² 16,4 °C 21,5 °C 4,8 km/h (1 Bft)
30.06.2018 10:14 21,6 °C 74 % 1011,5 hPa 0,0 mm 1,3 km/h (1 Bft) O-NO 72 ° 1 min 0,000 mm 4,6 UV-I 675 W/m² 16,8 °C 21,6 °C 4,8 km/h (1 Bft)
30.06.2018 10:15 21,6 °C 73 % 1011,6 hPa 0,0 mm 5,6 km/h (1 Bft) O-NO 73 ° 1 min 0,000 mm 4,7 UV-I 679 W/m² 16,5 °C 21,6 °C 8,0 km/h (2 Bft)
30.06.2018 10:16 21,5 °C 72 % 1011,6 hPa 0,0 mm 3,7 km/h (1 Bft) O-NO 73 ° 1 min 0,000 mm 4,7 UV-I 680 W/m² 16,2 °C 21,5 °C 6,4 km/h (2 Bft)
30.06.2018 10:17 21,4 °C 73 % 1011,6 hPa 0,0 mm 2,6 km/h (1 Bft) O-NO 75 ° 1 min 0,000 mm 4,8 UV-I 684 W/m² 16,4 °C 21,4 °C 6,4 km/h (2 Bft)
30.06.2018 10:18 21,4 °C 74 % 1011,5 hPa 0,0 mm 5,0 km/h (1 Bft) O-NO 76 ° 1 min 0,000 mm 4,8 UV-I 687 W/m² 16,6 °C 21,4 °C 6,4 km/h (2 Bft)
30.06.2018 10:19 21,5 °C 73 % 1011,6 hPa 0,0 mm 4,8 km/h (1 Bft) O-NO 67 ° 1 min 0,000 mm 4,8 UV-I 686 W/m² 16,4 °C 21,5 °C 6,4 km/h (2 Bft)
30.06.2018 10:20 21,5 °C 74 % 1011,5 hPa 0,0 mm 6,0 km/h (2 Bft) O-NO 74 ° 1 min 0,000 mm 4,8 UV-I 687 W/m² 16,7 °C 21,5 °C 8,0 km/h (2 Bft)
30.06.2018 10:21 21,6 °C 75 % 1011,6 hPa 0,0 mm 1,9 km/h (1 Bft) O-NO 74 ° 1 min 0,000 mm 4,8 UV-I 691 W/m² 17,0 °C 21,6 °C 3,2 km/h (1 Bft)
30.06.2018 10:22 21,6 °C 74 % 1011,6 hPa 0,0 mm 2,0 km/h (1 Bft) N 355 ° 1 min 0,000 mm 4,9 UV-I 694 W/m² 16,8 °C 21,6 °C 4,8 km/h (1 Bft)
30.06.2018 10:23 21,7 °C 76 % 1011,6 hPa 0,0 mm 3,6 km/h (1 Bft) N 9 ° 1 min 0,000 mm 4,9 UV-I 701 W/m² 17,3 °C 21,7 °C 4,8 km/h (1 Bft)
30.06.2018 10:24 21,8 °C 71 % 1011,6 hPa 0,0 mm 0,8 km/h (0 Bft) N 9 ° 1 min 0,000 mm 4,9 UV-I 707 W/m² 16,3 °C 21,8 °C 1,6 km/h (1 Bft)
30.06.2018 10:25 21,7 °C 72 % 1011,6 hPa 0,0 mm 1,0 km/h (0 Bft) N-NO 28 ° 1 min 0,000 mm 4,9 UV-I 708 W/m² 16,4 °C 21,7 °C 3,2 km/h (1 Bft)
30.06.2018 10:26 21,8 °C 75 % 1011,6 hPa 0,0 mm 3,5 km/h (1 Bft) N-NO 28 ° 1 min 0,000 mm 5,0 UV-I 714 W/m² 17,2 °C 21,8 °C 4,8 km/h (1 Bft)
30.06.2018 10:27 21,8 °C 73 % 1011,6 hPa 0,0 mm 1,9 km/h (1 Bft) N-NO 28 ° 1 min 0,000 mm 5,0 UV-I 707 W/m² 16,7 °C 21,8 °C 3,2 km/h (1 Bft)
30.06.2018 10:28 21,8 °C 72 % 1011,7 hPa 0,0 mm 3,3 km/h (1 Bft) O 82 ° 1 min 0,000 mm 4,9 UV-I 703 W/m² 16,5 °C 21,8 °C 4,8 km/h (1 Bft)
30.06.2018 10:29 21,8 °C 71 % 1011,7 hPa 0,0 mm 5,2 km/h (1 Bft) NO 43 ° 1 min 0,000 mm 5,0 UV-I 703 W/m² 16,3 °C 21,8 °C 9,7 km/h (2 Bft)
30.06.2018 10:30 21,7 °C 71 % 1011,7 hPa 0,0 mm 5,0 km/h (1 Bft) NO 50 ° 1 min 0,000 mm 5,1 UV-I 729 W/m² 16,2 °C 21,7 °C 8,0 km/h (2 Bft)
30.06.2018 10:31 21,7 °C 71 % 1011,7 hPa 0,0 mm 6,5 km/h (2 Bft) O-NO 60 ° 1 min 0,000 mm 5,1 UV-I 737 W/m² 16,2 °C 21,7 °C 8,0 km/h (2 Bft)
30.06.2018 10:32 21,7 °C 73 % 1011,7 hPa 0,0 mm 5,4 km/h (1 Bft) O 88 ° 1 min 0,000 mm 5,1 UV-I 740 W/m² 16,6 °C 21,7 °C 8,0 km/h (2 Bft)
30.06.2018 10:33 21,7 °C 72 % 1011,7 hPa 0,0 mm 2,6 km/h (1 Bft) O 88 ° 1 min 0,000 mm 5,2 UV-I 740 W/m² 16,4 °C 21,7 °C 4,8 km/h (1 Bft)
30.06.2018 10:34 21,7 °C 73 % 1011,7 hPa 0,0 mm 1,7 km/h (1 Bft) O 82 ° 1 min 0,000 mm 5,2 UV-I 751 W/m² 16,6 °C 21,7 °C 3,2 km/h (1 Bft)
30.06.2018 10:35 21,7 °C 72 % 1011,7 hPa 0,0 mm 1,3 km/h (1 Bft) O 82 ° 1 min 0,000 mm 5,3 UV-I 751 W/m² 16,4 °C 21,7 °C 3,2 km/h (1 Bft)
30.06.2018 10:36 21,7 °C 71 % 1011,7 hPa 0,0 mm 0,4 km/h (0 Bft) O 82 ° 1 min 0,000 mm 5,3 UV-I 763 W/m² 16,2 °C 21,7 °C 1,6 km/h (1 Bft)
30.06.2018 10:37 21,8 °C 71 % 1011,7 hPa 0,0 mm 2,4 km/h (1 Bft) O 82 ° 1 min 0,000 mm 5,1 UV-I 763 W/m² 16,3 °C 21,8 °C 4,8 km/h (1 Bft)
30.06.2018 10:38 21,8 °C 72 % 1011,6 hPa 0,0 mm 0,9 km/h (0 Bft) O 82 ° 1 min 0,000 mm 3,4 UV-I 763 W/m² 16,5 °C 21,8 °C 3,2 km/h (1 Bft)
30.06.2018 10:39 21,8 °C 73 % 1011,6 hPa 0,0 mm 0,0 km/h (0 Bft) O 82 ° 1 min 0,000 mm 5,1 UV-I 763 W/m² 16,7 °C 21,8 °C 0,0 km/h (0 Bft)
30.06.2018 10:40 21,9 °C 73 % 1011,6 hPa 0,0 mm 3,6 km/h (1 Bft) N-NO 12 ° 1 min 0,000 mm 5,4 UV-I 768 W/m² 16,8 °C 21,9 °C 6,4 km/h (2 Bft)
30.06.2018 10:41 21,9 °C 72 % 1011,6 hPa 0,0 mm 4,2 km/h (1 Bft) N-NO 22 ° 1 min 0,000 mm 5,4 UV-I 773 W/m² 16,6 °C 21,9 °C 6,4 km/h (2 Bft)
30.06.2018 10:42 22,1 °C 72 % 1011,6 hPa 0,0 mm 4,7 km/h (1 Bft) N-NO 22 ° 1 min 0,000 mm 5,4 UV-I 782 W/m² 16,8 °C 22,1 °C 8,0 km/h (2 Bft)
30.06.2018 10:43 22,1 °C 71 % 1011,6 hPa 0,0 mm 3,8 km/h (1 Bft) N-NO 13 ° 1 min 0,000 mm 5,5 UV-I 788 W/m² 16,6 °C 22,1 °C 6,4 km/h (2 Bft)
30.06.2018 10:44 22,2 °C 72 % 1011,6 hPa 0,0 mm 2,4 km/h (1 Bft) N-NO 18 ° 1 min 0,000 mm 5,5 UV-I 796 W/m² 16,9 °C 22,2 °C 4,8 km/h (1 Bft)
30.06.2018 10:45 22,2 °C 70 % 1011,6 hPa 0,0 mm 4,4 km/h (1 Bft) N-NO 17 ° 1 min 0,000 mm 5,6 UV-I 798 W/m² 16,5 °C 22,2 °C 6,4 km/h (2 Bft)
30.06.2018 10:46 22,3 °C 70 % 1011,6 hPa 0,0 mm 3,1 km/h (1 Bft) O-NO 59 ° 1 min 0,000 mm 5,6 UV-I 796 W/m² 16,6 °C 22,3 °C 4,8 km/h (1 Bft)
30.06.2018 10:47 22,2 °C 70 % 1011,6 hPa 0,0 mm 1,2 km/h (1 Bft) O-NO 59 ° 1 min 0,000 mm 5,6 UV-I 800 W/m² 16,5 °C 22,2 °C 1,6 km/h (1 Bft)
30.06.2018 10:48 22,2 °C 71 % 1011,6 hPa 0,0 mm 4,2 km/h (1 Bft) O 84 ° 1 min 0,000 mm 5,6 UV-I 802 W/m² 16,7 °C 22,2 °C 8,0 km/h (2 Bft)
30.06.2018 10:49 22,1 °C 72 % 1011,6 hPa 0,0 mm 4,5 km/h (1 Bft) O-SO 108 ° 1 min 0,000 mm 5,6 UV-I 802 W/m² 16,8 °C 22,1 °C 6,4 km/h (2 Bft)
30.06.2018 10:50 22,2 °C 73 % 1011,6 hPa 0,0 mm 2,5 km/h (1 Bft) O-NO 71 ° 1 min 0,000 mm 5,6 UV-I 800 W/m² 17,1 °C 22,2 °C 6,4 km/h (2 Bft)
30.06.2018 10:51 22,1 °C 71 % 1011,6 hPa 0,0 mm 4,7 km/h (1 Bft) O-NO 64 ° 1 min 0,000 mm 5,6 UV-I 807 W/m² 16,6 °C 22,1 °C 8,0 km/h (2 Bft)
30.06.2018 10:52 22,2 °C 71 % 1011,7 hPa 0,0 mm 4,0 km/h (1 Bft) O-NO 64 ° 1 min 0,000 mm 5,6 UV-I 812 W/m² 16,7 °C 22,2 °C 6,4 km/h (2 Bft)
30.06.2018 10:53 22,1 °C 69 % 1011,7 hPa 0,0 mm 3,5 km/h (1 Bft) NO 48 ° 1 min 0,000 mm 5,6 UV-I 819 W/m² 16,1 °C 22,1 °C 6,4 km/h (2 Bft)
30.06.2018 10:54 22,1 °C 71 % 1011,6 hPa 0,0 mm 1,5 km/h (1 Bft) NO 48 ° 1 min 0,000 mm 5,7 UV-I 831 W/m² 16,6 °C 22,1 °C 3,2 km/h (1 Bft)
30.06.2018 10:55 22,1 °C 71 % 1011,6 hPa 0,0 mm 0,9 km/h (0 Bft) NO 48 ° 1 min 0,000 mm 5,7 UV-I 830 W/m² 16,6 °C 22,1 °C 4,8 km/h (1 Bft)
30.06.2018 10:56 22,2 °C 74 % 1011,6 hPa 0,0 mm 3,0 km/h (1 Bft) NO 48 ° 1 min 0,000 mm 5,6 UV-I 846 W/m² 17,3 °C 22,2 °C 4,8 km/h (1 Bft)
30.06.2018 10:57 22,4 °C 75 % 1011,6 hPa 0,0 mm 1,5 km/h (1 Bft) O 80 ° 1 min 0,000 mm 5,8 UV-I 863 W/m² 17,7 °C 22,4 °C 4,8 km/h (1 Bft)
30.06.2018 10:58 22,6 °C 72 % 1011,6 hPa 0,0 mm 4,2 km/h (1 Bft) O 98 ° 1 min 0,000 mm 5,8 UV-I 877 W/m² 17,3 °C 22,6 °C 4,8 km/h (1 Bft)
30.06.2018 10:59 22,6 °C 73 % 1011,6 hPa 0,0 mm 5,0 km/h (1 Bft) O-NO 64 ° 1 min 0,000 mm 5,9 UV-I 891 W/m² 17,5 °C 22,6 °C 6,4 km/h (2 Bft)
30.06.2018 11:00 22,5 °C 69 % 1011,6 hPa 0,0 mm 3,8 km/h (1 Bft) O-NO 62 ° 1 min 0,000 mm 6,0 UV-I 905 W/m² 16,5 °C 22,5 °C 8,0 km/h (2 Bft)
30.06.2018 11:01 22,4 °C 71 % 1011,6 hPa 0,0 mm 3,1 km/h (1 Bft) O 79 ° 1 min 0,431 mm 6,0 UV-I 889 W/m² 16,9 °C 22,4 °C 4,8 km/h (1 Bft)
30.06.2018 11:02 22,3 °C 71 % 1011,6 hPa 0,0 mm 3,7 km/h (1 Bft) O-NO 62 ° 1 min 0,000 mm 6,0 UV-I 868 W/m² 16,8 °C 22,3 °C 8,0 km/h (2 Bft)
30.06.2018 11:03 22,4 °C 71 % 1011,6 hPa 0,0 mm 8,9 km/h (2 Bft) O-SO 121 ° 1 min 0,000 mm 6,0 UV-I 860 W/m² 16,9 °C 22,4 °C 12,9 km/h (3 Bft)
30.06.2018 11:04 22,3 °C 70 % 1011,6 hPa 0,0 mm 3,8 km/h (1 Bft) SO 139 ° 1 min 0,000 mm 6,1 UV-I 872 W/m² 16,6 °C 22,3 °C 8,0 km/h (2 Bft)
30.06.2018 11:05 22,3 °C 70 % 1011,5 hPa 0,0 mm 4,8 km/h (1 Bft) O-NO 78 ° 1 min 0,000 mm 6,1 UV-I 884 W/m² 16,6 °C 22,3 °C 11,3 km/h (2 Bft)
30.06.2018 11:06 22,3 °C 72 % 1011,5 hPa 0,0 mm 5,6 km/h (1 Bft) O-NO 71 ° 1 min 0,000 mm 6,2 UV-I 881 W/m² 17,0 °C 22,3 °C 11,3 km/h (2 Bft)
30.06.2018 11:07 22,3 °C 70 % 1011,6 hPa 0,0 mm 4,1 km/h (1 Bft) O 98 ° 1 min 0,000 mm 6,2 UV-I 882 W/m² 16,6 °C 22,3 °C 9,7 km/h (2 Bft)
30.06.2018 11:08 22,3 °C 71 % 1011,5 hPa 0,0 mm 2,4 km/h (1 Bft) O 85 ° 1 min 0,000 mm 6,2 UV-I 879 W/m² 16,8 °C 22,3 °C 4,8 km/h (1 Bft)
30.06.2018 11:09 22,3 °C 71 % 1011,6 hPa 0,0 mm 4,2 km/h (1 Bft) O-NO 78 ° 1 min 0,000 mm 6,1 UV-I 888 W/m² 16,8 °C 22,3 °C 6,4 km/h (2 Bft)
30.06.2018 11:10 22,2 °C 68 % 1011,6 hPa 0,0 mm 2,7 km/h (1 Bft) NO 53 ° 1 min 0,000 mm 6,2 UV-I 895 W/m² 16,0 °C 22,2 °C 8,0 km/h (2 Bft)
30.06.2018 11:11 22,2 °C 69 % 1011,6 hPa 0,0 mm 1,4 km/h (1 Bft) NO 53 ° 1 min 0,000 mm 6,3 UV-I 898 W/m² 16,2 °C 22,2 °C 3,2 km/h (1 Bft)
30.06.2018 11:12 22,2 °C 69 % 1011,6 hPa 0,0 mm 0,3 km/h (0 Bft) NO 53 ° 1 min 0,000 mm 6,3 UV-I 905 W/m² 16,2 °C 22,2 °C 1,6 km/h (1 Bft)
30.06.2018 11:13 22,3 °C 73 % 1011,5 hPa 0,0 mm 3,7 km/h (1 Bft) O-NO 59 ° 1 min 0,000 mm 6,3 UV-I 905 W/m² 17,2 °C 22,3 °C 6,4 km/h (2 Bft)
30.06.2018 11:14 22,4 °C 71 % 1011,6 hPa 0,0 mm 3,4 km/h (1 Bft) O-NO 67 ° 1 min 0,000 mm 6,4 UV-I 900 W/m² 16,9 °C 22,4 °C 6,4 km/h (2 Bft)
30.06.2018 11:15 22,4 °C 70 % 1011,6 hPa 0,0 mm 6,6 km/h (2 Bft) NO 46 ° 1 min 0,000 mm 6,4 UV-I 895 W/m² 16,7 °C 22,4 °C 9,7 km/h (2 Bft)
30.06.2018 11:16 22,6 °C 69 % 1011,6 hPa 0,0 mm 8,9 km/h (2 Bft) O-NO 78 ° 1 min 0,000 mm 6,4 UV-I 882 W/m² 16,6 °C 22,6 °C 11,3 km/h (2 Bft)
30.06.2018 11:17 22,6 °C 70 % 1011,6 hPa 0,0 mm 8,0 km/h (2 Bft) SO 135 ° 1 min 0,000 mm 6,4 UV-I 882 W/m² 16,8 °C 22,6 °C 11,3 km/h (2 Bft)
30.06.2018 11:18 22,6 °C 71 % 1011,6 hPa 0,0 mm 4,3 km/h (1 Bft) O 81 ° 1 min 0,000 mm 6,4 UV-I 872 W/m² 17,1 °C 22,6 °C 9,7 km/h (2 Bft)
30.06.2018 11:19 22,6 °C 70 % 1011,6 hPa 0,0 mm 2,8 km/h (1 Bft) O 81 ° 1 min 0,000 mm 6,4 UV-I 881 W/m² 16,8 °C 22,6 °C 4,8 km/h (1 Bft)
30.06.2018 11:20 22,7 °C 71 % 1011,6 hPa 0,0 mm 6,2 km/h (2 Bft) NO 46 ° 1 min 0,000 mm 6,4 UV-I 891 W/m² 17,2 °C 22,7 °C 8,0 km/h (2 Bft)
30.06.2018 11:21 22,8 °C 67 % 1011,6 hPa 0,0 mm 4,8 km/h (1 Bft) NW 325 ° 1 min 0,000 mm 6,4 UV-I 895 W/m² 16,3 °C 22,8 °C 6,4 km/h (2 Bft)
30.06.2018 11:22 22,8 °C 68 % 1011,6 hPa 0,0 mm 4,2 km/h (1 Bft) NO 46 ° 1 min 0,000 mm 6,4 UV-I 902 W/m² 16,6 °C 22,8 °C 6,4 km/h (2 Bft)
30.06.2018 11:23 22,9 °C 66 % 1011,6 hPa 0,0 mm 5,7 km/h (1 Bft) N-NO 20 ° 1 min 0,000 mm 6,5 UV-I 919 W/m² 16,2 °C 22,9 °C 8,0 km/h (2 Bft)
30.06.2018 11:24 22,9 °C 68 % 1011,6 hPa 0,0 mm 4,3 km/h (1 Bft) O-NO 59 ° 1 min 0,000 mm 6,5 UV-I 933 W/m² 16,7 °C 22,9 °C 6,4 km/h (2 Bft)
30.06.2018 11:25 22,9 °C 67 % 1011,6 hPa 0,0 mm 6,7 km/h (2 Bft) O-NO 60 ° 1 min 0,000 mm 4,4 UV-I 933 W/m² 16,4 °C 22,9 °C 11,3 km/h (2 Bft)
30.06.2018 11:26 22,9 °C 69 % 1011,6 hPa 0,0 mm 7,4 km/h (2 Bft) NO 53 ° 1 min 0,000 mm 6,6 UV-I 933 W/m² 16,9 °C 22,9 °C 11,3 km/h (2 Bft)
30.06.2018 11:27 22,8 °C 65 % 1011,6 hPa 0,0 mm 3,6 km/h (1 Bft) NO 53 ° 1 min 0,000 mm 6,5 UV-I 904 W/m² 15,9 °C 22,8 °C 4,8 km/h (1 Bft)
30.06.2018 11:28 22,8 °C 68 % 1011,6 hPa 0,0 mm 1,4 km/h (1 Bft) NO 54 ° 1 min 0,000 mm 6,6 UV-I 907 W/m² 16,6 °C 22,8 °C 3,2 km/h (1 Bft)
30.06.2018 11:29 22,7 °C 67 % 1011,5 hPa 0,0 mm 3,3 km/h (1 Bft) S-SO 148 ° 1 min 0,000 mm 6,6 UV-I 905 W/m² 16,2 °C 22,7 °C 4,8 km/h (1 Bft)
30.06.2018 11:30 22,6 °C 67 % 1011,5 hPa 0,0 mm 4,4 km/h (1 Bft) O-NO 76 ° 1 min 0,000 mm 6,6 UV-I 902 W/m² 16,2 °C 22,6 °C 8,0 km/h (2 Bft)
30.06.2018 11:31 22,6 °C 68 % 1011,5 hPa 0,0 mm 4,1 km/h (1 Bft) O-NO 76 ° 1 min 0,000 mm 6,7 UV-I 900 W/m² 16,4 °C 22,6 °C 11,3 km/h (2 Bft)
30.06.2018 11:32 22,6 °C 68 % 1011,5 hPa 0,0 mm 4,8 km/h (1 Bft) O 81 ° 1 min 0,000 mm 6,7 UV-I 898 W/m² 16,4 °C 22,6 °C 8,0 km/h (2 Bft)
30.06.2018 11:33 22,6 °C 69 % 1011,5 hPa 0,0 mm 3,9 km/h (1 Bft) O-NO 61 ° 1 min 0,000 mm 6,7 UV-I 893 W/m² 16,6 °C 22,6 °C 8,0 km/h (2 Bft)
30.06.2018 11:34 22,6 °C 67 % 1011,5 hPa 0,0 mm 5,9 km/h (2 Bft) O 84 ° 1 min 0,000 mm 6,6 UV-I 884 W/m² 16,2 °C 22,6 °C 8,0 km/h (2 Bft)
30.06.2018 11:35 22,5 °C 67 % 1011,5 hPa 0,0 mm 4,7 km/h (1 Bft) O-NO 74 ° 1 min 0,000 mm 6,5 UV-I 875 W/m² 16,1 °C 22,5 °C 8,0 km/h (2 Bft)
30.06.2018 11:36 22,4 °C 65 % 1011,5 hPa 0,0 mm 2,4 km/h (1 Bft) SO 143 ° 1 min 0,000 mm 6,5 UV-I 874 W/m² 15,5 °C 22,4 °C 3,2 km/h (1 Bft)
30.06.2018 11:37 22,5 °C 68 % 1011,5 hPa 0,0 mm 0,4 km/h (0 Bft) SO 143 ° 1 min 0,000 mm 6,5 UV-I 898 W/m² 16,3 °C 22,5 °C 1,6 km/h (1 Bft)
30.06.2018 11:38 22,6 °C 67 % 1011,5 hPa 0,0 mm 2,4 km/h (1 Bft) O 101 ° 1 min 0,000 mm 6,6 UV-I 926 W/m² 16,2 °C 22,6 °C 3,2 km/h (1 Bft)
30.06.2018 11:39 22,7 °C 65 % 1011,5 hPa 0,0 mm 1,4 km/h (1 Bft) O 101 ° 1 min 0,000 mm 4,3 UV-I 926 W/m² 15,8 °C 22,7 °C 3,2 km/h (1 Bft)
30.06.2018 11:40 22,8 °C 68 % 1011,5 hPa 0,0 mm 4,0 km/h (1 Bft) NO 45 ° 1 min 0,000 mm 5,9 UV-I 926 W/m² 16,6 °C 22,8 °C 6,4 km/h (2 Bft)
30.06.2018 11:41 23,1 °C 65 % 1011,5 hPa 0,0 mm 4,8 km/h (1 Bft) SO 144 ° 1 min 0,000 mm 6,8 UV-I 926 W/m² 16,2 °C 23,1 °C 8,0 km/h (2 Bft)
30.06.2018 11:42 23,0 °C 66 % 1011,5 hPa 0,0 mm 2,5 km/h (1 Bft) SO 132 ° 1 min 0,000 mm 6,9 UV-I 946 W/m² 16,3 °C 23,0 °C 6,4 km/h (2 Bft)
30.06.2018 11:43 22,9 °C 66 % 1011,5 hPa 0,0 mm 3,3 km/h (1 Bft) N-NO 26 ° 1 min 0,000 mm 6,9 UV-I 926 W/m² 16,2 °C 22,9 °C 6,4 km/h (2 Bft)
30.06.2018 11:44 23,0 °C 68 % 1011,5 hPa 0,0 mm 5,0 km/h (1 Bft) NO 52 ° 1 min 0,000 mm 6,9 UV-I 912 W/m² 16,8 °C 23,0 °C 8,0 km/h (2 Bft)
30.06.2018 11:45 23,0 °C 67 % 1011,5 hPa 0,0 mm 4,1 km/h (1 Bft) O-NO 74 ° 1 min 0,000 mm 6,9 UV-I 905 W/m² 16,5 °C 23,0 °C 6,4 km/h (2 Bft)
30.06.2018 11:46 23,0 °C 65 % 1011,5 hPa 0,0 mm 5,2 km/h (1 Bft) O-NO 61 ° 1 min 0,000 mm 6,8 UV-I 896 W/m² 16,1 °C 23,0 °C 8,0 km/h (2 Bft)
30.06.2018 11:47 23,0 °C 64 % 1011,5 hPa 0,0 mm 4,5 km/h (1 Bft) NO 50 ° 1 min 0,000 mm 6,8 UV-I 895 W/m² 15,8 °C 23,0 °C 9,7 km/h (2 Bft)
30.06.2018 11:48 23,0 °C 64 % 1011,5 hPa 0,0 mm 6,7 km/h (2 Bft) O-SO 113 ° 1 min 0,000 mm 6,8 UV-I 895 W/m² 15,8 °C 23,0 °C 9,7 km/h (2 Bft)
30.06.2018 11:49 22,9 °C 65 % 1011,5 hPa 0,0 mm 6,4 km/h (2 Bft) O-NO 57 ° 1 min 0,000 mm 6,8 UV-I 909 W/m² 16,0 °C 22,9 °C 8,0 km/h (2 Bft)
30.06.2018 11:50 22,9 °C 64 % 1011,5 hPa 0,0 mm 6,3 km/h (2 Bft) O-NO 66 ° 1 min 0,000 mm 6,8 UV-I 905 W/m² 15,7 °C 22,9 °C 9,7 km/h (2 Bft)
30.06.2018 11:51 22,9 °C 65 % 1011,5 hPa 0,0 mm 3,8 km/h (1 Bft) O 98 ° 1 min 0,000 mm 6,7 UV-I 912 W/m² 16,0 °C 22,9 °C 4,8 km/h (1 Bft)
30.06.2018 11:52 22,9 °C 63 % 1011,5 hPa 0,0 mm 5,5 km/h (1 Bft) O 80 ° 1 min 0,000 mm 6,8 UV-I 863 W/m² 15,5 °C 22,9 °C 8,0 km/h (2 Bft)
30.06.2018 11:53 22,8 °C 62 % 1011,5 hPa 0,0 mm 5,2 km/h (1 Bft) O-NO 67 ° 1 min 0,000 mm 4,0 UV-I 863 W/m² 15,1 °C 22,8 °C 8,0 km/h (2 Bft)
30.06.2018 11:54 22,7 °C 62 % 1011,5 hPa 0,0 mm 3,6 km/h (1 Bft) O 91 ° 0 min 0,000 mm 4,1 UV-I 209 W/m² 15,0 °C 22,7 °C 9,7 km/h (2 Bft)
30.06.2018 11:55 22,7 °C 63 % 1011,5 hPa 0,0 mm 2,9 km/h (1 Bft) O 91 ° 1 min 0,000 mm 7,0 UV-I 933 W/m² 15,3 °C 22,7 °C 6,4 km/h (2 Bft)
30.06.2018 11:56 22,7 °C 63 % 1011,5 hPa 0,0 mm 1,9 km/h (1 Bft) O 90 ° 1 min 0,000 mm 7,0 UV-I 939 W/m² 15,3 °C 22,7 °C 3,2 km/h (1 Bft)
30.06.2018 11:57 22,8 °C 66 % 1011,5 hPa 0,0 mm 0,3 km/h (0 Bft) O 90 ° 1 min 0,000 mm 7,0 UV-I 939 W/m² 16,1 °C 22,8 °C 1,6 km/h (1 Bft)
30.06.2018 11:58 23,0 °C 66 % 1011,5 hPa 0,0 mm 0,7 km/h (0 Bft) O 90 ° 1 min 0,000 mm 7,0 UV-I 939 W/m² 16,3 °C 23,0 °C 3,2 km/h (1 Bft)
30.06.2018 11:59 23,1 °C 65 % 1011,5 hPa 0,0 mm 2,1 km/h (1 Bft) N-NW 348 ° 1 min 0,000 mm 6,0 UV-I 1000 W/m² 16,2 °C 23,1 °C 4,8 km/h (1 Bft)
30.06.2018 12:00 23,1 °C 64 % 1011,5 hPa 0,0 mm 4,0 km/h (1 Bft) N-NW 348 ° 1 min 0,000 mm 4,2 UV-I 1000 W/m² 15,9 °C 23,1 °C 4,8 km/h (1 Bft)
30.06.2018 12:01 23,2 °C 66 % 1011,4 hPa 0,0 mm 1,6 km/h (1 Bft) N-NW 344 ° 1 min 0,534 mm 7,2 UV-I 984 W/m² 16,5 °C 23,2 °C 4,8 km/h (1 Bft)
30.06.2018 12:02 23,4 °C 67 % 1011,5 hPa 0,0 mm 0,3 km/h (0 Bft) N-NW 344 ° 1 min 0,000 mm 7,2 UV-I 998 W/m² 16,9 °C 23,4 °C 1,6 km/h (1 Bft)
30.06.2018 12:03 23,6 °C 67 % 1011,5 hPa 0,0 mm 0,7 km/h (0 Bft) N-NW 335 ° 1 min 0,000 mm 6,6 UV-I 995 W/m² 17,1 °C 23,6 °C 4,8 km/h (1 Bft)
30.06.2018 12:04 23,6 °C 62 % 1011,5 hPa 0,0 mm 2,8 km/h (1 Bft) NW 321 ° 1 min 0,000 mm 7,0 UV-I 976 W/m² 15,9 °C 23,6 °C 4,8 km/h (1 Bft)
30.06.2018 12:05 23,6 °C 65 % 1011,5 hPa 0,0 mm 3,2 km/h (1 Bft) N-NO 19 ° 1 min 0,000 mm 5,7 UV-I 1018 W/m² 16,6 °C 23,6 °C 6,4 km/h (2 Bft)
30.06.2018 12:06 23,7 °C 67 % 1011,4 hPa 0,0 mm 4,0 km/h (1 Bft) NW 317 ° 1 min 0,000 mm 5,2 UV-I 928 W/m² 17,2 °C 23,7 °C 6,4 km/h (2 Bft)
30.06.2018 12:07 23,7 °C 65 % 1011,4 hPa 0,0 mm 4,5 km/h (1 Bft) NW 321 ° 1 min 0,000 mm 7,3 UV-I 981 W/m² 16,7 °C 23,7 °C 9,7 km/h (2 Bft)
30.06.2018 12:08 23,8 °C 67 % 1011,4 hPa 0,0 mm 7,9 km/h (2 Bft) N-NW 335 ° 1 min 0,000 mm 7,4 UV-I 984 W/m² 17,3 °C 23,8 °C 14,5 km/h (3 Bft)
30.06.2018 12:09 23,8 °C 66 % 1011,5 hPa 0,0 mm 6,4 km/h (2 Bft) N-NW 342 ° 1 min 0,000 mm 7,5 UV-I 1007 W/m² 17,1 °C 23,8 °C 9,7 km/h (2 Bft)
30.06.2018 12:10 23,9 °C 64 % 1011,5 hPa 0,0 mm 8,3 km/h (2 Bft) NO 43 ° 1 min 0,000 mm 7,5 UV-I 1020 W/m² 16,7 °C 23,9 °C 11,3 km/h (2 Bft)
30.06.2018 12:11 23,8 °C 64 % 1011,5 hPa 0,0 mm 1,7 km/h (1 Bft) NO 43 ° 1 min 0,000 mm 7,4 UV-I 1023 W/m² 16,6 °C 23,8 °C 3,2 km/h (1 Bft)
30.06.2018 12:12 23,7 °C 64 % 1011,4 hPa 0,0 mm 2,4 km/h (1 Bft) O 86 ° 1 min 0,000 mm 7,4 UV-I 1013 W/m² 16,5 °C 23,7 °C 8,0 km/h (2 Bft)
30.06.2018 12:13 23,6 °C 63 % 1011,4 hPa 0,0 mm 6,1 km/h (2 Bft) O 81 ° 1 min 0,000 mm 5,3 UV-I 1013 W/m² 16,1 °C 23,6 °C 9,7 km/h (2 Bft)
30.06.2018 12:14 23,4 °C 62 % 1011,5 hPa 0,0 mm 4,8 km/h (1 Bft) O-NO 67 ° 1 min 0,000 mm 6,9 UV-I 1013 W/m² 15,7 °C 23,4 °C 6,4 km/h (2 Bft)
30.06.2018 12:15 23,2 °C 62 % 1011,4 hPa 0,0 mm 0,9 km/h (0 Bft) O-NO 67 ° 1 min 0,000 mm 6,8 UV-I 984 W/m² 15,5 °C 23,2 °C 3,2 km/h (1 Bft)
30.06.2018 12:16 23,1 °C 62 % 1011,4 hPa 0,0 mm 4,2 km/h (1 Bft) N 5 ° 1 min 0,000 mm 6,8 UV-I 976 W/m² 15,4 °C 23,1 °C 6,4 km/h (2 Bft)
30.06.2018 12:17 23,2 °C 70 % 1011,4 hPa 0,0 mm 5,4 km/h (1 Bft) N-NW 339 ° 1 min 0,000 mm 6,1 UV-I 995 W/m² 17,4 °C 23,2 °C 8,0 km/h (2 Bft)
30.06.2018 12:18 23,4 °C 67 % 1011,4 hPa 0,0 mm 3,0 km/h (1 Bft) N 355 ° 1 min 0,000 mm 4,2 UV-I 995 W/m² 16,9 °C 23,4 °C 4,8 km/h (1 Bft)
30.06.2018 12:19 23,4 °C 65 % 1011,4 hPa 0,0 mm 2,8 km/h (1 Bft) N-NO 12 ° 1 min 0,000 mm 4,1 UV-I 995 W/m² 16,4 °C 23,4 °C 4,8 km/h (1 Bft)
30.06.2018 12:20 23,3 °C 66 % 1011,4 hPa 0,0 mm 1,7 km/h (1 Bft) N-NO 12 ° 0 min 0,000 mm 3,8 UV-I 329 W/m² 16,6 °C 23,3 °C 4,8 km/h (1 Bft)
30.06.2018 12:21 23,3 °C 66 % 1011,4 hPa 0,0 mm 3,3 km/h (1 Bft) N-NO 12 ° 0 min 0,000 mm 4,1 UV-I 355 W/m² 16,6 °C 23,3 °C 4,8 km/h (1 Bft)
30.06.2018 12:22 23,3 °C 64 % 1011,4 hPa 0,0 mm 1,4 km/h (1 Bft) N-NO 12 ° 0 min 0,000 mm 6,2 UV-I 355 W/m² 16,1 °C 23,3 °C 4,8 km/h (1 Bft)
30.06.2018 12:23 23,2 °C 63 % 1011,4 hPa 0,0 mm 0,3 km/h (0 Bft) N-NO 12 ° 0 min 0,000 mm 7,1 UV-I 355 W/m² 15,8 °C 23,2 °C 1,6 km/h (1 Bft)
30.06.2018 12:24 23,3 °C 67 % 1011,4 hPa 0,0 mm 3,4 km/h (1 Bft) N 360 ° 1 min 0,000 mm 7,1 UV-I 1030 W/m² 16,8 °C 23,3 °C 6,4 km/h (2 Bft)
30.06.2018 12:25 23,6 °C 70 % 1011,4 hPa 0,0 mm 3,5 km/h (1 Bft) N-NW 332 ° 1 min 0,000 mm 7,1 UV-I 1016 W/m² 17,8 °C 23,6 °C 6,4 km/h (2 Bft)
30.06.2018 12:26 23,7 °C 63 % 1011,4 hPa 0,0 mm 4,0 km/h (1 Bft) N 355 ° 1 min 0,000 mm 7,1 UV-I 1005 W/m² 16,2 °C 23,7 °C 6,4 km/h (2 Bft)
30.06.2018 12:27 23,9 °C 67 % 1011,4 hPa 0,0 mm 3,2 km/h (1 Bft) N 5 ° 1 min 0,000 mm 7,1 UV-I 995 W/m² 17,4 °C 23,9 °C 6,4 km/h (2 Bft)
30.06.2018 12:28 24,0 °C 65 % 1011,4 hPa 0,0 mm 2,8 km/h (1 Bft) N-NW 345 ° 1 min 0,000 mm 7,1 UV-I 990 W/m² 17,0 °C 24,0 °C 4,8 km/h (1 Bft)
30.06.2018 12:29 24,1 °C 66 % 1011,4 hPa 0,0 mm 4,4 km/h (1 Bft) N-NW 331 ° 1 min 0,000 mm 7,1 UV-I 986 W/m² 17,3 °C 24,1 °C 8,0 km/h (2 Bft)
30.06.2018 12:30 24,2 °C 64 % 1011,4 hPa 0,0 mm 5,2 km/h (1 Bft) N-NW 335 ° 1 min 0,000 mm 7,2 UV-I 979 W/m² 16,9 °C 24,2 °C 8,0 km/h (2 Bft)
30.06.2018 12:31 24,1 °C 63 % 1011,4 hPa 0,0 mm 2,5 km/h (1 Bft) N-NW 333 ° 1 min 0,000 mm 7,0 UV-I 976 W/m² 16,6 °C 24,1 °C 4,8 km/h (1 Bft)
30.06.2018 12:32 24,0 °C 61 % 1011,4 hPa 0,0 mm 1,9 km/h (1 Bft) N-NO 24 ° 1 min 0,000 mm 7,1 UV-I 988 W/m² 16,0 °C 24,0 °C 4,8 km/h (1 Bft)
30.06.2018 12:33 24,0 °C 70 % 1011,4 hPa 0,0 mm 7,4 km/h (2 Bft) N-NO 18 ° 1 min 0,000 mm 7,0 UV-I 979 W/m² 18,2 °C 24,0 °C 9,7 km/h (2 Bft)
30.06.2018 12:34 23,9 °C 60 % 1011,4 hPa 0,0 mm 3,3 km/h (1 Bft) N-NO 18 ° 1 min 0,000 mm 6,7 UV-I 949 W/m² 15,7 °C 23,9 °C 6,4 km/h (2 Bft)
30.06.2018 12:35 23,6 °C 61 % 1011,4 hPa 0,0 mm 2,8 km/h (1 Bft) N-NO 18 ° 1 min 0,000 mm 6,5 UV-I 946 W/m² 15,6 °C 23,6 °C 6,4 km/h (2 Bft)
30.06.2018 12:36 23,5 °C 64 % 1011,4 hPa 0,0 mm 5,0 km/h (1 Bft) N-NW 340 ° 1 min 0,000 mm 6,2 UV-I 935 W/m² 16,3 °C 23,5 °C 8,0 km/h (2 Bft)
30.06.2018 12:37 23,6 °C 64 % 1011,4 hPa 0,0 mm 4,1 km/h (1 Bft) N-NO 30 ° 1 min 0,000 mm 3,7 UV-I 935 W/m² 16,4 °C 23,6 °C 8,0 km/h (2 Bft)
30.06.2018 12:38 23,4 °C 62 % 1011,3 hPa 0,0 mm 4,9 km/h (1 Bft) N-NO 21 ° 0 min 0,000 mm 3,6 UV-I 220 W/m² 15,7 °C 23,4 °C 6,4 km/h (2 Bft)
30.06.2018 12:39 23,3 °C 65 % 1011,3 hPa 0,0 mm 2,8 km/h (1 Bft) N-NO 21 ° 0 min 0,000 mm 3,7 UV-I 223 W/m² 16,3 °C 23,3 °C 4,8 km/h (1 Bft)
30.06.2018 12:40 23,2 °C 64 % 1011,4 hPa 0,0 mm 4,0 km/h (1 Bft) N 355 ° 0 min 0,000 mm 6,4 UV-I 223 W/m² 16,0 °C 23,2 °C 6,4 km/h (2 Bft)
30.06.2018 12:41 23,2 °C 66 % 1011,3 hPa 0,0 mm 3,9 km/h (1 Bft) NO 49 ° 1 min 0,000 mm 4,3 UV-I 666 W/m² 16,5 °C 23,2 °C 6,4 km/h (2 Bft)
30.06.2018 12:42 23,1 °C 63 % 1011,4 hPa 0,0 mm 5,8 km/h (2 Bft) O-NO 59 ° 1 min 0,000 mm 7,2 UV-I 666 W/m² 15,7 °C 23,1 °C 9,7 km/h (2 Bft)
30.06.2018 12:43 23,1 °C 66 % 1011,3 hPa 0,0 mm 3,4 km/h (1 Bft) O-NO 60 ° 1 min 0,000 mm 6,7 UV-I 666 W/m² 16,4 °C 23,1 °C 8,0 km/h (2 Bft)
30.06.2018 12:44 23,0 °C 63 % 1011,3 hPa 0,0 mm 1,4 km/h (1 Bft) O-NO 59 ° 1 min 0,000 mm 7,2 UV-I 666 W/m² 15,6 °C 23,0 °C 3,2 km/h (1 Bft)
30.06.2018 12:45 23,0 °C 67 % 1011,2 hPa 0,0 mm 0,8 km/h (0 Bft) O-NO 59 ° 1 min 0,000 mm 7,3 UV-I 666 W/m² 16,5 °C 23,0 °C 1,6 km/h (1 Bft)
30.06.2018 12:46 23,1 °C 62 % 1011,3 hPa 0,0 mm 0,5 km/h (0 Bft) O-NO 59 ° 1 min 0,000 mm 7,3 UV-I 1035 W/m² 15,4 °C 23,1 °C 1,6 km/h (1 Bft)
30.06.2018 12:47 23,3 °C 70 % 1011,2 hPa 0,0 mm 0,7 km/h (0 Bft) O-NO 59 ° 1 min 0,000 mm 7,3 UV-I 1034 W/m² 17,5 °C 23,3 °C 3,2 km/h (1 Bft)
30.06.2018 12:48 23,4 °C 65 % 1011,2 hPa 0,0 mm 0,7 km/h (0 Bft) O-NO 59 ° 1 min 0,000 mm 7,3 UV-I 1018 W/m² 16,4 °C 23,4 °C 1,6 km/h (1 Bft)
30.06.2018 12:49 23,6 °C 70 % 1011,2 hPa 0,0 mm 1,5 km/h (1 Bft) N 5 ° 1 min 0,000 mm 7,4 UV-I 1011 W/m² 17,8 °C 23,6 °C 6,4 km/h (2 Bft)
30.06.2018 12:50 23,6 °C 69 % 1011,2 hPa 0,0 mm 9,3 km/h (2 Bft) N 5 ° 1 min 0,000 mm 7,5 UV-I 1011 W/m² 17,6 °C 23,6 °C 12,9 km/h (3 Bft)
30.06.2018 12:51 23,7 °C 63 % 1011,2 hPa 0,0 mm 7,4 km/h (2 Bft) N-NO 20 ° 1 min 0,000 mm 7,6 UV-I 1016 W/m² 16,2 °C 23,7 °C 12,9 km/h (3 Bft)
30.06.2018 12:52 23,9 °C 64 % 1011,2 hPa 0,0 mm 6,5 km/h (2 Bft) N-NO 13 ° 1 min 0,000 mm 7,6 UV-I 1009 W/m² 16,7 °C 23,9 °C 9,7 km/h (2 Bft)
30.06.2018 12:53 24,0 °C 63 % 1011,2 hPa 0,0 mm 8,0 km/h (2 Bft) NW 314 ° 1 min 0,000 mm 7,7 UV-I 986 W/m² 16,5 °C 24,0 °C 14,5 km/h (3 Bft)
30.06.2018 12:54 24,1 °C 64 % 1011,2 hPa 0,0 mm 8,8 km/h (2 Bft) NW 313 ° 1 min 0,000 mm 7,5 UV-I 972 W/m² 16,9 °C 24,1 °C 16,1 km/h (3 Bft)
30.06.2018 12:55 24,1 °C 64 % 1011,2 hPa 0,0 mm 3,9 km/h (1 Bft) W-NW 303 ° 1 min 0,000 mm 7,3 UV-I 956 W/m² 16,9 °C 24,1 °C 6,4 km/h (2 Bft)
30.06.2018 12:56 24,2 °C 66 % 1011,3 hPa 0,0 mm 5,2 km/h (1 Bft) N-NW 336 ° 1 min 0,000 mm 7,3 UV-I 947 W/m² 17,4 °C 24,2 °C 8,0 km/h (2 Bft)
30.06.2018 12:57 24,2 °C 62 % 1011,2 hPa 0,0 mm 9,2 km/h (2 Bft) N-NO 12 ° 1 min 0,000 mm 7,3 UV-I 951 W/m² 16,4 °C 24,2 °C 12,9 km/h (3 Bft)
30.06.2018 12:58 24,2 °C 60 % 1011,2 hPa 0,0 mm 9,5 km/h (2 Bft) N-NO 13 ° 1 min 0,000 mm 4,1 UV-I 951 W/m² 15,9 °C 24,2 °C 12,9 km/h (3 Bft)
30.06.2018 12:59 24,1 °C 62 % 1011,2 hPa 0,0 mm 6,1 km/h (2 Bft) NO 49 ° 1 min 0,000 mm 7,6 UV-I 958 W/m² 16,4 °C 24,1 °C 9,7 km/h (2 Bft)
30.06.2018 13:00 24,1 °C 62 % 1011,1 hPa 0,0 mm 2,5 km/h (1 Bft) N-NW 333 ° 1 min 0,559 mm 7,7 UV-I 951 W/m² 16,4 °C 24,1 °C 4,8 km/h (1 Bft)
30.06.2018 13:01 24,0 °C 63 % 1011,1 hPa 0,0 mm 2,7 km/h (1 Bft) N-NW 333 ° 1 min 0,000 mm 7,7 UV-I 949 W/m² 16,5 °C 24,0 °C 4,8 km/h (1 Bft)
30.06.2018 13:02 24,0 °C 64 % 1011,1 hPa 0,0 mm 2,5 km/h (1 Bft) N-NW 333 ° 1 min 0,000 mm 7,7 UV-I 951 W/m² 16,8 °C 24,0 °C 4,8 km/h (1 Bft)
30.06.2018 13:04 24,3 °C 68 % 1011,1 hPa 0,0 mm 5,9 km/h (2 Bft) N 5 ° 2 min 0,000 mm 7,7 UV-I 947 W/m² 18,0 °C 24,3 °C 14,5 km/h (3 Bft)
30.06.2018 13:05 24,3 °C 62 % 1011,1 hPa 0,0 mm 6,7 km/h (2 Bft) N-NO 22 ° 1 min 0,000 mm 7,7 UV-I 951 W/m² 16,5 °C 24,3 °C 12,9 km/h (3 Bft)
30.06.2018 13:06 24,2 °C 61 % 1011,1 hPa 0,0 mm 2,1 km/h (1 Bft) NO 39 ° 1 min 0,000 mm 7,6 UV-I 949 W/m² 16,2 °C 24,2 °C 4,8 km/h (1 Bft)
30.06.2018 13:07 24,2 °C 63 % 1011,1 hPa 0,0 mm 4,8 km/h (1 Bft) NO 41 ° 1 min 0,000 mm 7,6 UV-I 944 W/m² 16,7 °C 24,2 °C 8,0 km/h (2 Bft)
30.06.2018 13:08 24,2 °C 62 % 1011,1 hPa 0,0 mm 5,7 km/h (1 Bft) NO 39 ° 1 min 0,000 mm 7,6 UV-I 944 W/m² 16,4 °C 24,2 °C 9,7 km/h (2 Bft)
30.06.2018 13:09 24,1 °C 61 % 1011,1 hPa 0,0 mm 5,6 km/h (1 Bft) N 355 ° 1 min 0,000 mm 7,6 UV-I 940 W/m² 16,1 °C 24,1 °C 8,0 km/h (2 Bft)
30.06.2018 13:10 24,1 °C 62 % 1011,1 hPa 0,0 mm 1,5 km/h (1 Bft) N 9 ° 1 min 0,000 mm 7,6 UV-I 947 W/m² 16,4 °C 24,1 °C 3,2 km/h (1 Bft)
30.06.2018 13:11 24,1 °C 61 % 1011,1 hPa 0,0 mm 4,3 km/h (1 Bft) NO 37 ° 1 min 0,000 mm 7,7 UV-I 967 W/m² 16,1 °C 24,1 °C 6,4 km/h (2 Bft)
30.06.2018 13:12 24,1 °C 62 % 1011,1 hPa 0,0 mm 3,8 km/h (1 Bft) O-NO 60 ° 1 min 0,000 mm 7,7 UV-I 974 W/m² 16,4 °C 24,1 °C 6,4 km/h (2 Bft)
30.06.2018 13:13 24,1 °C 64 % 1011,1 hPa 0,0 mm 5,3 km/h (1 Bft) O-NO 71 ° 1 min 0,000 mm 7,6 UV-I 974 W/m² 16,9 °C 24,1 °C 8,0 km/h (2 Bft)
30.06.2018 13:14 23,9 °C 63 % 1011,1 hPa 0,0 mm 5,2 km/h (1 Bft) NO 55 ° 1 min 0,000 mm 7,7 UV-I 983 W/m² 16,4 °C 23,9 °C 8,0 km/h (2 Bft)
30.06.2018 13:15 23,8 °C 60 % 1011,1 hPa 0,0 mm 6,0 km/h (2 Bft) NO 45 ° 1 min 0,000 mm 7,6 UV-I 981 W/m² 15,6 °C 23,8 °C 8,0 km/h (2 Bft)
30.06.2018 13:16 23,9 °C 66 % 1011,0 hPa 0,0 mm 7,5 km/h (2 Bft) O-NO 58 ° 1 min 0,000 mm 7,6 UV-I 981 W/m² 17,1 °C 23,9 °C 9,7 km/h (2 Bft)
30.06.2018 13:17 23,9 °C 62 % 1011,0 hPa 0,0 mm 5,5 km/h (1 Bft) O 83 ° 1 min 0,000 mm 7,6 UV-I 979 W/m² 16,2 °C 23,9 °C 8,0 km/h (2 Bft)
30.06.2018 13:18 23,8 °C 61 % 1011,0 hPa 0,0 mm 5,3 km/h (1 Bft) NO 36 ° 1 min 0,000 mm 7,5 UV-I 976 W/m² 15,8 °C 23,8 °C 8,0 km/h (2 Bft)
30.06.2018 13:19 23,8 °C 62 % 1011,1 hPa 0,0 mm 5,4 km/h (1 Bft) NO 38 ° 1 min 0,000 mm 7,5 UV-I 969 W/m² 16,1 °C 23,8 °C 8,0 km/h (2 Bft)
30.06.2018 13:20 23,8 °C 63 % 1011,0 hPa 0,0 mm 2,0 km/h (1 Bft) NO 38 ° 1 min 0,000 mm 7,4 UV-I 969 W/m² 16,3 °C 23,8 °C 3,2 km/h (1 Bft)
30.06.2018 13:21 23,8 °C 61 % 1011,0 hPa 0,0 mm 3,8 km/h (1 Bft) N-NO 26 ° 1 min 0,000 mm 7,4 UV-I 967 W/m² 15,8 °C 23,8 °C 6,4 km/h (2 Bft)
30.06.2018 13:22 23,8 °C 58 % 1011,0 hPa 0,0 mm 4,2 km/h (1 Bft) N-NO 24 ° 1 min 0,000 mm 7,5 UV-I 984 W/m² 15,0 °C 23,8 °C 8,0 km/h (2 Bft)
30.06.2018 13:23 23,9 °C 59 % 1011,0 hPa 0,0 mm 0,5 km/h (0 Bft) N-NO 24 ° 1 min 0,000 mm 7,5 UV-I 984 W/m² 15,4 °C 23,9 °C 1,6 km/h (1 Bft)
30.06.2018 13:24 23,9 °C 56 % 1011,0 hPa 0,0 mm 0,8 km/h (0 Bft) N-NO 26 ° 1 min 0,000 mm 7,5 UV-I 988 W/m² 14,6 °C 23,9 °C 1,6 km/h (1 Bft)
30.06.2018 13:25 23,9 °C 56 % 1011,0 hPa 0,0 mm 1,8 km/h (1 Bft) N-NO 26 ° 1 min 0,000 mm 7,5 UV-I 984 W/m² 14,6 °C 23,9 °C 3,2 km/h (1 Bft)
30.06.2018 13:26 23,8 °C 58 % 1010,9 hPa 0,0 mm 1,5 km/h (1 Bft) N-NO 26 ° 1 min 0,000 mm 7,5 UV-I 991 W/m² 15,0 °C 23,8 °C 4,8 km/h (1 Bft)
30.06.2018 13:27 23,8 °C 60 % 1010,9 hPa 0,0 mm 5,6 km/h (1 Bft) NW 323 ° 1 min 0,000 mm 7,5 UV-I 995 W/m² 15,6 °C 23,8 °C 8,0 km/h (2 Bft)
30.06.2018 13:28 23,9 °C 62 % 1010,9 hPa 0,0 mm 5,6 km/h (1 Bft) NO 53 ° 1 min 0,000 mm 7,5 UV-I 1020 W/m² 16,2 °C 23,9 °C 11,3 km/h (2 Bft)
30.06.2018 13:29 24,0 °C 58 % 1010,9 hPa 0,0 mm 5,6 km/h (1 Bft) O-NO 57 ° 1 min 0,000 mm 6,3 UV-I 1020 W/m² 15,2 °C 24,0 °C 11,3 km/h (2 Bft)
30.06.2018 13:30 23,8 °C 58 % 1010,9 hPa 0,0 mm 1,8 km/h (1 Bft) O-NO 59 ° 1 min 0,000 mm 6,7 UV-I 1020 W/m² 15,0 °C 23,8 °C 4,8 km/h (1 Bft)
30.06.2018 13:31 23,6 °C 58 % 1010,9 hPa 0,0 mm 1,0 km/h (0 Bft) O-NO 59 ° 1 min 0,000 mm 7,4 UV-I 1020 W/m² 14,8 °C 23,6 °C 3,2 km/h (1 Bft)
30.06.2018 13:32 23,6 °C 60 % 1010,8 hPa 0,0 mm 0,0 km/h (0 Bft) O-NO 59 ° 1 min 0,000 mm 7,6 UV-I 976 W/m² 15,4 °C 23,6 °C 0,0 km/h (0 Bft)
30.06.2018 13:33 23,7 °C 63 % 1010,8 hPa 0,0 mm 1,0 km/h (0 Bft) O-NO 59 ° 1 min 0,000 mm 7,4 UV-I 1060 W/m² 16,2 °C 23,7 °C 1,6 km/h (1 Bft)
30.06.2018 13:34 23,9 °C 65 % 1010,8 hPa 0,0 mm 2,5 km/h (1 Bft) N-NW 340 ° 1 min 0,000 mm 6,8 UV-I 1060 W/m² 16,9 °C 23,9 °C 4,8 km/h (1 Bft)
30.06.2018 13:35 24,2 °C 63 % 1010,9 hPa 0,0 mm 1,1 km/h (1 Bft) N-NO 26 ° 1 min 0,000 mm 7,2 UV-I 1042 W/m² 16,7 °C 24,2 °C 4,8 km/h (1 Bft)
30.06.2018 13:36 24,2 °C 61 % 1010,8 hPa 0,0 mm 6,5 km/h (2 Bft) N 360 ° 1 min 0,000 mm 4,6 UV-I 1042 W/m² 16,2 °C 24,2 °C 12,9 km/h (3 Bft)
30.06.2018 13:37 24,3 °C 60 % 1010,8 hPa 0,0 mm 7,8 km/h (2 Bft) NW 319 ° 1 min 0,000 mm 3,7 UV-I 1042 W/m² 16,0 °C 24,3 °C 11,3 km/h (2 Bft)
30.06.2018 13:38 24,3 °C 59 % 1010,9 hPa 0,0 mm 4,0 km/h (1 Bft) NW 324 ° 0 min 0,000 mm 3,4 UV-I 227 W/m² 15,8 °C 24,3 °C 6,4 km/h (2 Bft)
30.06.2018 13:39 24,2 °C 59 % 1010,8 hPa 0,0 mm 3,9 km/h (1 Bft) N-NW 338 ° 0 min 0,000 mm 3,3 UV-I 206 W/m² 15,7 °C 24,2 °C 6,4 km/h (2 Bft)
30.06.2018 13:40 23,9 °C 61 % 1010,8 hPa 0,0 mm 1,9 km/h (1 Bft) N-NW 336 ° 0 min 0,000 mm 3,1 UV-I 199 W/m² 15,9 °C 23,9 °C 3,2 km/h (1 Bft)
30.06.2018 13:41 23,7 °C 60 % 1010,8 hPa 0,0 mm 3,5 km/h (1 Bft) N-NW 336 ° 0 min 0,000 mm 3,1 UV-I 204 W/m² 15,5 °C 23,7 °C 6,4 km/h (2 Bft)
30.06.2018 13:42 23,6 °C 60 % 1010,8 hPa 0,0 mm 3,4 km/h (1 Bft) N-NO 27 ° 0 min 0,000 mm 3,1 UV-I 204 W/m² 15,4 °C 23,6 °C 4,8 km/h (1 Bft)
30.06.2018 13:43 23,4 °C 61 % 1010,8 hPa 0,0 mm 2,0 km/h (1 Bft) N 355 ° 0 min 0,000 mm 3,1 UV-I 206 W/m² 15,4 °C 23,4 °C 6,4 km/h (2 Bft)
30.06.2018 13:44 23,3 °C 62 % 1010,8 hPa 0,0 mm 1,7 km/h (1 Bft) N-NO 28 ° 0 min 0,000 mm 3,1 UV-I 206 W/m² 15,6 °C 23,3 °C 3,2 km/h (1 Bft)
30.06.2018 13:45 23,3 °C 63 % 1010,8 hPa 0,0 mm 1,3 km/h (1 Bft) N-NO 28 ° 0 min 0,000 mm 3,2 UV-I 218 W/m² 15,9 °C 23,3 °C 3,2 km/h (1 Bft)
30.06.2018 13:46 23,2 °C 61 % 1010,8 hPa 0,0 mm 0,0 km/h (0 Bft) N-NO 28 ° 0 min 0,000 mm 3,3 UV-I 229 W/m² 15,3 °C 23,2 °C 0,0 km/h (0 Bft)
30.06.2018 13:47 23,3 °C 64 % 1010,7 hPa 0,0 mm 1,8 km/h (1 Bft) N-NO 28 ° 0 min 0,000 mm 5,4 UV-I 229 W/m² 16,1 °C 23,3 °C 4,8 km/h (1 Bft)
30.06.2018 13:48 23,4 °C 65 % 1010,7 hPa 0,0 mm 5,0 km/h (1 Bft) N 355 ° 0 min 0,000 mm 5,0 UV-I 229 W/m² 16,4 °C 23,4 °C 8,0 km/h (2 Bft)
30.06.2018 13:49 23,5 °C 61 % 1010,8 hPa 0,0 mm 4,8 km/h (1 Bft) NO 38 ° 0 min 0,000 mm 6,9 UV-I 229 W/m² 15,5 °C 23,5 °C 9,7 km/h (2 Bft)
30.06.2018 13:50 23,7 °C 61 % 1010,7 hPa 0,0 mm 5,6 km/h (1 Bft) O 98 ° 1 min 0,000 mm 7,1 UV-I 1032 W/m² 15,7 °C 23,7 °C 8,0 km/h (2 Bft)
30.06.2018 13:51 23,8 °C 61 % 1010,7 hPa 0,0 mm 7,2 km/h (2 Bft) N-NO 17 ° 1 min 0,000 mm 7,2 UV-I 1049 W/m² 15,8 °C 23,8 °C 12,9 km/h (3 Bft)
30.06.2018 13:52 23,9 °C 59 % 1010,8 hPa 0,0 mm 5,5 km/h (1 Bft) N 9 ° 1 min 0,000 mm 7,1 UV-I 1065 W/m² 15,4 °C 23,9 °C 12,9 km/h (3 Bft)
30.06.2018 13:53 24,0 °C 61 % 1010,7 hPa 0,0 mm 5,4 km/h (1 Bft) N-NO 23 ° 1 min 0,000 mm 5,7 UV-I 1065 W/m² 16,0 °C 24,0 °C 9,7 km/h (2 Bft)
30.06.2018 13:54 24,0 °C 61 % 1010,8 hPa 0,0 mm 8,2 km/h (2 Bft) NO 42 ° 0 min 0,000 mm 5,6 UV-I 427 W/m² 16,0 °C 24,0 °C 11,3 km/h (2 Bft)
30.06.2018 13:55 23,9 °C 59 % 1010,8 hPa 0,0 mm 8,4 km/h (2 Bft) N-NO 23 ° 0 min 0,000 mm 4,2 UV-I 441 W/m² 15,4 °C 23,9 °C 12,9 km/h (3 Bft)
30.06.2018 13:56 23,8 °C 61 % 1010,8 hPa 0,0 mm 3,9 km/h (1 Bft) O-NO 59 ° 0 min 0,000 mm 3,9 UV-I 350 W/m² 15,8 °C 23,8 °C 6,4 km/h (2 Bft)
30.06.2018 13:57 23,7 °C 59 % 1010,8 hPa 0,0 mm 5,6 km/h (1 Bft) O-NO 65 ° 0 min 0,000 mm 3,8 UV-I 334 W/m² 15,2 °C 23,7 °C 8,0 km/h (2 Bft)
30.06.2018 13:58 23,5 °C 59 % 1010,7 hPa 0,0 mm 4,2 km/h (1 Bft) O-NO 61 ° 0 min 0,000 mm 3,7 UV-I 341 W/m² 15,0 °C 23,5 °C 8,0 km/h (2 Bft)
30.06.2018 13:59 23,3 °C 60 % 1010,8 hPa 0,0 mm 2,0 km/h (1 Bft) N 355 ° 0 min 0,000 mm 3,7 UV-I 371 W/m² 15,1 °C 23,3 °C 4,8 km/h (1 Bft)
30.06.2018 14:00 23,2 °C 61 % 1010,8 hPa 0,0 mm 4,5 km/h (1 Bft) O-NO 67 ° 0 min 0,000 mm 4,3 UV-I 425 W/m² 15,3 °C 23,2 °C 8,0 km/h (2 Bft)
30.06.2018 14:01 23,2 °C 64 % 1010,7 hPa 0,0 mm 3,3 km/h (1 Bft) O-NO 67 ° 0 min 0,482 mm 4,3 UV-I 425 W/m² 16,0 °C 23,2 °C 4,8 km/h (1 Bft)
30.06.2018 14:02 23,2 °C 62 % 1010,8 hPa 0,0 mm 4,8 km/h (1 Bft) N-NO 32 ° 1 min 0,000 mm 3,6 UV-I 661 W/m² 15,5 °C 23,2 °C 4,8 km/h (1 Bft)
30.06.2018 14:03 23,3 °C 64 % 1010,7 hPa 0,0 mm 3,5 km/h (1 Bft) N-NO 32 ° 1 min 0,000 mm 3,4 UV-I 661 W/m² 16,1 °C 23,3 °C 4,8 km/h (1 Bft)
30.06.2018 14:04 23,3 °C 59 % 1010,7 hPa 0,0 mm 2,5 km/h (1 Bft) N-NO 32 ° 0 min 0,000 mm 3,5 UV-I 292 W/m² 14,8 °C 23,3 °C 4,8 km/h (1 Bft)
30.06.2018 14:05 23,3 °C 62 % 1010,7 hPa 0,0 mm 1,1 km/h (1 Bft) N-NO 32 ° 0 min 0,000 mm 3,5 UV-I 297 W/m² 15,6 °C 23,3 °C 3,2 km/h (1 Bft)
30.06.2018 14:06 23,3 °C 60 % 1010,7 hPa 0,0 mm 0,3 km/h (0 Bft) N-NO 32 ° 0 min 0,000 mm 3,6 UV-I 297 W/m² 15,1 °C 23,3 °C 1,6 km/h (1 Bft)
30.06.2018 14:07 23,3 °C 62 % 1010,7 hPa 0,0 mm 3,7 km/h (1 Bft) N 11 ° 0 min 0,000 mm 6,0 UV-I 297 W/m² 15,6 °C 23,3 °C 6,4 km/h (2 Bft)
30.06.2018 14:08 23,6 °C 64 % 1010,7 hPa 0,0 mm 3,7 km/h (1 Bft) NO 54 ° 0 min 0,000 mm 6,1 UV-I 297 W/m² 16,4 °C 23,6 °C 4,8 km/h (1 Bft)
30.06.2018 14:09 23,7 °C 59 % 1010,7 hPa 0,0 mm 4,5 km/h (1 Bft) N 355 ° 0 min 0,000 mm 6,1 UV-I 297 W/m² 15,2 °C 23,7 °C 6,4 km/h (2 Bft)
30.06.2018 14:10 23,7 °C 62 % 1010,7 hPa 0,0 mm 1,5 km/h (1 Bft) N 360 ° 0 min 0,000 mm 3,1 UV-I 236 W/m² 16,0 °C 23,7 °C 3,2 km/h (1 Bft)
30.06.2018 14:11 23,7 °C 62 % 1010,7 hPa 0,0 mm 1,4 km/h (1 Bft) N 360 ° 0 min 0,000 mm 3,1 UV-I 236 W/m² 16,0 °C 23,7 °C 4,8 km/h (1 Bft)
30.06.2018 14:12 23,6 °C 63 % 1010,7 hPa 0,0 mm 3,4 km/h (1 Bft) N-NW 337 ° 0 min 0,000 mm 3,5 UV-I 271 W/m² 16,1 °C 23,6 °C 4,8 km/h (1 Bft)
30.06.2018 14:13 23,5 °C 62 % 1010,7 hPa 0,0 mm 5,4 km/h (1 Bft) NW 321 ° 0 min 0,000 mm 3,7 UV-I 297 W/m² 15,8 °C 23,5 °C 8,0 km/h (2 Bft)
30.06.2018 14:14 23,3 °C 61 % 1010,7 hPa 0,0 mm 9,5 km/h (2 Bft) N-NW 340 ° 0 min 0,000 mm 4,5 UV-I 297 W/m² 15,3 °C 23,3 °C 16,1 km/h (3 Bft)
30.06.2018 14:15 23,2 °C 62 % 1010,7 hPa 0,0 mm 7,1 km/h (2 Bft) N 355 ° 0 min 0,000 mm 4,3 UV-I 297 W/m² 15,5 °C 23,2 °C 12,9 km/h (3 Bft)
30.06.2018 14:16 23,2 °C 63 % 1010,7 hPa 0,0 mm 3,0 km/h (1 Bft) N-NW 341 ° 0 min 0,000 mm 7,0 UV-I 297 W/m² 15,8 °C 23,2 °C 4,8 km/h (1 Bft)
30.06.2018 14:17 23,4 °C 64 % 1010,7 hPa 0,0 mm 3,8 km/h (1 Bft) N-NW 345 ° 0 min 0,000 mm 5,7 UV-I 297 W/m² 16,2 °C 23,4 °C 6,4 km/h (2 Bft)
30.06.2018 14:18 23,6 °C 62 % 1010,7 hPa 0,0 mm 4,6 km/h (1 Bft) N-NO 32 ° 1 min 0,000 mm 7,2 UV-I 896 W/m² 15,9 °C 23,6 °C 8,0 km/h (2 Bft)
30.06.2018 14:19 23,6 °C 59 % 1010,7 hPa 0,0 mm 2,7 km/h (1 Bft) NO 48 ° 1 min 0,000 mm 7,2 UV-I 888 W/m² 15,1 °C 23,6 °C 6,4 km/h (2 Bft)
30.06.2018 14:20 23,6 °C 59 % 1010,7 hPa 0,0 mm 5,2 km/h (1 Bft) N-NO 26 ° 1 min 0,000 mm 7,2 UV-I 902 W/m² 15,1 °C 23,6 °C 6,4 km/h (2 Bft)
30.06.2018 14:21 23,8 °C 62 % 1010,7 hPa 0,0 mm 6,1 km/h (2 Bft) N 9 ° 1 min 0,000 mm 6,9 UV-I 891 W/m² 16,1 °C 23,8 °C 8,0 km/h (2 Bft)
30.06.2018 14:22 23,8 °C 59 % 1010,7 hPa 0,0 mm 5,1 km/h (1 Bft) N 5 ° 1 min 0,000 mm 6,9 UV-I 888 W/m² 15,3 °C 23,8 °C 6,4 km/h (2 Bft)
30.06.2018 14:23 23,9 °C 60 % 1010,7 hPa 0,0 mm 8,3 km/h (2 Bft) NO 36 ° 1 min 0,000 mm 7,1 UV-I 898 W/m² 15,7 °C 23,9 °C 12,9 km/h (3 Bft)
30.06.2018 14:24 24,1 °C 62 % 1010,7 hPa 0,0 mm 4,6 km/h (1 Bft) N-NO 15 ° 1 min 0,000 mm 7,1 UV-I 902 W/m² 16,4 °C 24,1 °C 12,9 km/h (3 Bft)
30.06.2018 14:25 24,3 °C 60 % 1010,6 hPa 0,0 mm 5,3 km/h (1 Bft) N-NW 341 ° 1 min 0,000 mm 7,1 UV-I 907 W/m² 16,0 °C 24,3 °C 8,0 km/h (2 Bft)
30.06.2018 14:26 24,3 °C 57 % 1010,6 hPa 0,0 mm 2,3 km/h (1 Bft) W-NW 302 ° 1 min 0,000 mm 7,1 UV-I 918 W/m² 15,2 °C 24,3 °C 4,8 km/h (1 Bft)
30.06.2018 14:27 24,3 °C 57 % 1010,6 hPa 0,0 mm 3,4 km/h (1 Bft) NO 39 ° 1 min 0,000 mm 6,9 UV-I 907 W/m² 15,2 °C 24,3 °C 6,4 km/h (2 Bft)
30.06.2018 14:28 24,3 °C 57 % 1010,6 hPa 0,0 mm 6,4 km/h (2 Bft) NO 43 ° 1 min 0,000 mm 6,9 UV-I 905 W/m² 15,2 °C 24,3 °C 8,0 km/h (2 Bft)
30.06.2018 14:29 24,2 °C 60 % 1010,6 hPa 0,0 mm 0,9 km/h (0 Bft) NO 43 ° 1 min 0,000 mm 6,9 UV-I 933 W/m² 15,9 °C 24,2 °C 1,6 km/h (1 Bft)
30.06.2018 14:30 24,3 °C 57 % 1010,6 hPa 0,0 mm 3,9 km/h (1 Bft) N-NW 338 ° 1 min 0,000 mm 7,1 UV-I 947 W/m² 15,2 °C 24,3 °C 6,4 km/h (2 Bft)
30.06.2018 14:31 24,3 °C 61 % 1010,6 hPa 0,0 mm 3,4 km/h (1 Bft) O-SO 104 ° 1 min 0,000 mm 7,1 UV-I 949 W/m² 16,3 °C 24,3 °C 6,4 km/h (2 Bft)
30.06.2018 14:32 24,3 °C 58 % 1010,5 hPa 0,0 mm 2,5 km/h (1 Bft) O-NO 68 ° 1 min 0,000 mm 7,0 UV-I 956 W/m² 15,5 °C 24,3 °C 4,8 km/h (1 Bft)
30.06.2018 14:33 24,2 °C 57 % 1010,6 hPa 0,0 mm 0,0 km/h (0 Bft) O-NO 68 ° 1 min 0,000 mm 6,8 UV-I 960 W/m² 15,1 °C 24,2 °C 0,0 km/h (0 Bft)
30.06.2018 14:34 24,3 °C 62 % 1010,6 hPa 0,0 mm 1,7 km/h (1 Bft) O-NO 66 ° 1 min 0,000 mm 3,9 UV-I 960 W/m² 16,5 °C 24,3 °C 4,8 km/h (1 Bft)
30.06.2018 14:35 24,2 °C 57 % 1010,5 hPa 0,0 mm 4,8 km/h (1 Bft) N-NW 343 ° 1 min 0,000 mm 3,5 UV-I 960 W/m² 15,1 °C 24,2 °C 9,7 km/h (2 Bft)
30.06.2018 14:36 24,2 °C 57 % 1010,6 hPa 0,0 mm 7,9 km/h (2 Bft) N 355 ° 0 min 0,000 mm 3,5 UV-I 229 W/m² 15,1 °C 24,2 °C 12,9 km/h (3 Bft)
30.06.2018 14:37 24,0 °C 60 % 1010,6 hPa 0,0 mm 4,2 km/h (1 Bft) N-NW 335 ° 0 min 0,000 mm 3,5 UV-I 236 W/m² 15,7 °C 24,0 °C 6,4 km/h (2 Bft)
30.06.2018 14:38 23,9 °C 61 % 1010,6 hPa 0,0 mm 3,1 km/h (1 Bft) N 355 ° 0 min 0,000 mm 3,5 UV-I 250 W/m² 15,9 °C 23,9 °C 4,8 km/h (1 Bft)
30.06.2018 14:39 23,8 °C 62 % 1010,6 hPa 0,0 mm 1,4 km/h (1 Bft) N-NO 26 ° 0 min 0,000 mm 3,9 UV-I 366 W/m² 16,1 °C 23,8 °C 4,8 km/h (1 Bft)
30.06.2018 14:40 23,7 °C 61 % 1010,6 hPa 0,0 mm 3,3 km/h (1 Bft) N-NO 13 ° 0 min 0,000 mm 6,4 UV-I 366 W/m² 15,7 °C 23,7 °C 8,0 km/h (2 Bft)
30.06.2018 14:41 23,7 °C 63 % 1010,6 hPa 0,0 mm 12,5 km/h (3 Bft) N-NO 22 ° 0 min 0,000 mm 6,6 UV-I 366 W/m² 16,2 °C 23,7 °C 16,1 km/h (3 Bft)
30.06.2018 14:42 23,8 °C 59 % 1010,6 hPa 0,0 mm 10,8 km/h (2 Bft) N 5 ° 1 min 0,000 mm 6,7 UV-I 983 W/m² 15,3 °C 23,8 °C 14,5 km/h (3 Bft)
30.06.2018 14:43 23,9 °C 59 % 1010,6 hPa 0,0 mm 7,6 km/h (2 Bft) N-NO 23 ° 1 min 0,000 mm 6,7 UV-I 965 W/m² 15,4 °C 23,9 °C 12,9 km/h (3 Bft)
30.06.2018 14:44 24,1 °C 58 % 1010,6 hPa 0,0 mm 9,9 km/h (2 Bft) N-NO 13 ° 1 min 0,000 mm 6,7 UV-I 935 W/m² 15,3 °C 24,1 °C 12,9 km/h (3 Bft)
30.06.2018 14:45 24,2 °C 58 % 1010,6 hPa 0,0 mm 5,9 km/h (2 Bft) N 5 ° 1 min 0,000 mm 6,7 UV-I 925 W/m² 15,4 °C 24,2 °C 8,0 km/h (2 Bft)
30.06.2018 14:46 24,3 °C 60 % 1010,6 hPa 0,0 mm 5,3 km/h (1 Bft) N 9 ° 1 min 0,000 mm 6,6 UV-I 914 W/m² 16,0 °C 24,3 °C 8,0 km/h (2 Bft)
30.06.2018 14:47 24,4 °C 57 % 1010,6 hPa 0,0 mm 4,2 km/h (1 Bft) N-NO 19 ° 1 min 0,000 mm 6,6 UV-I 911 W/m² 15,3 °C 24,4 °C 6,4 km/h (2 Bft)
30.06.2018 14:48 24,3 °C 55 % 1010,6 hPa 0,0 mm 0,5 km/h (0 Bft) N-NO 19 ° 1 min 0,000 mm 6,6 UV-I 914 W/m² 14,7 °C 24,3 °C 1,6 km/h (1 Bft)
30.06.2018 14:49 24,2 °C 56 % 1010,6 hPa 0,0 mm 1,2 km/h (1 Bft) N-NO 18 ° 1 min 0,000 mm 6,7 UV-I 928 W/m² 14,9 °C 24,2 °C 3,2 km/h (1 Bft)
30.06.2018 14:50 24,3 °C 60 % 1010,6 hPa 0,0 mm 3,6 km/h (1 Bft) NW 316 ° 1 min 0,000 mm 6,7 UV-I 949 W/m² 16,0 °C 24,3 °C 4,8 km/h (1 Bft)
30.06.2018 14:51 24,5 °C 58 % 1010,5 hPa 0,0 mm 3,1 km/h (1 Bft) NW 326 ° 1 min 0,000 mm 6,9 UV-I 949 W/m² 15,7 °C 24,5 °C 6,4 km/h (2 Bft)
30.06.2018 14:52 24,7 °C 61 % 1010,5 hPa 0,0 mm 8,6 km/h (2 Bft) N 10 ° 1 min 0,000 mm 4,7 UV-I 949 W/m² 16,7 °C 24,7 °C 12,9 km/h (3 Bft)
30.06.2018 14:53 24,7 °C 58 % 1010,5 hPa 0,0 mm 4,5 km/h (1 Bft) N-NW 327 ° 1 min 0,000 mm 6,7 UV-I 949 W/m² 15,9 °C 24,7 °C 8,0 km/h (2 Bft)
30.06.2018 14:54 24,7 °C 59 % 1010,5 hPa 0,0 mm 2,8 km/h (1 Bft) N 360 ° 1 min 0,000 mm 6,9 UV-I 949 W/m² 16,1 °C 24,7 °C 4,8 km/h (1 Bft)
30.06.2018 14:55 24,7 °C 60 % 1010,5 hPa 0,0 mm 1,7 km/h (1 Bft) NO 38 ° 1 min 0,000 mm 6,9 UV-I 923 W/m² 16,4 °C 24,7 °C 3,2 km/h (1 Bft)
30.06.2018 14:56 24,6 °C 58 % 1010,5 hPa 0,0 mm 4,4 km/h (1 Bft) N-NO 20 ° 1 min 0,000 mm 6,7 UV-I 916 W/m² 15,8 °C 24,6 °C 6,4 km/h (2 Bft)
30.06.2018 14:57 24,6 °C 56 % 1010,4 hPa 0,0 mm 2,8 km/h (1 Bft) O-NO 65 ° 1 min 0,000 mm 6,6 UV-I 916 W/m² 15,2 °C 24,6 °C 6,4 km/h (2 Bft)
30.06.2018 14:58 24,6 °C 56 % 1010,4 hPa 0,0 mm 3,0 km/h (1 Bft) NO 46 ° 1 min 0,000 mm 6,5 UV-I 911 W/m² 15,2 °C 24,6 °C 9,7 km/h (2 Bft)
30.06.2018 14:59 24,7 °C 58 % 1010,4 hPa 0,0 mm 4,4 km/h (1 Bft) O 87 ° 1 min 0,000 mm 6,4 UV-I 911 W/m² 15,9 °C 24,7 °C 6,4 km/h (2 Bft)
30.06.2018 15:00 24,7 °C 57 % 1010,4 hPa 0,0 mm 5,6 km/h (1 Bft) N 355 ° 1 min 0,000 mm 3,7 UV-I 911 W/m² 15,6 °C 24,7 °C 9,7 km/h (2 Bft)
30.06.2018 15:01 24,7 °C 58 % 1010,4 hPa 0,0 mm 5,7 km/h (1 Bft) N-NW 340 ° 1 min 0,457 mm 3,7 UV-I 911 W/m² 15,9 °C 24,7 °C 9,7 km/h (2 Bft)
30.06.2018 15:02 24,6 °C 58 % 1010,5 hPa 0,0 mm 3,2 km/h (1 Bft) N-NW 334 ° 0 min 0,000 mm 3,6 UV-I 246 W/m² 15,8 °C 24,6 °C 6,4 km/h (2 Bft)
30.06.2018 15:03 24,4 °C 60 % 1010,5 hPa 0,0 mm 3,7 km/h (1 Bft) NW 325 ° 0 min 0,000 mm 3,7 UV-I 278 W/m² 16,1 °C 24,4 °C 4,8 km/h (1 Bft)
30.06.2018 15:04 24,2 °C 57 % 1010,5 hPa 0,0 mm 3,6 km/h (1 Bft) N-NW 327 ° 0 min 0,000 mm 5,0 UV-I 278 W/m² 15,1 °C 24,2 °C 4,8 km/h (1 Bft)
30.06.2018 15:05 24,1 °C 59 % 1010,5 hPa 0,0 mm 2,5 km/h (1 Bft) N-NW 331 ° 0 min 0,000 mm 3,7 UV-I 278 W/m² 15,6 °C 24,1 °C 4,8 km/h (1 Bft)
30.06.2018 15:06 24,1 °C 59 % 1010,5 hPa 0,0 mm 0,3 km/h (0 Bft) N-NW 331 ° 0 min 0,000 mm 3,5 UV-I 234 W/m² 15,6 °C 24,1 °C 1,6 km/h (1 Bft)
30.06.2018 15:07 24,0 °C 61 % 1010,4 hPa 0,0 mm 1,5 km/h (1 Bft) NW 311 ° 0 min 0,000 mm 6,3 UV-I 234 W/m² 16,0 °C 24,0 °C 4,8 km/h (1 Bft)
30.06.2018 15:08 24,0 °C 60 % 1010,4 hPa 0,0 mm 1,6 km/h (1 Bft) NW 311 ° 0 min 0,000 mm 3,4 UV-I 185 W/m² 15,7 °C 24,0 °C 3,2 km/h (1 Bft)
30.06.2018 15:09 23,9 °C 58 % 1010,4 hPa 0,0 mm 0,6 km/h (0 Bft) NW 311 ° 0 min 0,000 mm 3,4 UV-I 185 W/m² 15,1 °C 23,9 °C 1,6 km/h (1 Bft)
30.06.2018 15:10 23,8 °C 60 % 1010,4 hPa 0,0 mm 0,9 km/h (0 Bft) NW 311 ° 0 min 0,000 mm 4,0 UV-I 241 W/m² 15,6 °C 23,8 °C 1,6 km/h (1 Bft)
30.06.2018 15:11 23,8 °C 62 % 1010,4 hPa 0,0 mm 0,1 km/h (0 Bft) NW 311 ° 0 min 0,000 mm 4,9 UV-I 325 W/m² 16,1 °C 23,8 °C 1,6 km/h (1 Bft)
30.06.2018 15:12 23,7 °C 63 % 1010,4 hPa 0,0 mm 0,0 km/h (0 Bft) NW 311 ° 0 min 0,000 mm 4,2 UV-I 279 W/m² 16,2 °C 23,7 °C 0,0 km/h (0 Bft)
30.06.2018 15:13 23,8 °C 64 % 1010,4 hPa 0,0 mm 0,0 km/h (0 Bft) NW 311 ° 0 min 0,000 mm 4,2 UV-I 239 W/m² 16,6 °C 23,8 °C 0,0 km/h (0 Bft)
30.06.2018 15:14 23,7 °C 62 % 1010,4 hPa 0,0 mm 0,1 km/h (0 Bft) NW 312 ° 0 min 0,000 mm 3,2 UV-I 209 W/m² 16,0 °C 23,7 °C 1,6 km/h (1 Bft)
30.06.2018 15:15 23,6 °C 62 % 1010,4 hPa 0,0 mm 6,4 km/h (2 Bft) O-SO 117 ° 0 min 0,000 mm 3,1 UV-I 221 W/m² 15,9 °C 23,6 °C 9,7 km/h (2 Bft)
30.06.2018 15:16 23,5 °C 64 % 1010,4 hPa 0,0 mm 4,4 km/h (1 Bft) O-SO 117 ° 0 min 0,000 mm 3,2 UV-I 241 W/m² 16,3 °C 23,5 °C 6,4 km/h (2 Bft)
30.06.2018 15:17 23,4 °C 60 % 1010,4 hPa 0,0 mm 2,5 km/h (1 Bft) NO 44 ° 0 min 0,000 mm 4,7 UV-I 323 W/m² 15,2 °C 23,4 °C 4,8 km/h (1 Bft)
30.06.2018 15:18 23,4 °C 62 % 1010,4 hPa 0,0 mm 4,5 km/h (1 Bft) O 82 ° 0 min 0,000 mm 3,5 UV-I 290 W/m² 15,7 °C 23,4 °C 6,4 km/h (2 Bft)
30.06.2018 15:19 23,6 °C 62 % 1010,4 hPa 0,0 mm 2,1 km/h (1 Bft) NO 44 ° 0 min 0,000 mm 5,9 UV-I 290 W/m² 15,9 °C 23,6 °C 4,8 km/h (1 Bft)
30.06.2018 15:20 23,8 °C 63 % 1010,4 hPa 0,0 mm 4,3 km/h (1 Bft) N-NO 18 ° 0 min 0,000 mm 4,0 UV-I 290 W/m² 16,3 °C 23,8 °C 6,4 km/h (2 Bft)
30.06.2018 15:21 24,1 °C 61 % 1010,4 hPa 0,0 mm 6,8 km/h (2 Bft) N 9 ° 0 min 0,000 mm 3,7 UV-I 290 W/m² 16,1 °C 24,1 °C 9,7 km/h (2 Bft)
30.06.2018 15:22 24,2 °C 57 % 1010,4 hPa 0,0 mm 8,2 km/h (2 Bft) N 5 ° 0 min 0,000 mm 3,9 UV-I 320 W/m² 15,1 °C 24,2 °C 12,9 km/h (3 Bft)
30.06.2018 15:23 24,2 °C 58 % 1010,4 hPa 0,0 mm 5,6 km/h (1 Bft) W-NW 289 ° 0 min 0,000 mm 4,0 UV-I 352 W/m² 15,4 °C 24,2 °C 8,0 km/h (2 Bft)
30.06.2018 15:24 24,2 °C 58 % 1010,4 hPa 0,0 mm 5,6 km/h (1 Bft) N-NW 346 ° 0 min 0,000 mm 6,0 UV-I 352 W/m² 15,4 °C 24,2 °C 8,0 km/h (2 Bft)
30.06.2018 15:25 24,2 °C 56 % 1010,4 hPa 0,0 mm 3,9 km/h (1 Bft) NW 317 ° 1 min 0,000 mm 6,0 UV-I 937 W/m² 14,9 °C 24,2 °C 9,7 km/h (2 Bft)
30.06.2018 15:26 24,3 °C 61 % 1010,4 hPa 0,0 mm 6,7 km/h (2 Bft) NO 46 ° 1 min 0,000 mm 4,6 UV-I 937 W/m² 16,3 °C 24,3 °C 14,5 km/h (3 Bft)
30.06.2018 15:27 24,3 °C 56 % 1010,4 hPa 0,0 mm 8,1 km/h (2 Bft) NO 36 ° 1 min 0,000 mm 4,3 UV-I 937 W/m² 14,9 °C 24,3 °C 12,9 km/h (3 Bft)
30.06.2018 15:28 24,4 °C 57 % 1010,4 hPa 0,0 mm 4,5 km/h (1 Bft) N-NW 331 ° 1 min 0,000 mm 4,8 UV-I 937 W/m² 15,3 °C 24,4 °C 9,7 km/h (2 Bft)
30.06.2018 15:29 24,4 °C 59 % 1010,4 hPa 0,0 mm 3,6 km/h (1 Bft) N-NO 13 ° 1 min 0,000 mm 4,1 UV-I 937 W/m² 15,9 °C 24,4 °C 6,4 km/h (2 Bft)
30.06.2018 15:30 24,3 °C 56 % 1010,4 hPa 0,0 mm 4,1 km/h (1 Bft) N-NO 25 ° 1 min 0,000 mm 5,1 UV-I 937 W/m² 14,9 °C 24,3 °C 8,0 km/h (2 Bft)
30.06.2018 15:31 24,4 °C 55 % 1010,4 hPa 0,0 mm 1,5 km/h (1 Bft) N-NO 25 ° 1 min 0,000 mm 5,1 UV-I 937 W/m² 14,8 °C 24,4 °C 1,6 km/h (1 Bft)
30.06.2018 15:32 24,3 °C 55 % 1010,4 hPa 0,0 mm 5,2 km/h (1 Bft) O-NO 62 ° 1 min 0,000 mm 6,0 UV-I 937 W/m² 14,7 °C 24,3 °C 9,7 km/h (2 Bft)
30.06.2018 15:33 24,3 °C 56 % 1010,4 hPa 0,0 mm 5,8 km/h (2 Bft) N 11 ° 1 min 0,000 mm 5,6 UV-I 937 W/m² 14,9 °C 24,3 °C 11,3 km/h (2 Bft)
30.06.2018 15:34 24,4 °C 56 % 1010,4 hPa 0,0 mm 4,2 km/h (1 Bft) NW 322 ° 1 min 0,000 mm 6,1 UV-I 937 W/m² 15,0 °C 24,4 °C 6,4 km/h (2 Bft)
30.06.2018 15:35 24,4 °C 54 % 1010,4 hPa 0,0 mm 5,1 km/h (1 Bft) N-NW 342 ° 1 min 0,000 mm 6,0 UV-I 932 W/m² 14,5 °C 24,4 °C 9,7 km/h (2 Bft)
30.06.2018 15:36 24,5 °C 56 % 1010,4 hPa 0,0 mm 3,6 km/h (1 Bft) NW 317 ° 1 min 0,000 mm 5,8 UV-I 905 W/m² 15,1 °C 24,5 °C 6,4 km/h (2 Bft)
30.06.2018 15:37 24,6 °C 59 % 1010,4 hPa 0,0 mm 2,3 km/h (1 Bft) N-NO 24 ° 1 min 0,000 mm 4,2 UV-I 905 W/m² 16,0 °C 24,6 °C 4,8 km/h (1 Bft)
30.06.2018 15:38 24,6 °C 56 % 1010,4 hPa 0,0 mm 3,8 km/h (1 Bft) N-NO 26 ° 0 min 0,000 mm 3,8 UV-I 325 W/m² 15,2 °C 24,6 °C 4,8 km/h (1 Bft)
30.06.2018 15:39 24,6 °C 58 % 1010,4 hPa 0,0 mm 4,9 km/h (1 Bft) N-NW 341 ° 0 min 0,000 mm 4,1 UV-I 367 W/m² 15,8 °C 24,6 °C 6,4 km/h (2 Bft)
30.06.2018 15:40 24,6 °C 54 % 1010,5 hPa 0,0 mm 5,1 km/h (1 Bft) N-NW 336 ° 0 min 0,000 mm 3,7 UV-I 316 W/m² 14,7 °C 24,6 °C 9,7 km/h (2 Bft)
30.06.2018 15:41 24,5 °C 55 % 1010,5 hPa 0,0 mm 7,1 km/h (2 Bft) N-NO 16 ° 0 min 0,000 mm 3,6 UV-I 287 W/m² 14,9 °C 24,5 °C 9,7 km/h (2 Bft)
30.06.2018 15:42 24,3 °C 56 % 1010,4 hPa 0,0 mm 6,5 km/h (2 Bft) N-NW 342 ° 0 min 0,000 mm 5,2 UV-I 287 W/m² 14,9 °C 24,3 °C 8,0 km/h (2 Bft)
30.06.2018 15:43 24,3 °C 56 % 1010,4 hPa 0,0 mm 4,3 km/h (1 Bft) N-NW 339 ° 1 min 0,000 mm 5,6 UV-I 860 W/m² 14,9 °C 24,3 °C 6,4 km/h (2 Bft)
30.06.2018 15:44 24,4 °C 58 % 1010,4 hPa 0,0 mm 4,5 km/h (1 Bft) N-NO 19 ° 1 min 0,000 mm 5,3 UV-I 838 W/m² 15,6 °C 24,4 °C 8,0 km/h (2 Bft)
30.06.2018 15:45 24,5 °C 59 % 1010,4 hPa 0,0 mm 3,4 km/h (1 Bft) N-NO 25 ° 1 min 0,000 mm 5,2 UV-I 838 W/m² 15,9 °C 24,5 °C 8,0 km/h (2 Bft)
30.06.2018 15:46 24,6 °C 59 % 1010,4 hPa 0,0 mm 4,5 km/h (1 Bft) NW 320 ° 1 min 0,000 mm 5,2 UV-I 830 W/m² 16,0 °C 24,6 °C 6,4 km/h (2 Bft)
30.06.2018 15:47 24,7 °C 58 % 1010,4 hPa 0,0 mm 2,3 km/h (1 Bft) W-NW 302 ° 1 min 0,000 mm 5,1 UV-I 821 W/m² 15,9 °C 24,7 °C 6,4 km/h (2 Bft)
30.06.2018 15:48 24,8 °C 58 % 1010,4 hPa 0,0 mm 2,2 km/h (1 Bft) N 9 ° 1 min 0,000 mm 5,1 UV-I 819 W/m² 16,0 °C 24,8 °C 4,8 km/h (1 Bft)
30.06.2018 15:49 24,8 °C 59 % 1010,4 hPa 0,0 mm 3,9 km/h (1 Bft) N-NW 347 ° 1 min 0,000 mm 5,1 UV-I 819 W/m² 16,2 °C 24,8 °C 4,8 km/h (1 Bft)
30.06.2018 15:50 24,9 °C 57 % 1010,4 hPa 0,0 mm 8,2 km/h (2 Bft) N-NW 328 ° 0 min 0,000 mm 3,3 UV-I 218 W/m² 15,8 °C 24,9 °C 14,5 km/h (3 Bft)
30.06.2018 15:51 24,8 °C 56 % 1010,4 hPa 0,0 mm 6,6 km/h (2 Bft) NW 309 ° 0 min 0,000 mm 5,1 UV-I 218 W/m² 15,4 °C 24,8 °C 12,9 km/h (3 Bft)
30.06.2018 15:52 24,8 °C 60 % 1010,4 hPa 0,0 mm 5,0 km/h (1 Bft) N-NO 27 ° 1 min 0,000 mm 5,2 UV-I 860 W/m² 16,5 °C 24,8 °C 12,9 km/h (3 Bft)
30.06.2018 15:53 24,8 °C 56 % 1010,4 hPa 0,0 mm 10,8 km/h (2 Bft) N-NO 30 ° 1 min 0,000 mm 5,1 UV-I 849 W/m² 15,4 °C 24,8 °C 14,5 km/h (3 Bft)
30.06.2018 15:54 24,8 °C 55 % 1010,4 hPa 0,0 mm 4,2 km/h (1 Bft) N-NO 20 ° 1 min 0,000 mm 5,1 UV-I 840 W/m² 15,1 °C 24,8 °C 11,3 km/h (2 Bft)
30.06.2018 15:55 24,8 °C 57 % 1010,4 hPa 0,0 mm 5,1 km/h (1 Bft) NO 51 ° 1 min 0,000 mm 5,1 UV-I 833 W/m² 15,7 °C 24,8 °C 9,7 km/h (2 Bft)
30.06.2018 15:56 24,8 °C 56 % 1010,4 hPa 0,0 mm 9,3 km/h (2 Bft) N-NO 15 ° 1 min 0,000 mm 5,1 UV-I 846 W/m² 15,4 °C 24,8 °C 16,1 km/h (3 Bft)
30.06.2018 15:57 24,8 °C 56 % 1010,4 hPa 0,0 mm 2,3 km/h (1 Bft) N-NW 344 ° 1 min 0,000 mm 5,0 UV-I 854 W/m² 15,4 °C 24,8 °C 4,8 km/h (1 Bft)
30.06.2018 15:58 24,7 °C 56 % 1010,3 hPa 0,0 mm 6,1 km/h (2 Bft) N 10 ° 1 min 0,000 mm 5,0 UV-I 854 W/m² 15,3 °C 24,7 °C 9,7 km/h (2 Bft)
30.06.2018 15:59 24,7 °C 59 % 1010,4 hPa 0,0 mm 8,2 km/h (2 Bft) NO 55 ° 1 min 0,000 mm 4,9 UV-I 858 W/m² 16,1 °C 24,7 °C 11,3 km/h (2 Bft)
30.06.2018 16:00 24,7 °C 57 % 1010,4 hPa 0,0 mm 7,0 km/h (2 Bft) N-NO 30 ° 1 min 0,000 mm 4,9 UV-I 886 W/m² 15,6 °C 24,7 °C 11,3 km/h (2 Bft)
30.06.2018 16:01 24,8 °C 55 % 1010,4 hPa 0,0 mm 5,3 km/h (1 Bft) N 9 ° 1 min 0,381 mm 4,8 UV-I 886 W/m² 15,1 °C 24,8 °C 6,4 km/h (2 Bft)
30.06.2018 16:02 24,8 °C 55 % 1010,4 hPa 0,0 mm 6,0 km/h (2 Bft) O-NO 57 ° 1 min 0,000 mm 3,1 UV-I 886 W/m² 15,1 °C 24,8 °C 9,7 km/h (2 Bft)
30.06.2018 16:03 24,7 °C 54 % 1010,4 hPa 0,0 mm 3,6 km/h (1 Bft) N 5 ° 1 min 0,000 mm 2,7 UV-I 886 W/m² 14,8 °C 24,7 °C 6,4 km/h (2 Bft)
30.06.2018 16:04 24,7 °C 56 % 1010,4 hPa 0,0 mm 5,4 km/h (1 Bft) NO 40 ° 1 min 0,000 mm 2,5 UV-I 886 W/m² 15,3 °C 24,7 °C 11,3 km/h (2 Bft)
30.06.2018 16:05 24,5 °C 57 % 1010,4 hPa 0,0 mm 6,5 km/h (2 Bft) N-NO 22 ° 0 min 0,000 mm 2,3 UV-I 227 W/m² 15,4 °C 24,5 °C 14,5 km/h (3 Bft)
30.06.2018 16:06 24,3 °C 57 % 1010,3 hPa 0,0 mm 5,8 km/h (2 Bft) N-NO 22 ° 0 min 0,000 mm 2,2 UV-I 192 W/m² 15,2 °C 24,3 °C 9,7 km/h (2 Bft)
30.06.2018 16:07 24,3 °C 57 % 1010,3 hPa 0,0 mm 7,6 km/h (2 Bft) N-NO 16 ° 0 min 0,000 mm 2,0 UV-I 181 W/m² 15,2 °C 24,3 °C 9,7 km/h (2 Bft)
30.06.2018 16:08 24,2 °C 58 % 1010,4 hPa 0,0 mm 7,9 km/h (2 Bft) N-NO 13 ° 0 min 0,000 mm 1,9 UV-I 167 W/m² 15,4 °C 24,2 °C 14,5 km/h (3 Bft)
30.06.2018 16:09 24,1 °C 58 % 1010,3 hPa 0,0 mm 4,8 km/h (1 Bft) NO 50 ° 0 min 0,000 mm 1,9 UV-I 158 W/m² 15,3 °C 24,1 °C 8,0 km/h (2 Bft)
30.06.2018 16:10 23,9 °C 57 % 1010,4 hPa 0,0 mm 10,9 km/h (2 Bft) NO 48 ° 0 min 0,000 mm 1,9 UV-I 153 W/m² 14,9 °C 23,9 °C 17,7 km/h (3 Bft)
30.06.2018 16:11 23,8 °C 57 % 1010,4 hPa 0,0 mm 3,3 km/h (1 Bft) N 360 ° 0 min 0,000 mm 1,9 UV-I 144 W/m² 14,8 °C 23,8 °C 11,3 km/h (2 Bft)
30.06.2018 16:12 23,7 °C 58 % 1010,4 hPa 0,0 mm 11,7 km/h (2 Bft) N-NO 21 ° 0 min 0,000 mm 1,8 UV-I 137 W/m² 14,9 °C 23,7 °C 17,7 km/h (3 Bft)
30.06.2018 16:13 23,6 °C 57 % 1010,4 hPa 0,0 mm 8,9 km/h (2 Bft) N-NW 332 ° 0 min 0,000 mm 1,9 UV-I 142 W/m² 14,6 °C 23,6 °C 12,9 km/h (3 Bft)
30.06.2018 16:14 23,5 °C 58 % 1010,4 hPa 0,0 mm 5,6 km/h (1 Bft) N 360 ° 0 min 0,000 mm 1,9 UV-I 149 W/m² 14,7 °C 23,5 °C 8,0 km/h (2 Bft)
30.06.2018 16:15 23,4 °C 59 % 1010,5 hPa 0,0 mm 3,6 km/h (1 Bft) N 355 ° 0 min 0,000 mm 2,1 UV-I 160 W/m² 14,9 °C 23,4 °C 4,8 km/h (1 Bft)
30.06.2018 16:16 23,4 °C 60 % 1010,5 hPa 0,0 mm 3,2 km/h (1 Bft) N-NW 345 ° 0 min 0,000 mm 2,3 UV-I 195 W/m² 15,2 °C 23,4 °C 4,8 km/h (1 Bft)
30.06.2018 16:17 23,4 °C 59 % 1010,4 hPa 0,0 mm 3,4 km/h (1 Bft) NO 36 ° 0 min 0,000 mm 2,4 UV-I 220 W/m² 14,9 °C 23,4 °C 6,4 km/h (2 Bft)
30.06.2018 16:18 23,6 °C 61 % 1010,5 hPa 0,0 mm 4,9 km/h (1 Bft) O-NO 60 ° 0 min 0,000 mm 2,6 UV-I 230 W/m² 15,6 °C 23,6 °C 8,0 km/h (2 Bft)
30.06.2018 16:19 23,6 °C 59 % 1010,5 hPa 0,0 mm 4,7 km/h (1 Bft) NW 315 ° 0 min 0,000 mm 2,8 UV-I 236 W/m² 15,1 °C 23,6 °C 6,4 km/h (2 Bft)
30.06.2018 16:20 23,6 °C 58 % 1010,5 hPa 0,0 mm 4,1 km/h (1 Bft) N-NO 15 ° 0 min 0,000 mm 2,9 UV-I 232 W/m² 14,8 °C 23,6 °C 8,0 km/h (2 Bft)
30.06.2018 16:21 23,7 °C 59 % 1010,5 hPa 0,0 mm 2,5 km/h (1 Bft) N 5 ° 0 min 0,000 mm 2,9 UV-I 232 W/m² 15,2 °C 23,7 °C 6,4 km/h (2 Bft)
30.06.2018 16:22 23,8 °C 60 % 1010,3 hPa 0,0 mm 4,7 km/h (1 Bft) N-NW 331 ° 0 min 0,000 mm 2,9 UV-I 207 W/m² 15,6 °C 23,8 °C 8,0 km/h (2 Bft)
30.06.2018 16:23 23,8 °C 57 % 1010,3 hPa 0,0 mm 5,3 km/h (1 Bft) NO 55 ° 0 min 0,000 mm 2,9 UV-I 199 W/m² 14,8 °C 23,8 °C 9,7 km/h (2 Bft)
30.06.2018 16:24 23,9 °C 58 % 1010,4 hPa 0,0 mm 6,2 km/h (2 Bft) N-NO 29 ° 0 min 0,000 mm 2,9 UV-I 204 W/m² 15,1 °C 23,9 °C 17,7 km/h (3 Bft)
30.06.2018 16:25 23,9 °C 58 % 1010,4 hPa 0,0 mm 7,7 km/h (2 Bft) N 5 ° 0 min 0,000 mm 3,0 UV-I 211 W/m² 15,1 °C 23,9 °C 17,7 km/h (3 Bft)
30.06.2018 16:26 24,0 °C 59 % 1010,4 hPa 0,0 mm 3,1 km/h (1 Bft) N-NO 24 ° 0 min 0,000 mm 3,0 UV-I 221 W/m² 15,5 °C 24,0 °C 6,4 km/h (2 Bft)
30.06.2018 16:27 24,1 °C 58 % 1010,4 hPa 0,0 mm 2,6 km/h (1 Bft) N-NO 15 ° 0 min 0,000 mm 3,0 UV-I 239 W/m² 15,3 °C 24,1 °C 4,8 km/h (1 Bft)
30.06.2018 16:28 24,1 °C 58 % 1010,4 hPa 0,0 mm 4,8 km/h (1 Bft) W-NW 299 ° 0 min 0,000 mm 3,0 UV-I 250 W/m² 15,3 °C 24,1 °C 8,0 km/h (2 Bft)
30.06.2018 16:29 24,2 °C 57 % 1010,4 hPa 0,0 mm 3,3 km/h (1 Bft) N-NW 348 ° 0 min 0,000 mm 3,0 UV-I 250 W/m² 15,1 °C 24,2 °C 4,8 km/h (1 Bft)
30.06.2018 16:30 24,2 °C 60 % 1010,4 hPa 0,0 mm 4,8 km/h (1 Bft) N 9 ° 0 min 0,000 mm 2,9 UV-I 227 W/m² 15,9 °C 24,2 °C 11,3 km/h (2 Bft)
30.06.2018 16:31 24,1 °C 56 % 1010,4 hPa 0,0 mm 6,7 km/h (2 Bft) N 9 ° 0 min 0,000 mm 2,9 UV-I 223 W/m² 14,8 °C 24,1 °C 11,3 km/h (2 Bft)
30.06.2018 16:32 24,1 °C 56 % 1010,4 hPa 0,0 mm 7,3 km/h (2 Bft) N 5 ° 0 min 0,000 mm 2,9 UV-I 225 W/m² 14,8 °C 24,1 °C 12,9 km/h (3 Bft)
30.06.2018 16:33 24,0 °C 60 % 1010,4 hPa 0,0 mm 6,0 km/h (2 Bft) NO 55 ° 0 min 0,000 mm 2,9 UV-I 216 W/m² 15,7 °C 24,0 °C 9,7 km/h (2 Bft)
30.06.2018 16:34 24,0 °C 56 % 1010,4 hPa 0,0 mm 7,6 km/h (2 Bft) NO 55 ° 0 min 0,000 mm 2,8 UV-I 207 W/m² 14,7 °C 24,0 °C 9,7 km/h (2 Bft)
30.06.2018 16:35 24,0 °C 56 % 1010,4 hPa 0,0 mm 6,2 km/h (2 Bft) O-NO 67 ° 0 min 0,000 mm 2,7 UV-I 188 W/m² 14,7 °C 24,0 °C 12,9 km/h (3 Bft)
30.06.2018 16:36 23,9 °C 57 % 1010,4 hPa 0,0 mm 6,2 km/h (2 Bft) O-SO 119 ° 0 min 0,000 mm 2,7 UV-I 199 W/m² 14,9 °C 23,9 °C 9,7 km/h (2 Bft)
30.06.2018 16:37 23,8 °C 56 % 1010,4 hPa 0,0 mm 3,7 km/h (1 Bft) O 79 ° 0 min 0,000 mm 2,7 UV-I 197 W/m² 14,5 °C 23,8 °C 6,4 km/h (2 Bft)
30.06.2018 16:38 23,8 °C 57 % 1010,4 hPa 0,0 mm 0,2 km/h (0 Bft) O 79 ° 0 min 0,000 mm 2,7 UV-I 200 W/m² 14,8 °C 23,8 °C 1,6 km/h (1 Bft)
30.06.2018 16:39 23,7 °C 57 % 1010,3 hPa 0,0 mm 1,1 km/h (1 Bft) O 79 ° 0 min 0,000 mm 2,6 UV-I 200 W/m² 14,7 °C 23,7 °C 1,6 km/h (1 Bft)
30.06.2018 16:40 23,7 °C 56 % 1010,3 hPa 0,0 mm 1,5 km/h (1 Bft) O-NO 78 ° 0 min 0,000 mm 2,5 UV-I 197 W/m² 14,4 °C 23,7 °C 3,2 km/h (1 Bft)
30.06.2018 16:41 23,8 °C 56 % 1010,3 hPa 0,0 mm 2,8 km/h (1 Bft) N-NW 338 ° 0 min 0,000 mm 2,5 UV-I 229 W/m² 14,5 °C 23,8 °C 4,8 km/h (1 Bft)
30.06.2018 16:42 23,9 °C 60 % 1010,3 hPa 0,0 mm 4,0 km/h (1 Bft) N 9 ° 0 min 0,000 mm 2,6 UV-I 243 W/m² 15,7 °C 23,9 °C 6,4 km/h (2 Bft)
30.06.2018 16:43 24,1 °C 58 % 1010,4 hPa 0,0 mm 7,6 km/h (2 Bft) N-NO 17 ° 0 min 0,000 mm 2,6 UV-I 253 W/m² 15,3 °C 24,1 °C 17,7 km/h (3 Bft)
30.06.2018 16:44 24,1 °C 57 % 1010,4 hPa 0,0 mm 7,8 km/h (2 Bft) N 360 ° 0 min 0,000 mm 2,5 UV-I 253 W/m² 15,0 °C 24,1 °C 14,5 km/h (3 Bft)
30.06.2018 16:45 23,9 °C 55 % 1010,4 hPa 0,0 mm 4,4 km/h (1 Bft) N 350 ° 0 min 0,000 mm 2,5 UV-I 255 W/m² 14,3 °C 23,9 °C 8,0 km/h (2 Bft)
30.06.2018 16:46 23,8 °C 56 % 1010,3 hPa 0,0 mm 7,5 km/h (2 Bft) O 87 ° 0 min 0,000 mm 2,4 UV-I 257 W/m² 14,5 °C 23,8 °C 16,1 km/h (3 Bft)
30.06.2018 16:47 23,8 °C 57 % 1010,4 hPa 0,0 mm 5,2 km/h (1 Bft) O-NO 78 ° 0 min 0,000 mm 2,3 UV-I 246 W/m² 14,8 °C 23,8 °C 8,0 km/h (2 Bft)
30.06.2018 16:48 23,7 °C 56 % 1010,3 hPa 0,0 mm 2,7 km/h (1 Bft) O 94 ° 0 min 0,000 mm 2,2 UV-I 237 W/m² 14,4 °C 23,7 °C 4,8 km/h (1 Bft)
30.06.2018 16:49 23,6 °C 59 % 1010,3 hPa 0,0 mm 2,7 km/h (1 Bft) N-NO 28 ° 0 min 0,000 mm 2,2 UV-I 232 W/m² 15,1 °C 23,6 °C 4,8 km/h (1 Bft)
30.06.2018 16:50 23,6 °C 58 % 1010,4 hPa 0,0 mm 5,6 km/h (1 Bft) O 82 ° 0 min 0,000 mm 2,2 UV-I 230 W/m² 14,8 °C 23,6 °C 8,0 km/h (2 Bft)
30.06.2018 16:51 23,6 °C 57 % 1010,4 hPa 0,0 mm 9,1 km/h (2 Bft) NO 46 ° 0 min 0,000 mm 2,2 UV-I 229 W/m² 14,6 °C 23,6 °C 14,5 km/h (3 Bft)
30.06.2018 16:52 23,6 °C 59 % 1010,3 hPa 0,0 mm 3,1 km/h (1 Bft) O 80 ° 0 min 0,000 mm 2,3 UV-I 227 W/m² 15,1 °C 23,6 °C 8,0 km/h (2 Bft)
30.06.2018 16:53 23,6 °C 60 % 1010,3 hPa 0,0 mm 4,0 km/h (1 Bft) NO 36 ° 0 min 0,000 mm 2,3 UV-I 211 W/m² 15,4 °C 23,6 °C 6,4 km/h (2 Bft)
30.06.2018 16:54 23,6 °C 58 % 1010,3 hPa 0,0 mm 4,0 km/h (1 Bft) O-NO 66 ° 0 min 0,000 mm 2,3 UV-I 202 W/m² 14,8 °C 23,6 °C 8,0 km/h (2 Bft)
30.06.2018 16:55 23,6 °C 59 % 1010,3 hPa 0,0 mm 2,3 km/h (1 Bft) O-NO 65 ° 0 min 0,000 mm 2,4 UV-I 192 W/m² 15,1 °C 23,6 °C 6,4 km/h (2 Bft)
30.06.2018 16:56 23,4 °C 58 % 1010,3 hPa 0,0 mm 0,3 km/h (0 Bft) O-NO 65 ° 0 min 0,000 mm 2,4 UV-I 190 W/m² 14,7 °C 23,4 °C 1,6 km/h (1 Bft)
30.06.2018 16:57 23,6 °C 59 % 1010,3 hPa 0,0 mm 0,9 km/h (0 Bft) NO 51 ° 0 min 0,000 mm 2,4 UV-I 190 W/m² 15,1 °C 23,6 °C 3,2 km/h (1 Bft)
30.06.2018 16:58 23,6 °C 59 % 1010,3 hPa 0,0 mm 2,5 km/h (1 Bft) O-NO 67 ° 0 min 0,000 mm 2,4 UV-I 172 W/m² 15,1 °C 23,6 °C 4,8 km/h (1 Bft)
30.06.2018 16:59 23,8 °C 59 % 1010,3 hPa 0,0 mm 5,7 km/h (1 Bft) O-NO 59 ° 0 min 0,000 mm 2,3 UV-I 160 W/m² 15,3 °C 23,8 °C 8,0 km/h (2 Bft)
30.06.2018 17:00 23,8 °C 58 % 1010,3 hPa 0,0 mm 7,2 km/h (2 Bft) O 96 ° 0 min 0,000 mm 2,3 UV-I 153 W/m² 15,0 °C 23,8 °C 9,7 km/h (2 Bft)
30.06.2018 17:01 23,8 °C 58 % 1010,3 hPa 0,0 mm 7,2 km/h (2 Bft) NO 50 ° 0 min 0,178 mm 2,3 UV-I 149 W/m² 15,0 °C 23,8 °C 11,3 km/h (2 Bft)
30.06.2018 17:02 23,7 °C 59 % 1010,3 hPa 0,0 mm 4,5 km/h (1 Bft) NO 47 ° 0 min 0,000 mm 2,3 UV-I 156 W/m² 15,2 °C 23,7 °C 6,4 km/h (2 Bft)
30.06.2018 17:03 23,7 °C 58 % 1010,3 hPa 0,0 mm 2,1 km/h (1 Bft) NO 46 ° 0 min 0,000 mm 2,3 UV-I 167 W/m² 14,9 °C 23,7 °C 3,2 km/h (1 Bft)
30.06.2018 17:04 23,7 °C 57 % 1010,2 hPa 0,0 mm 4,6 km/h (1 Bft) O-NO 70 ° 0 min 0,000 mm 2,4 UV-I 167 W/m² 14,7 °C 23,7 °C 6,4 km/h (2 Bft)
30.06.2018 17:05 23,6 °C 59 % 1010,3 hPa 0,0 mm 1,3 km/h (1 Bft) O-NO 70 ° 0 min 0,000 mm 2,3 UV-I 149 W/m² 15,1 °C 23,6 °C 3,2 km/h (1 Bft)
30.06.2018 17:06 23,7 °C 59 % 1010,3 hPa 0,0 mm 5,7 km/h (1 Bft) N 9 ° 0 min 0,000 mm 2,3 UV-I 149 W/m² 15,2 °C 23,7 °C 9,7 km/h (2 Bft)
30.06.2018 17:07 23,8 °C 60 % 1010,3 hPa 0,0 mm 2,9 km/h (1 Bft) N 5 ° 0 min 0,000 mm 2,3 UV-I 146 W/m² 15,6 °C 23,8 °C 6,4 km/h (2 Bft)
30.06.2018 17:08 23,8 °C 59 % 1010,3 hPa 0,0 mm 5,2 km/h (1 Bft) O-SO 106 ° 0 min 0,000 mm 2,2 UV-I 142 W/m² 15,3 °C 23,8 °C 9,7 km/h (2 Bft)
30.06.2018 17:09 23,8 °C 59 % 1010,3 hPa 0,0 mm 3,0 km/h (1 Bft) NO 42 ° 0 min 0,000 mm 2,2 UV-I 144 W/m² 15,3 °C 23,8 °C 6,4 km/h (2 Bft)
30.06.2018 17:10 23,8 °C 60 % 1010,3 hPa 0,0 mm 3,6 km/h (1 Bft) NO 46 ° 0 min 0,000 mm 2,1 UV-I 141 W/m² 15,6 °C 23,8 °C 8,0 km/h (2 Bft)
30.06.2018 17:11 23,8 °C 57 % 1010,3 hPa 0,0 mm 4,5 km/h (1 Bft) NO 47 ° 0 min 0,000 mm 2,1 UV-I 141 W/m² 14,8 °C 23,8 °C 6,4 km/h (2 Bft)
30.06.2018 17:12 23,8 °C 57 % 1010,3 hPa 0,0 mm 4,3 km/h (1 Bft) O-SO 107 ° 0 min 0,000 mm 2,1 UV-I 160 W/m² 14,8 °C 23,8 °C 9,7 km/h (2 Bft)
30.06.2018 17:13 23,8 °C 59 % 1010,4 hPa 0,0 mm 7,0 km/h (2 Bft) O-SO 119 ° 0 min 0,000 mm 2,1 UV-I 183 W/m² 15,3 °C 23,8 °C 11,3 km/h (2 Bft)
30.06.2018 17:14 23,6 °C 59 % 1010,4 hPa 0,0 mm 3,2 km/h (1 Bft) O 87 ° 0 min 0,000 mm 2,1 UV-I 200 W/m² 15,1 °C 23,6 °C 4,8 km/h (1 Bft)
30.06.2018 17:15 23,4 °C 58 % 1010,4 hPa 0,0 mm 4,2 km/h (1 Bft) O 89 ° 0 min 0,000 mm 2,1 UV-I 209 W/m² 14,7 °C 23,4 °C 11,3 km/h (2 Bft)
30.06.2018 17:16 23,4 °C 60 % 1010,4 hPa 0,0 mm 3,6 km/h (1 Bft) O-NO 72 ° 0 min 0,000 mm 1,9 UV-I 213 W/m² 15,2 °C 23,4 °C 14,5 km/h (3 Bft)
30.06.2018 17:17 23,4 °C 60 % 1010,4 hPa 0,0 mm 5,8 km/h (2 Bft) O-SO 107 ° 0 min 0,000 mm 1,9 UV-I 209 W/m² 15,2 °C 23,4 °C 9,7 km/h (2 Bft)
30.06.2018 17:18 23,4 °C 58 % 1010,4 hPa 0,0 mm 6,6 km/h (2 Bft) O-NO 63 ° 0 min 0,000 mm 1,8 UV-I 214 W/m² 14,7 °C 23,4 °C 9,7 km/h (2 Bft)
30.06.2018 17:19 23,4 °C 60 % 1010,4 hPa 0,0 mm 5,3 km/h (1 Bft) O-NO 65 ° 0 min 0,000 mm 1,8 UV-I 213 W/m² 15,2 °C 23,4 °C 8,0 km/h (2 Bft)
30.06.2018 17:20 23,4 °C 58 % 1010,4 hPa 0,0 mm 4,6 km/h (1 Bft) O 92 ° 0 min 0,000 mm 1,8 UV-I 216 W/m² 14,7 °C 23,4 °C 8,0 km/h (2 Bft)
30.06.2018 17:21 23,4 °C 59 % 1010,4 hPa 0,0 mm 8,4 km/h (2 Bft) O 84 ° 0 min 0,000 mm 1,8 UV-I 213 W/m² 14,9 °C 23,4 °C 11,3 km/h (2 Bft)
30.06.2018 17:22 23,4 °C 60 % 1010,4 hPa 0,0 mm 6,2 km/h (2 Bft) O-NO 64 ° 0 min 0,000 mm 1,8 UV-I 204 W/m² 15,2 °C 23,4 °C 8,0 km/h (2 Bft)
30.06.2018 17:23 23,4 °C 60 % 1010,4 hPa 0,0 mm 7,2 km/h (2 Bft) O-NO 71 ° 0 min 0,000 mm 1,7 UV-I 199 W/m² 15,2 °C 23,4 °C 8,0 km/h (2 Bft)
30.06.2018 17:24 23,4 °C 60 % 1010,4 hPa 0,0 mm 7,5 km/h (2 Bft) NO 53 ° 0 min 0,000 mm 1,8 UV-I 202 W/m² 15,2 °C 23,4 °C 9,7 km/h (2 Bft)
30.06.2018 17:25 23,3 °C 59 % 1010,4 hPa 0,0 mm 5,7 km/h (1 Bft) NO 38 ° 0 min 0,000 mm 1,8 UV-I 204 W/m² 14,8 °C 23,3 °C 8,0 km/h (2 Bft)
30.06.2018 17:26 23,3 °C 60 % 1010,4 hPa 0,0 mm 5,8 km/h (2 Bft) O-NO 57 ° 0 min 0,000 mm 1,8 UV-I 200 W/m² 15,1 °C 23,3 °C 9,7 km/h (2 Bft)
30.06.2018 17:27 23,3 °C 60 % 1010,4 hPa 0,0 mm 5,5 km/h (1 Bft) N-NO 15 ° 0 min 0,000 mm 1,8 UV-I 195 W/m² 15,1 °C 23,3 °C 8,0 km/h (2 Bft)
30.06.2018 17:28 23,3 °C 61 % 1010,4 hPa 0,0 mm 4,2 km/h (1 Bft) NO 38 ° 0 min 0,000 mm 1,8 UV-I 197 W/m² 15,3 °C 23,3 °C 8,0 km/h (2 Bft)
30.06.2018 17:29 23,3 °C 60 % 1010,4 hPa 0,0 mm 1,0 km/h (0 Bft) NO 37 ° 0 min 0,000 mm 1,9 UV-I 206 W/m² 15,1 °C 23,3 °C 1,6 km/h (1 Bft)
30.06.2018 17:30 23,3 °C 61 % 1010,4 hPa 0,0 mm 3,3 km/h (1 Bft) O-NO 61 ° 0 min 0,000 mm 1,8 UV-I 207 W/m² 15,3 °C 23,3 °C 6,4 km/h (2 Bft)
30.06.2018 17:31 23,4 °C 63 % 1010,5 hPa 0,0 mm 3,9 km/h (1 Bft) O-NO 57 ° 0 min 0,000 mm 1,8 UV-I 202 W/m² 15,9 °C 23,4 °C 6,4 km/h (2 Bft)
30.06.2018 17:32 23,4 °C 60 % 1010,5 hPa 0,0 mm 9,4 km/h (2 Bft) N 350 ° 0 min 0,000 mm 1,7 UV-I 197 W/m² 15,2 °C 23,4 °C 14,5 km/h (3 Bft)
30.06.2018 17:33 23,4 °C 60 % 1010,5 hPa 0,0 mm 3,2 km/h (1 Bft) NO 45 ° 0 min 0,000 mm 1,7 UV-I 188 W/m² 15,2 °C 23,4 °C 6,4 km/h (2 Bft)
30.06.2018 17:34 23,4 °C 60 % 1010,4 hPa 0,0 mm 2,3 km/h (1 Bft) N-NO 32 ° 0 min 0,000 mm 1,6 UV-I 171 W/m² 15,2 °C 23,4 °C 3,2 km/h (1 Bft)
30.06.2018 17:35 23,4 °C 60 % 1010,4 hPa 0,0 mm 3,4 km/h (1 Bft) N-NO 32 ° 0 min 0,000 mm 1,6 UV-I 160 W/m² 15,2 °C 23,4 °C 8,0 km/h (2 Bft)
30.06.2018 17:36 23,4 °C 61 % 1010,4 hPa 0,0 mm 3,4 km/h (1 Bft) NO 47 ° 0 min 0,000 mm 1,6 UV-I 155 W/m² 15,4 °C 23,4 °C 6,4 km/h (2 Bft)
30.06.2018 17:37 23,3 °C 62 % 1010,4 hPa 0,0 mm 3,2 km/h (1 Bft) O 90 ° 0 min 0,000 mm 1,6 UV-I 156 W/m² 15,6 °C 23,3 °C 6,4 km/h (2 Bft)
30.06.2018 17:38 23,3 °C 61 % 1010,5 hPa 0,0 mm 5,3 km/h (1 Bft) O-NO 61 ° 0 min 0,000 mm 1,6 UV-I 156 W/m² 15,3 °C 23,3 °C 12,9 km/h (3 Bft)
30.06.2018 17:39 23,2 °C 60 % 1010,5 hPa 0,0 mm 2,6 km/h (1 Bft) O 83 ° 0 min 0,000 mm 1,6 UV-I 153 W/m² 15,0 °C 23,2 °C 6,4 km/h (2 Bft)
30.06.2018 17:40 23,1 °C 61 % 1010,4 hPa 0,0 mm 1,2 km/h (1 Bft) O 83 ° 0 min 0,000 mm 1,6 UV-I 148 W/m² 15,2 °C 23,1 °C 3,2 km/h (1 Bft)
30.06.2018 17:41 22,9 °C 64 % 1010,5 hPa 0,0 mm 2,1 km/h (1 Bft) NO 40 ° 0 min 0,000 mm 1,5 UV-I 149 W/m² 15,7 °C 22,9 °C 6,4 km/h (2 Bft)
30.06.2018 17:42 22,9 °C 61 % 1010,5 hPa 0,0 mm 3,9 km/h (1 Bft) O-SO 105 ° 0 min 0,000 mm 1,5 UV-I 158 W/m² 15,0 °C 22,9 °C 6,4 km/h (2 Bft)
30.06.2018 17:43 22,8 °C 60 % 1010,4 hPa 0,0 mm 2,4 km/h (1 Bft) O-NO 65 ° 0 min 0,000 mm 1,5 UV-I 165 W/m² 14,6 °C 22,8 °C 3,2 km/h (1 Bft)
30.06.2018 17:44 22,8 °C 60 % 1010,4 hPa 0,0 mm 2,2 km/h (1 Bft) O-NO 76 ° 0 min 0,000 mm 1,5 UV-I 174 W/m² 14,6 °C 22,8 °C 3,2 km/h (1 Bft)
30.06.2018 17:45 22,8 °C 63 % 1010,5 hPa 0,0 mm 2,0 km/h (1 Bft) NO 55 ° 0 min 0,000 mm 1,5 UV-I 172 W/m² 15,4 °C 22,8 °C 4,8 km/h (1 Bft)
30.06.2018 17:46 22,8 °C 61 % 1010,4 hPa 0,0 mm 5,8 km/h (2 Bft) O-NO 61 ° 0 min 0,000 mm 1,5 UV-I 167 W/m² 14,9 °C 22,8 °C 9,7 km/h (2 Bft)
30.06.2018 17:47 22,9 °C 62 % 1010,4 hPa 0,0 mm 4,4 km/h (1 Bft) O-NO 65 ° 0 min 0,000 mm 1,4 UV-I 167 W/m² 15,2 °C 22,9 °C 8,0 km/h (2 Bft)
30.06.2018 17:48 22,9 °C 60 % 1010,5 hPa 0,0 mm 5,0 km/h (1 Bft) O-NO 67 ° 0 min 0,000 mm 1,4 UV-I 167 W/m² 14,7 °C 22,9 °C 6,4 km/h (2 Bft)
30.06.2018 17:49 22,9 °C 62 % 1010,4 hPa 0,0 mm 3,0 km/h (1 Bft) O-NO 63 ° 0 min 0,000 mm 1,4 UV-I 163 W/m² 15,2 °C 22,9 °C 4,8 km/h (1 Bft)
30.06.2018 17:50 22,9 °C 65 % 1010,5 hPa 0,0 mm 3,0 km/h (1 Bft) O 101 ° 0 min 0,000 mm 1,4 UV-I 163 W/m² 16,0 °C 22,9 °C 9,7 km/h (2 Bft)
30.06.2018 17:51 22,8 °C 61 % 1010,5 hPa 0,0 mm 7,8 km/h (2 Bft) N-NO 31 ° 0 min 0,000 mm 1,4 UV-I 169 W/m² 14,9 °C 22,8 °C 14,5 km/h (3 Bft)
30.06.2018 17:52 22,8 °C 59 % 1010,5 hPa 0,0 mm 10,1 km/h (2 Bft) NO 44 ° 0 min 0,000 mm 1,4 UV-I 178 W/m² 14,4 °C 22,8 °C 16,1 km/h (3 Bft)
30.06.2018 17:53 22,9 °C 59 % 1010,5 hPa 0,0 mm 8,6 km/h (2 Bft) NO 46 ° 0 min 0,000 mm 1,5 UV-I 183 W/m² 14,5 °C 22,9 °C 14,5 km/h (3 Bft)
30.06.2018 17:54 22,9 °C 59 % 1010,4 hPa 0,0 mm 7,5 km/h (2 Bft) O-NO 70 ° 0 min 0,000 mm 1,5 UV-I 183 W/m² 14,5 °C 22,9 °C 9,7 km/h (2 Bft)
30.06.2018 17:55 23,0 °C 60 % 1010,4 hPa 0,0 mm 6,8 km/h (2 Bft) NO 51 ° 0 min 0,000 mm 1,5 UV-I 176 W/m² 14,8 °C 23,0 °C 11,3 km/h (2 Bft)
30.06.2018 17:56 23,0 °C 59 % 1010,5 hPa 0,0 mm 9,2 km/h (2 Bft) NO 34 ° 0 min 0,000 mm 1,5 UV-I 171 W/m² 14,5 °C 23,0 °C 17,7 km/h (3 Bft)
30.06.2018 17:57 23,0 °C 59 % 1010,5 hPa 0,0 mm 6,5 km/h (2 Bft) NO 55 ° 0 min 0,000 mm 1,4 UV-I 167 W/m² 14,5 °C 23,0 °C 11,3 km/h (2 Bft)
30.06.2018 17:58 22,9 °C 59 % 1010,4 hPa 0,0 mm 6,7 km/h (2 Bft) O-NO 64 ° 0 min 0,000 mm 1,4 UV-I 156 W/m² 14,5 °C 22,9 °C 9,7 km/h (2 Bft)
30.06.2018 17:59 22,9 °C 59 % 1010,4 hPa 0,0 mm 3,3 km/h (1 Bft) O-SO 105 ° 0 min 0,000 mm 1,4 UV-I 156 W/m² 14,5 °C 22,9 °C 6,4 km/h (2 Bft)
30.06.2018 18:00 22,9 °C 60 % 1010,5 hPa 0,0 mm 5,8 km/h (2 Bft) O-NO 70 ° 0 min 0,000 mm 1,5 UV-I 160 W/m² 14,7 °C 22,9 °C 8,0 km/h (2 Bft)
30.06.2018 18:01 22,8 °C 60 % 1010,4 hPa 0,0 mm 3,7 km/h (1 Bft) O-SO 107 ° 0 min 0,153 mm 1,5 UV-I 165 W/m² 14,6 °C 22,8 °C 8,0 km/h (2 Bft)
30.06.2018 18:02 22,8 °C 60 % 1010,5 hPa 0,0 mm 8,0 km/h (2 Bft) O-NO 73 ° 0 min 0,000 mm 1,5 UV-I 167 W/m² 14,6 °C 22,8 °C 11,3 km/h (2 Bft)
30.06.2018 18:03 22,8 °C 59 % 1010,5 hPa 0,0 mm 8,0 km/h (2 Bft) N-NO 26 ° 0 min 0,000 mm 1,5 UV-I 155 W/m² 14,4 °C 22,8 °C 11,3 km/h (2 Bft)
30.06.2018 18:04 22,8 °C 60 % 1010,5 hPa 0,0 mm 6,1 km/h (2 Bft) O-NO 71 ° 0 min 0,000 mm 1,4 UV-I 132 W/m² 14,6 °C 22,8 °C 8,0 km/h (2 Bft)
30.06.2018 18:05 22,8 °C 60 % 1010,5 hPa 0,0 mm 4,0 km/h (1 Bft) NO 51 ° 0 min 0,000 mm 1,4 UV-I 127 W/m² 14,6 °C 22,8 °C 6,4 km/h (2 Bft)
30.06.2018 18:06 22,9 °C 60 % 1010,4 hPa 0,0 mm 4,8 km/h (1 Bft) O-SO 115 ° 0 min 0,000 mm 1,3 UV-I 130 W/m² 14,7 °C 22,9 °C 9,7 km/h (2 Bft)
30.06.2018 18:07 22,8 °C 61 % 1010,5 hPa 0,0 mm 3,7 km/h (1 Bft) NO 55 ° 0 min 0,000 mm 1,4 UV-I 137 W/m² 14,9 °C 22,8 °C 6,4 km/h (2 Bft)
30.06.2018 18:08 22,8 °C 61 % 1010,4 hPa 0,0 mm 2,5 km/h (1 Bft) NO 49 ° 0 min 0,000 mm 1,4 UV-I 142 W/m² 14,9 °C 22,8 °C 4,8 km/h (1 Bft)
30.06.2018 18:09 22,8 °C 61 % 1010,5 hPa 0,0 mm 4,8 km/h (1 Bft) NO 48 ° 0 min 0,000 mm 1,4 UV-I 142 W/m² 14,9 °C 22,8 °C 8,0 km/h (2 Bft)
30.06.2018 18:10 22,8 °C 61 % 1010,5 hPa 0,0 mm 4,2 km/h (1 Bft) NO 49 ° 0 min 0,000 mm 1,3 UV-I 142 W/m² 14,9 °C 22,8 °C 6,4 km/h (2 Bft)
30.06.2018 18:11 22,8 °C 61 % 1010,6 hPa 0,0 mm 1,4 km/h (1 Bft) NO 49 ° 0 min 0,000 mm 1,3 UV-I 142 W/m² 14,9 °C 22,8 °C 4,8 km/h (1 Bft)
30.06.2018 18:12 22,7 °C 63 % 1010,5 hPa 0,0 mm 0,2 km/h (0 Bft) NO 49 ° 0 min 0,000 mm 1,3 UV-I 139 W/m² 15,3 °C 22,7 °C 1,6 km/h (1 Bft)
30.06.2018 18:13 22,7 °C 64 % 1010,5 hPa 0,0 mm 1,1 km/h (1 Bft) NO 49 ° 0 min 0,000 mm 1,3 UV-I 141 W/m² 15,5 °C 22,7 °C 3,2 km/h (1 Bft)
30.06.2018 18:14 22,6 °C 63 % 1010,5 hPa 0,0 mm 0,0 km/h (0 Bft) NO 49 ° 0 min 0,000 mm 1,3 UV-I 148 W/m² 15,2 °C 22,6 °C 0,0 km/h (0 Bft)
30.06.2018 18:15 22,6 °C 63 % 1010,5 hPa 0,0 mm 0,5 km/h (0 Bft) NO 53 ° 0 min 0,000 mm 1,3 UV-I 146 W/m² 15,2 °C 22,6 °C 4,8 km/h (1 Bft)
30.06.2018 18:16 22,6 °C 64 % 1010,5 hPa 0,0 mm 5,9 km/h (2 Bft) O-NO 76 ° 0 min 0,000 mm 1,3 UV-I 139 W/m² 15,4 °C 22,6 °C 11,3 km/h (2 Bft)
30.06.2018 18:17 22,6 °C 61 % 1010,5 hPa 0,0 mm 7,4 km/h (2 Bft) NO 43 ° 0 min 0,000 mm 1,2 UV-I 134 W/m² 14,7 °C 22,6 °C 9,7 km/h (2 Bft)
30.06.2018 18:18 22,7 °C 60 % 1010,5 hPa 0,0 mm 6,5 km/h (2 Bft) O-NO 68 ° 0 min 0,000 mm 1,2 UV-I 132 W/m² 14,5 °C 22,7 °C 9,7 km/h (2 Bft)
30.06.2018 18:19 22,7 °C 60 % 1010,5 hPa 0,0 mm 7,6 km/h (2 Bft) O-NO 67 ° 0 min 0,000 mm 1,2 UV-I 132 W/m² 14,5 °C 22,7 °C 12,9 km/h (3 Bft)
30.06.2018 18:20 22,7 °C 61 % 1010,5 hPa 0,0 mm 4,9 km/h (1 Bft) N 5 ° 0 min 0,000 mm 1,2 UV-I 142 W/m² 14,8 °C 22,7 °C 8,0 km/h (2 Bft)
30.06.2018 18:21 22,7 °C 61 % 1010,5 hPa 0,0 mm 4,5 km/h (1 Bft) N-NO 14 ° 0 min 0,000 mm 1,2 UV-I 149 W/m² 14,8 °C 22,7 °C 8,0 km/h (2 Bft)
30.06.2018 18:22 22,7 °C 61 % 1010,5 hPa 0,0 mm 3,6 km/h (1 Bft) NO 44 ° 0 min 0,000 mm 1,2 UV-I 148 W/m² 14,8 °C 22,7 °C 4,8 km/h (1 Bft)
30.06.2018 18:23 22,7 °C 59 % 1010,5 hPa 0,0 mm 3,6 km/h (1 Bft) NO 50 ° 0 min 0,000 mm 1,2 UV-I 142 W/m² 14,3 °C 22,7 °C 4,8 km/h (1 Bft)
30.06.2018 18:24 22,7 °C 62 % 1010,5 hPa 0,0 mm 4,3 km/h (1 Bft) O-NO 58 ° 0 min 0,000 mm 1,2 UV-I 134 W/m² 15,0 °C 22,7 °C 8,0 km/h (2 Bft)
30.06.2018 18:25 22,7 °C 61 % 1010,4 hPa 0,0 mm 2,9 km/h (1 Bft) NO 47 ° 0 min 0,000 mm 1,1 UV-I 128 W/m² 14,8 °C 22,7 °C 8,0 km/h (2 Bft)
30.06.2018 18:26 22,7 °C 60 % 1010,4 hPa 0,0 mm 6,2 km/h (2 Bft) NO 34 ° 0 min 0,000 mm 1,1 UV-I 127 W/m² 14,5 °C 22,7 °C 11,3 km/h (2 Bft)
30.06.2018 18:27 22,8 °C 60 % 1010,4 hPa 0,0 mm 1,3 km/h (1 Bft) NO 34 ° 0 min 0,000 mm 1,1 UV-I 135 W/m² 14,6 °C 22,8 °C 3,2 km/h (1 Bft)
30.06.2018 18:28 22,8 °C 62 % 1010,4 hPa 0,0 mm 2,1 km/h (1 Bft) NO 34 ° 0 min 0,000 mm 1,1 UV-I 130 W/m² 15,1 °C 22,8 °C 4,8 km/h (1 Bft)
30.06.2018 18:29 22,8 °C 60 % 1010,5 hPa 0,0 mm 2,4 km/h (1 Bft) NO 34 ° 0 min 0,000 mm 1,1 UV-I 134 W/m² 14,6 °C 22,8 °C 4,8 km/h (1 Bft)
30.06.2018 18:30 22,8 °C 61 % 1010,4 hPa 0,0 mm 1,8 km/h (1 Bft) NO 34 ° 0 min 0,000 mm 1,1 UV-I 135 W/m² 14,9 °C 22,8 °C 4,8 km/h (1 Bft)
30.06.2018 18:31 22,8 °C 62 % 1010,4 hPa 0,0 mm 1,9 km/h (1 Bft) NO 34 ° 0 min 0,000 mm 1,1 UV-I 135 W/m² 15,1 °C 22,8 °C 3,2 km/h (1 Bft)
30.06.2018 18:32 22,8 °C 60 % 1010,4 hPa 0,0 mm 1,4 km/h (1 Bft) NO 34 ° 0 min 0,000 mm 1,1 UV-I 135 W/m² 14,6 °C 22,8 °C 3,2 km/h (1 Bft)
30.06.2018 18:33 22,8 °C 60 % 1010,5 hPa 0,0 mm 4,2 km/h (1 Bft) NO 54 ° 0 min 0,000 mm 1,1 UV-I 144 W/m² 14,6 °C 22,8 °C 6,4 km/h (2 Bft)
30.06.2018 18:34 22,8 °C 60 % 1010,5 hPa 0,0 mm 5,5 km/h (1 Bft) O-NO 63 ° 0 min 0,000 mm 1,1 UV-I 146 W/m² 14,6 °C 22,8 °C 8,0 km/h (2 Bft)
30.06.2018 18:35 22,7 °C 60 % 1010,5 hPa 0,0 mm 4,7 km/h (1 Bft) NO 52 ° 0 min 0,000 mm 1,1 UV-I 148 W/m² 14,5 °C 22,7 °C 8,0 km/h (2 Bft)
30.06.2018 18:36 22,7 °C 62 % 1010,5 hPa 0,0 mm 1,2 km/h (1 Bft) O-NO 58 ° 0 min 0,000 mm 1,1 UV-I 148 W/m² 15,0 °C 22,7 °C 3,2 km/h (1 Bft)
30.06.2018 18:37 22,7 °C 61 % 1010,5 hPa 0,0 mm 5,9 km/h (2 Bft) O-NO 58 ° 0 min 0,000 mm 1,1 UV-I 149 W/m² 14,8 °C 22,7 °C 12,9 km/h (3 Bft)
30.06.2018 18:38 22,6 °C 62 % 1010,5 hPa 0,0 mm 3,0 km/h (1 Bft) O-NO 64 ° 0 min 0,000 mm 1,1 UV-I 155 W/m² 14,9 °C 22,6 °C 6,4 km/h (2 Bft)
30.06.2018 18:39 22,6 °C 63 % 1010,5 hPa 0,0 mm 4,1 km/h (1 Bft) N 9 ° 0 min 0,000 mm 1,1 UV-I 171 W/m² 15,2 °C 22,6 °C 6,4 km/h (2 Bft)
30.06.2018 18:40 22,6 °C 63 % 1010,5 hPa 0,0 mm 4,2 km/h (1 Bft) O-NO 59 ° 0 min 0,000 mm 1,1 UV-I 162 W/m² 15,2 °C 22,6 °C 8,0 km/h (2 Bft)
30.06.2018 18:41 22,6 °C 62 % 1010,5 hPa 0,0 mm 3,0 km/h (1 Bft) O-NO 63 ° 0 min 0,000 mm 1,2 UV-I 190 W/m² 14,9 °C 22,6 °C 6,4 km/h (2 Bft)
30.06.2018 18:42 22,6 °C 62 % 1010,5 hPa 0,0 mm 6,0 km/h (2 Bft) O-NO 75 ° 0 min 0,000 mm 1,3 UV-I 262 W/m² 14,9 °C 22,6 °C 8,0 km/h (2 Bft)
30.06.2018 18:43 22,6 °C 64 % 1010,5 hPa 0,0 mm 7,5 km/h (2 Bft) NO 42 ° 0 min 0,000 mm 1,3 UV-I 295 W/m² 15,4 °C 22,6 °C 11,3 km/h (2 Bft)
30.06.2018 18:44 22,6 °C 63 % 1010,5 hPa 0,0 mm 6,6 km/h (2 Bft) N-NO 30 ° 0 min 0,000 mm 1,3 UV-I 380 W/m² 15,2 °C 22,6 °C 12,9 km/h (3 Bft)
30.06.2018 18:45 22,6 °C 63 % 1010,5 hPa 0,0 mm 4,3 km/h (1 Bft) NO 36 ° 0 min 0,000 mm 1,3 UV-I 163 W/m² 15,2 °C 22,6 °C 8,0 km/h (2 Bft)
30.06.2018 18:46 22,6 °C 63 % 1010,5 hPa 0,0 mm 6,4 km/h (2 Bft) O-NO 59 ° 0 min 0,000 mm 1,2 UV-I 142 W/m² 15,2 °C 22,6 °C 8,0 km/h (2 Bft)
30.06.2018 18:47 22,5 °C 63 % 1010,5 hPa 0,0 mm 2,9 km/h (1 Bft) O-NO 59 ° 0 min 0,000 mm 1,2 UV-I 141 W/m² 15,1 °C 22,5 °C 4,8 km/h (1 Bft)
30.06.2018 18:48 22,4 °C 64 % 1010,4 hPa 0,0 mm 5,3 km/h (1 Bft) O-NO 75 ° 0 min 0,000 mm 1,3 UV-I 141 W/m² 15,2 °C 22,4 °C 8,0 km/h (2 Bft)
30.06.2018 18:49 22,4 °C 64 % 1010,5 hPa 0,0 mm 5,4 km/h (1 Bft) O-NO 76 ° 0 min 0,000 mm 1,2 UV-I 292 W/m² 15,2 °C 22,4 °C 9,7 km/h (2 Bft)
30.06.2018 18:50 22,4 °C 65 % 1010,5 hPa 0,0 mm 5,3 km/h (1 Bft) O-NO 60 ° 0 min 0,000 mm 1,2 UV-I 172 W/m² 15,5 °C 22,4 °C 6,4 km/h (2 Bft)
30.06.2018 18:51 22,4 °C 63 % 1010,5 hPa 0,0 mm 3,5 km/h (1 Bft) NO 53 ° 0 min 0,000 mm 1,2 UV-I 172 W/m² 15,0 °C 22,4 °C 8,0 km/h (2 Bft)
30.06.2018 18:52 22,4 °C 64 % 1010,4 hPa 0,0 mm 2,6 km/h (1 Bft) NO 52 ° 0 min 0,000 mm 1,2 UV-I 244 W/m² 15,2 °C 22,4 °C 4,8 km/h (1 Bft)
30.06.2018 18:53 22,4 °C 64 % 1010,4 hPa 0,0 mm 7,2 km/h (2 Bft) O 86 ° 0 min 0,000 mm 1,2 UV-I 223 W/m² 15,2 °C 22,4 °C 11,3 km/h (2 Bft)
30.06.2018 18:54 22,4 °C 64 % 1010,4 hPa 0,0 mm 6,2 km/h (2 Bft) O-NO 65 ° 0 min 0,000 mm 1,2 UV-I 223 W/m² 15,2 °C 22,4 °C 12,9 km/h (3 Bft)
30.06.2018 18:55 22,4 °C 64 % 1010,4 hPa 0,0 mm 7,5 km/h (2 Bft) NO 54 ° 0 min 0,000 mm 1,2 UV-I 295 W/m² 15,2 °C 22,4 °C 12,9 km/h (3 Bft)
30.06.2018 18:56 22,4 °C 64 % 1010,4 hPa 0,0 mm 6,1 km/h (2 Bft) O 90 ° 0 min 0,000 mm 1,2 UV-I 299 W/m² 15,2 °C 22,4 °C 11,3 km/h (2 Bft)
30.06.2018 18:57 22,5 °C 65 % 1010,4 hPa 0,0 mm 5,5 km/h (1 Bft) NO 45 ° 0 min 0,000 mm 1,2 UV-I 299 W/m² 15,6 °C 22,5 °C 9,7 km/h (2 Bft)
30.06.2018 18:58 22,5 °C 64 % 1010,5 hPa 0,0 mm 7,3 km/h (2 Bft) O-NO 73 ° 0 min 0,000 mm 1,2 UV-I 295 W/m² 15,3 °C 22,5 °C 11,3 km/h (2 Bft)
30.06.2018 18:59 22,6 °C 63 % 1010,4 hPa 0,0 mm 5,8 km/h (2 Bft) O 81 ° 0 min 0,000 mm 1,2 UV-I 294 W/m² 15,2 °C 22,6 °C 14,5 km/h (3 Bft)
30.06.2018 19:00 22,5 °C 65 % 1010,4 hPa 0,0 mm 5,3 km/h (1 Bft) NO 38 ° 0 min 0,000 mm 1,2 UV-I 290 W/m² 15,6 °C 22,5 °C 9,7 km/h (2 Bft)
30.06.2018 19:01 22,5 °C 64 % 1010,4 hPa 0,0 mm 3,5 km/h (1 Bft) O-NO 57 ° 0 min 0,127 mm 1,1 UV-I 287 W/m² 15,3 °C 22,5 °C 4,8 km/h (1 Bft)
30.06.2018 19:02 22,5 °C 63 % 1010,4 hPa 0,0 mm 5,7 km/h (1 Bft) NO 46 ° 0 min 0,000 mm 1,1 UV-I 279 W/m² 15,1 °C 22,5 °C 11,3 km/h (2 Bft)
30.06.2018 19:03 22,6 °C 63 % 1010,4 hPa 0,0 mm 9,3 km/h (2 Bft) O-NO 68 ° 0 min 0,000 mm 1,1 UV-I 283 W/m² 15,2 °C 22,6 °C 9,7 km/h (2 Bft)
30.06.2018 19:04 22,6 °C 62 % 1010,4 hPa 0,0 mm 6,2 km/h (2 Bft) O-NO 57 ° 0 min 0,000 mm 1,1 UV-I 287 W/m² 14,9 °C 22,6 °C 11,3 km/h (2 Bft)
30.06.2018 19:05 22,6 °C 63 % 1010,4 hPa 0,0 mm 1,3 km/h (1 Bft) O-NO 57 ° 0 min 0,000 mm 1,0 UV-I 294 W/m² 15,2 °C 22,6 °C 4,8 km/h (1 Bft)
30.06.2018 19:06 22,6 °C 63 % 1010,4 hPa 0,0 mm 0,5 km/h (0 Bft) O-NO 60 ° 0 min 0,000 mm 1,0 UV-I 295 W/m² 15,2 °C 22,6 °C 3,2 km/h (1 Bft)
30.06.2018 19:07 22,6 °C 63 % 1010,4 hPa 0,0 mm 0,6 km/h (0 Bft) O-NO 60 ° 0 min 0,000 mm 1,0 UV-I 299 W/m² 15,2 °C 22,6 °C 1,6 km/h (1 Bft)
30.06.2018 19:08 22,6 °C 64 % 1010,4 hPa 0,0 mm 4,6 km/h (1 Bft) NO 46 ° 0 min 0,000 mm 1,0 UV-I 299 W/m² 15,4 °C 22,6 °C 8,0 km/h (2 Bft)
30.06.2018 19:09 22,7 °C 63 % 1010,4 hPa 0,0 mm 2,7 km/h (1 Bft) NO 47 ° 0 min 0,000 mm 0,9 UV-I 295 W/m² 15,3 °C 22,7 °C 4,8 km/h (1 Bft)
30.06.2018 19:10 22,7 °C 64 % 1010,4 hPa 0,0 mm 1,5 km/h (1 Bft) O 80 ° 0 min 0,000 mm 0,9 UV-I 294 W/m² 15,5 °C 22,7 °C 4,8 km/h (1 Bft)
30.06.2018 19:11 22,7 °C 63 % 1010,4 hPa 0,0 mm 3,9 km/h (1 Bft) O 94 ° 0 min 0,000 mm 0,9 UV-I 292 W/m² 15,3 °C 22,7 °C 6,4 km/h (2 Bft)
30.06.2018 19:12 22,7 °C 62 % 1010,5 hPa 0,0 mm 5,0 km/h (1 Bft) NO 54 ° 0 min 0,000 mm 0,9 UV-I 292 W/m² 15,0 °C 22,7 °C 8,0 km/h (2 Bft)
30.06.2018 19:13 22,7 °C 62 % 1010,5 hPa 0,0 mm 3,3 km/h (1 Bft) O-NO 73 ° 0 min 0,000 mm 0,9 UV-I 292 W/m² 15,0 °C 22,7 °C 6,4 km/h (2 Bft)
30.06.2018 19:14 22,7 °C 63 % 1010,4 hPa 0,0 mm 5,6 km/h (1 Bft) O-NO 65 ° 0 min 0,000 mm 0,9 UV-I 294 W/m² 15,3 °C 22,7 °C 9,7 km/h (2 Bft)
30.06.2018 19:15 22,7 °C 61 % 1010,5 hPa 0,0 mm 4,2 km/h (1 Bft) O-NO 61 ° 0 min 0,000 mm 0,8 UV-I 294 W/m² 14,8 °C 22,7 °C 6,4 km/h (2 Bft)
30.06.2018 19:16 22,7 °C 62 % 1010,4 hPa 0,0 mm 2,9 km/h (1 Bft) O-NO 61 ° 0 min 0,000 mm 0,8 UV-I 294 W/m² 15,0 °C 22,7 °C 4,8 km/h (1 Bft)
30.06.2018 19:17 22,7 °C 61 % 1010,4 hPa 0,0 mm 4,0 km/h (1 Bft) O-NO 71 ° 0 min 0,000 mm 0,8 UV-I 290 W/m² 14,8 °C 22,7 °C 6,4 km/h (2 Bft)
30.06.2018 19:18 22,7 °C 61 % 1010,5 hPa 0,0 mm 6,2 km/h (2 Bft) O-NO 69 ° 0 min 0,000 mm 0,8 UV-I 285 W/m² 14,8 °C 22,7 °C 11,3 km/h (2 Bft)
30.06.2018 19:19 22,7 °C 62 % 1010,4 hPa 0,0 mm 5,2 km/h (1 Bft) NO 51 ° 0 min 0,000 mm 0,7 UV-I 278 W/m² 15,0 °C 22,7 °C 8,0 km/h (2 Bft)
30.06.2018 19:20 22,8 °C 61 % 1010,5 hPa 0,0 mm 3,8 km/h (1 Bft) NO 51 ° 0 min 0,000 mm 0,7 UV-I 269 W/m² 14,9 °C 22,8 °C 6,4 km/h (2 Bft)
30.06.2018 19:21 22,8 °C 63 % 1010,4 hPa 0,0 mm 1,9 km/h (1 Bft) NO 51 ° 0 min 0,000 mm 0,7 UV-I 255 W/m² 15,4 °C 22,8 °C 3,2 km/h (1 Bft)
30.06.2018 19:22 22,8 °C 62 % 1010,4 hPa 0,0 mm 1,1 km/h (1 Bft) NO 51 ° 0 min 0,000 mm 0,6 UV-I 250 W/m² 15,1 °C 22,8 °C 3,2 km/h (1 Bft)
30.06.2018 19:23 22,9 °C 63 % 1010,4 hPa 0,0 mm 2,3 km/h (1 Bft) NO 51 ° 0 min 0,000 mm 0,6 UV-I 241 W/m² 15,5 °C 22,9 °C 4,8 km/h (1 Bft)
30.06.2018 19:24 22,9 °C 62 % 1010,4 hPa 0,0 mm 3,1 km/h (1 Bft) O-NO 67 ° 0 min 0,000 mm 0,6 UV-I 241 W/m² 15,2 °C 22,9 °C 11,3 km/h (2 Bft)
30.06.2018 19:25 22,9 °C 61 % 1010,4 hPa 0,0 mm 5,4 km/h (1 Bft) O-NO 66 ° 0 min 0,000 mm 0,6 UV-I 221 W/m² 15,0 °C 22,9 °C 8,0 km/h (2 Bft)
30.06.2018 19:26 22,9 °C 62 % 1010,3 hPa 0,0 mm 5,2 km/h (1 Bft) O 86 ° 0 min 0,000 mm 0,6 UV-I 200 W/m² 15,2 °C 22,9 °C 11,3 km/h (2 Bft)
30.06.2018 19:27 22,9 °C 63 % 1010,4 hPa 0,0 mm 3,5 km/h (1 Bft) O-NO 67 ° 0 min 0,000 mm 0,6 UV-I 146 W/m² 15,5 °C 22,9 °C 8,0 km/h (2 Bft)
30.06.2018 19:28 22,9 °C 62 % 1010,4 hPa 0,0 mm 3,9 km/h (1 Bft) O-NO 66 ° 0 min 0,000 mm 0,6 UV-I 102 W/m² 15,2 °C 22,9 °C 6,4 km/h (2 Bft)
30.06.2018 19:29 22,8 °C 62 % 1010,4 hPa 0,0 mm 5,9 km/h (2 Bft) O-NO 75 ° 0 min 0,000 mm 0,6 UV-I 98 W/m² 15,1 °C 22,8 °C 9,7 km/h (2 Bft)
30.06.2018 19:30 22,8 °C 63 % 1010,4 hPa 0,0 mm 4,4 km/h (1 Bft) O-NO 65 ° 0 min 0,000 mm 0,6 UV-I 97 W/m² 15,4 °C 22,8 °C 6,4 km/h (2 Bft)
30.06.2018 19:31 22,7 °C 63 % 1010,4 hPa 0,0 mm 0,4 km/h (0 Bft) O-NO 65 ° 0 min 0,000 mm 0,6 UV-I 98 W/m² 15,3 °C 22,7 °C 1,6 km/h (1 Bft)
30.06.2018 19:32 22,7 °C 63 % 1010,4 hPa 0,0 mm 1,2 km/h (1 Bft) O-NO 65 ° 0 min 0,000 mm 0,6 UV-I 100 W/m² 15,3 °C 22,7 °C 3,2 km/h (1 Bft)
30.06.2018 19:33 22,6 °C 63 % 1010,4 hPa 0,0 mm 6,3 km/h (2 Bft) O 94 ° 0 min 0,000 mm 0,6 UV-I 141 W/m² 15,2 °C 22,6 °C 9,7 km/h (2 Bft)
30.06.2018 19:34 22,5 °C 65 % 1010,4 hPa 0,0 mm 3,2 km/h (1 Bft) O-NO 64 ° 0 min 0,000 mm 0,6 UV-I 169 W/m² 15,6 °C 22,5 °C 6,4 km/h (2 Bft)
30.06.2018 19:35 22,4 °C 65 % 1010,4 hPa 0,0 mm 3,9 km/h (1 Bft) NO 38 ° 0 min 0,000 mm 0,6 UV-I 172 W/m² 15,5 °C 22,4 °C 6,4 km/h (2 Bft)
30.06.2018 19:36 22,3 °C 65 % 1010,5 hPa 0,0 mm 4,9 km/h (1 Bft) O 101 ° 0 min 0,000 mm 0,5 UV-I 172 W/m² 15,4 °C 22,3 °C 11,3 km/h (2 Bft)
30.06.2018 19:37 22,3 °C 65 % 1010,4 hPa 0,0 mm 6,7 km/h (2 Bft) NO 44 ° 0 min 0,000 mm 0,5 UV-I 171 W/m² 15,4 °C 22,3 °C 11,3 km/h (2 Bft)
30.06.2018 19:38 22,3 °C 66 % 1010,4 hPa 0,0 mm 5,3 km/h (1 Bft) O-NO 57 ° 0 min 0,000 mm 0,5 UV-I 169 W/m² 15,6 °C 22,3 °C 14,5 km/h (3 Bft)
30.06.2018 19:39 22,3 °C 66 % 1010,4 hPa 0,0 mm 3,8 km/h (1 Bft) SO 126 ° 0 min 0,000 mm 0,5 UV-I 163 W/m² 15,6 °C 22,3 °C 6,4 km/h (2 Bft)
30.06.2018 19:40 22,3 °C 66 % 1010,4 hPa 0,0 mm 2,7 km/h (1 Bft) NO 55 ° 0 min 0,000 mm 0,5 UV-I 156 W/m² 15,6 °C 22,3 °C 11,3 km/h (2 Bft)
30.06.2018 19:41 22,2 °C 66 % 1010,4 hPa 0,0 mm 8,9 km/h (2 Bft) O-NO 61 ° 0 min 0,000 mm 0,0 UV-I 149 W/m² 15,5 °C 22,2 °C 12,9 km/h (3 Bft)
30.06.2018 19:42 22,2 °C 67 % 1010,4 hPa 0,0 mm 5,0 km/h (1 Bft) O-SO 109 ° 0 min 0,000 mm 0,0 UV-I 142 W/m² 15,8 °C 22,2 °C 11,3 km/h (2 Bft)
30.06.2018 19:43 22,1 °C 67 % 1010,4 hPa 0,0 mm 2,3 km/h (1 Bft) O-NO 74 ° 0 min 0,000 mm 0,0 UV-I 132 W/m² 15,7 °C 22,1 °C 4,8 km/h (1 Bft)
30.06.2018 19:44 22,1 °C 67 % 1010,4 hPa 0,0 mm 3,9 km/h (1 Bft) NO 51 ° 0 min 0,000 mm 0,0 UV-I 130 W/m² 15,7 °C 22,1 °C 8,0 km/h (2 Bft)
30.06.2018 19:45 22,1 °C 67 % 1010,4 hPa 0,0 mm 5,5 km/h (1 Bft) NO 53 ° 0 min 0,000 mm 0,0 UV-I 127 W/m² 15,7 °C 22,1 °C 8,0 km/h (2 Bft)
30.06.2018 19:46 22,0 °C 68 % 1010,4 hPa 0,0 mm 3,6 km/h (1 Bft) O-NO 72 ° 0 min 0,000 mm 0,0 UV-I 123 W/m² 15,8 °C 22,0 °C 6,4 km/h (2 Bft)
30.06.2018 19:47 22,1 °C 68 % 1010,4 hPa 0,0 mm 5,9 km/h (2 Bft) O-NO 58 ° 0 min 0,000 mm 0,0 UV-I 120 W/m² 15,9 °C 22,1 °C 9,7 km/h (2 Bft)
30.06.2018 19:48 21,9 °C 69 % 1010,4 hPa 0,0 mm 3,2 km/h (1 Bft) O-NO 59 ° 0 min 0,000 mm 0,0 UV-I 114 W/m² 15,9 °C 21,9 °C 4,8 km/h (1 Bft)
30.06.2018 19:49 21,8 °C 69 % 1010,3 hPa 0,0 mm 4,4 km/h (1 Bft) NO 44 ° 0 min 0,000 mm 0,0 UV-I 100 W/m² 15,9 °C 21,8 °C 6,4 km/h (2 Bft)
30.06.2018 19:50 21,8 °C 69 % 1010,3 hPa 0,0 mm 6,4 km/h (2 Bft) O-NO 61 ° 0 min 0,000 mm 0,0 UV-I 91 W/m² 15,9 °C 21,8 °C 9,7 km/h (2 Bft)
30.06.2018 19:51 21,7 °C 71 % 1010,4 hPa 0,0 mm 0,7 km/h (0 Bft) O-NO 61 ° 0 min 0,000 mm 0,0 UV-I 83 W/m² 16,2 °C 21,7 °C 4,8 km/h (1 Bft)
30.06.2018 19:52 21,7 °C 69 % 1010,4 hPa 0,0 mm 2,0 km/h (1 Bft) O-NO 66 ° 0 min 0,000 mm 0,0 UV-I 70 W/m² 15,8 °C 21,7 °C 4,8 km/h (1 Bft)
30.06.2018 19:53 21,7 °C 69 % 1010,4 hPa 0,0 mm 6,4 km/h (2 Bft) NO 55 ° 0 min 0,000 mm 0,0 UV-I 74 W/m² 15,8 °C 21,7 °C 9,7 km/h (2 Bft)
30.06.2018 19:54 21,6 °C 69 % 1010,4 hPa 0,0 mm 4,1 km/h (1 Bft) S-SO 151 ° 0 min 0,000 mm 0,0 UV-I 72 W/m² 15,7 °C 21,6 °C 6,4 km/h (2 Bft)
30.06.2018 19:55 21,4 °C 69 % 1010,4 hPa 0,0 mm 5,2 km/h (1 Bft) O-NO 69 ° 0 min 0,000 mm 0,0 UV-I 70 W/m² 15,5 °C 21,4 °C 9,7 km/h (2 Bft)
30.06.2018 19:56 21,4 °C 69 % 1010,4 hPa 0,0 mm 1,5 km/h (1 Bft) O-NO 69 ° 0 min 0,000 mm 0,0 UV-I 69 W/m² 15,5 °C 21,4 °C 3,2 km/h (1 Bft)
30.06.2018 19:57 21,4 °C 69 % 1010,4 hPa 0,0 mm 4,9 km/h (1 Bft) O-NO 58 ° 0 min 0,000 mm 0,0 UV-I 65 W/m² 15,5 °C 21,4 °C 9,7 km/h (2 Bft)
30.06.2018 19:58 21,4 °C 70 % 1010,4 hPa 0,0 mm 2,0 km/h (1 Bft) O-NO 58 ° 0 min 0,000 mm 0,0 UV-I 53 W/m² 15,7 °C 21,4 °C 3,2 km/h (1 Bft)
30.06.2018 19:59 21,3 °C 69 % 1010,4 hPa 0,0 mm 1,8 km/h (1 Bft) O-NO 75 ° 0 min 0,000 mm 0,0 UV-I 51 W/m² 15,4 °C 21,3 °C 6,4 km/h (2 Bft)
30.06.2018 20:00 21,3 °C 70 % 1010,4 hPa 0,0 mm 6,0 km/h (2 Bft) O-NO 65 ° 0 min 0,000 mm 0,0 UV-I 53 W/m² 15,6 °C 21,3 °C 9,7 km/h (2 Bft)
30.06.2018 20:01 21,2 °C 71 % 1010,4 hPa 0,0 mm 1,7 km/h (1 Bft) O-NO 64 ° 0 min 0,127 mm 0,0 UV-I 72 W/m² 15,7 °C 21,2 °C 6,4 km/h (2 Bft)
30.06.2018 20:02 21,1 °C 71 % 1010,4 hPa 0,0 mm 6,9 km/h (2 Bft) O 86 ° 0 min 0,000 mm 0,0 UV-I 72 W/m² 15,6 °C 21,1 °C 12,9 km/h (3 Bft)
30.06.2018 20:03 21,1 °C 71 % 1010,4 hPa 0,0 mm 0,9 km/h (0 Bft) O 86 ° 0 min 0,000 mm 0,0 UV-I 74 W/m² 15,6 °C 21,1 °C 3,2 km/h (1 Bft)
30.06.2018 20:04 21,1 °C 71 % 1010,4 hPa 0,0 mm 0,7 km/h (0 Bft) O 86 ° 0 min 0,000 mm 0,0 UV-I 72 W/m² 15,6 °C 21,1 °C 1,6 km/h (1 Bft)
30.06.2018 20:05 21,0 °C 71 % 1010,4 hPa 0,0 mm 1,8 km/h (1 Bft) NO 49 ° 0 min 0,000 mm 0,0 UV-I 72 W/m² 15,5 °C 21,0 °C 4,8 km/h (1 Bft)
30.06.2018 20:06 21,0 °C 71 % 1010,4 hPa 0,0 mm 1,5 km/h (1 Bft) O-NO 62 ° 0 min 0,000 mm 0,0 UV-I 74 W/m² 15,5 °C 21,0 °C 6,4 km/h (2 Bft)
30.06.2018 20:07 21,0 °C 70 % 1010,5 hPa 0,0 mm 4,0 km/h (1 Bft) O 93 ° 0 min 0,000 mm 0,0 UV-I 62 W/m² 15,3 °C 21,0 °C 6,4 km/h (2 Bft)
30.06.2018 20:08 21,0 °C 70 % 1010,4 hPa 0,0 mm 0,3 km/h (0 Bft) O 93 ° 0 min 0,000 mm 0,0 UV-I 49 W/m² 15,3 °C 21,0 °C 1,6 km/h (1 Bft)
30.06.2018 20:09 20,9 °C 70 % 1010,4 hPa 0,0 mm 0,9 km/h (0 Bft) O 92 ° 0 min 0,000 mm 0,0 UV-I 47 W/m² 15,2 °C 20,9 °C 4,8 km/h (1 Bft)
30.06.2018 20:10 20,9 °C 72 % 1010,5 hPa 0,0 mm 0,7 km/h (0 Bft) O-NO 64 ° 0 min 0,000 mm 0,0 UV-I 47 W/m² 15,7 °C 20,9 °C 3,2 km/h (1 Bft)
30.06.2018 20:11 20,8 °C 71 % 1010,5 hPa 0,0 mm 0,6 km/h (0 Bft) O-NO 64 ° 0 min 0,000 mm 0,0 UV-I 44 W/m² 15,3 °C 20,8 °C 3,2 km/h (1 Bft)
30.06.2018 20:12 20,8 °C 72 % 1010,5 hPa 0,0 mm 1,1 km/h (1 Bft) O 87 ° 0 min 0,000 mm 0,0 UV-I 49 W/m² 15,6 °C 20,8 °C 3,2 km/h (1 Bft)
30.06.2018 20:13 20,7 °C 71 % 1010,5 hPa 0,0 mm 1,1 km/h (1 Bft) O 87 ° 0 min 0,000 mm 0,0 UV-I 63 W/m² 15,2 °C 20,7 °C 3,2 km/h (1 Bft)
30.06.2018 20:14 20,7 °C 72 % 1010,5 hPa 0,0 mm 2,2 km/h (1 Bft) O-NO 67 ° 0 min 0,000 mm 0,0 UV-I 65 W/m² 15,5 °C 20,7 °C 4,8 km/h (1 Bft)
30.06.2018 20:15 20,7 °C 72 % 1010,4 hPa 0,0 mm 0,5 km/h (0 Bft) O-NO 67 ° 0 min 0,000 mm 0,0 UV-I 60 W/m² 15,5 °C 20,7 °C 1,6 km/h (1 Bft)
30.06.2018 20:16 20,7 °C 73 % 1010,4 hPa 0,0 mm 0,7 km/h (0 Bft) O-NO 67 ° 0 min 0,000 mm 0,0 UV-I 58 W/m² 15,7 °C 20,7 °C 1,6 km/h (1 Bft)
30.06.2018 20:17 20,7 °C 72 % 1010,4 hPa 0,0 mm 0,1 km/h (0 Bft) O-NO 67 ° 0 min 0,000 mm 0,0 UV-I 54 W/m² 15,5 °C 20,7 °C 1,6 km/h (1 Bft)
30.06.2018 20:18 20,6 °C 74 % 1010,5 hPa 0,0 mm 0,6 km/h (0 Bft) O-NO 67 ° 0 min 0,000 mm 0,0 UV-I 51 W/m² 15,8 °C 20,6 °C 3,2 km/h (1 Bft)
30.06.2018 20:19 20,5 °C 74 % 1010,4 hPa 0,0 mm 0,1 km/h (0 Bft) O-NO 67 ° 0 min 0,000 mm 0,0 UV-I 49 W/m² 15,7 °C 20,5 °C 1,6 km/h (1 Bft)
30.06.2018 20:20 20,4 °C 73 % 1010,5 hPa 0,0 mm 1,3 km/h (1 Bft) O-SO 108 ° 0 min 0,000 mm 0,0 UV-I 51 W/m² 15,4 °C 20,4 °C 3,2 km/h (1 Bft)
30.06.2018 20:21 20,4 °C 74 % 1010,5 hPa 0,0 mm 0,0 km/h (0 Bft) O-SO 108 ° 0 min 0,000 mm 0,0 UV-I 51 W/m² 15,6 °C 20,4 °C 0,0 km/h (0 Bft)
30.06.2018 20:22 20,4 °C 73 % 1010,5 hPa 0,0 mm 0,3 km/h (0 Bft) O-SO 108 ° 0 min 0,000 mm 0,0 UV-I 49 W/m² 15,4 °C 20,4 °C 1,6 km/h (1 Bft)
30.06.2018 20:23 20,3 °C 74 % 1010,5 hPa 0,0 mm 0,0 km/h (0 Bft) O-SO 108 ° 0 min 0,000 mm 0,0 UV-I 47 W/m² 15,5 °C 20,3 °C 0,0 km/h (0 Bft)
30.06.2018 20:24 20,3 °C 74 % 1010,5 hPa 0,0 mm 0,2 km/h (0 Bft) O-SO 108 ° 0 min 0,000 mm 0,0 UV-I 46 W/m² 15,5 °C 20,3 °C 1,6 km/h (1 Bft)
30.06.2018 20:25 20,3 °C 74 % 1010,5 hPa 0,0 mm 0,1 km/h (0 Bft) O-SO 108 ° 0 min 0,000 mm 0,0 UV-I 44 W/m² 15,5 °C 20,3 °C 1,6 km/h (1 Bft)
30.06.2018 20:26 20,2 °C 74 % 1010,5 hPa 0,0 mm 0,0 km/h (0 Bft) O-SO 108 ° 0 min 0,000 mm 0,0 UV-I 44 W/m² 15,4 °C 20,2 °C 0,0 km/h (0 Bft)
30.06.2018 20:27 20,2 °C 74 % 1010,5 hPa 0,0 mm 0,0 km/h (0 Bft) O-SO 108 ° 0 min 0,000 mm 0,0 UV-I 44 W/m² 15,4 °C 20,2 °C 0,0 km/h (0 Bft)
30.06.2018 20:28 20,1 °C 74 % 1010,5 hPa 0,0 mm 0,0 km/h (0 Bft) O-SO 108 ° 0 min 0,000 mm 0,0 UV-I 42 W/m² 15,3 °C 20,1 °C 0,0 km/h (0 Bft)
30.06.2018 20:29 20,1 °C 75 % 1010,5 hPa 0,0 mm 0,0 km/h (0 Bft) O-SO 108 ° 0 min 0,000 mm 0,0 UV-I 42 W/m² 15,5 °C 20,1 °C 0,0 km/h (0 Bft)
30.06.2018 20:30 20,0 °C 76 % 1010,5 hPa 0,0 mm 0,0 km/h (0 Bft) O-SO 108 ° 0 min 0,000 mm 0,0 UV-I 40 W/m² 15,6 °C 20,0 °C 0,0 km/h (0 Bft)
30.06.2018 20:31 19,9 °C 76 % 1010,5 hPa 0,0 mm 0,0 km/h (0 Bft) O-SO 108 ° 0 min 0,000 mm 0,0 UV-I 39 W/m² 15,5 °C 19,9 °C 0,0 km/h (0 Bft)
30.06.2018 20:32 19,8 °C 76 % 1010,5 hPa 0,0 mm 0,3 km/h (0 Bft) O-SO 108 ° 0 min 0,000 mm 0,0 UV-I 37 W/m² 15,4 °C 19,8 °C 1,6 km/h (1 Bft)
30.06.2018 20:33 19,7 °C 76 % 1010,5 hPa 0,0 mm 0,0 km/h (0 Bft) O-SO 108 ° 0 min 0,000 mm 0,0 UV-I 35 W/m² 15,3 °C 19,7 °C 0,0 km/h (0 Bft)
30.06.2018 20:34 19,7 °C 77 % 1010,5 hPa 0,0 mm 0,0 km/h (0 Bft) O-SO 108 ° 0 min 0,000 mm 0,0 UV-I 35 W/m² 15,5 °C 19,7 °C 0,0 km/h (0 Bft)
30.06.2018 20:35 19,7 °C 76 % 1010,5 hPa 0,0 mm 0,0 km/h (0 Bft) O-SO 108 ° 0 min 0,000 mm 0,0 UV-I 32 W/m² 15,3 °C 19,7 °C 0,0 km/h (0 Bft)
30.06.2018 20:36 19,6 °C 77 % 1010,5 hPa 0,0 mm 0,0 km/h (0 Bft) O-SO 108 ° 0 min 0,000 mm 0,0 UV-I 28 W/m² 15,5 °C 19,6 °C 0,0 km/h (0 Bft)
30.06.2018 20:37 19,5 °C 77 % 1010,5 hPa 0,0 mm 0,0 km/h (0 Bft) O-SO 108 ° 0 min 0,000 mm 0,0 UV-I 26 W/m² 15,4 °C 19,5 °C 0,0 km/h (0 Bft)
30.06.2018 20:38 19,6 °C 77 % 1010,5 hPa 0,0 mm 0,0 km/h (0 Bft) O-SO 108 ° 0 min 0,000 mm 0,0 UV-I 26 W/m² 15,5 °C 19,6 °C 0,0 km/h (0 Bft)
30.06.2018 20:39 19,4 °C 78 % 1010,5 hPa 0,0 mm 0,0 km/h (0 Bft) O-SO 108 ° 0 min 0,000 mm 0,0 UV-I 26 W/m² 15,5 °C 19,4 °C 0,0 km/h (0 Bft)
30.06.2018 20:40 19,3 °C 78 % 1010,5 hPa 0,0 mm 0,0 km/h (0 Bft) O-SO 108 ° 0 min 0,000 mm 0,0 UV-I 25 W/m² 15,4 °C 19,3 °C 0,0 km/h (0 Bft)
30.06.2018 20:41 19,3 °C 78 % 1010,5 hPa 0,0 mm 0,2 km/h (0 Bft) O-SO 108 ° 0 min 0,000 mm 0,0 UV-I 25 W/m² 15,4 °C 19,3 °C 1,6 km/h (1 Bft)
30.06.2018 20:42 19,3 °C 78 % 1010,5 hPa 0,0 mm 0,0 km/h (0 Bft) O-SO 108 ° 0 min 0,000 mm 0,0 UV-I 23 W/m² 15,4 °C 19,3 °C 0,0 km/h (0 Bft)
30.06.2018 20:43 19,2 °C 78 % 1010,5 hPa 0,0 mm 0,0 km/h (0 Bft) O-SO 108 ° 0 min 0,000 mm 0,0 UV-I 23 W/m² 15,3 °C 19,2 °C 0,0 km/h (0 Bft)
30.06.2018 20:44 19,3 °C 78 % 1010,5 hPa 0,0 mm 0,0 km/h (0 Bft) O-SO 108 ° 0 min 0,000 mm 0,0 UV-I 23 W/m² 15,4 °C 19,3 °C 0,0 km/h (0 Bft)
30.06.2018 20:45 19,3 °C 78 % 1010,5 hPa 0,0 mm 0,0 km/h (0 Bft) O-SO 108 ° 0 min 0,000 mm 0,0 UV-I 23 W/m² 15,4 °C 19,3 °C 0,0 km/h (0 Bft)
30.06.2018 20:46 19,3 °C 78 % 1010,5 hPa 0,0 mm 0,0 km/h (0 Bft) O-SO 108 ° 0 min 0,000 mm 0,0 UV-I 21 W/m² 15,4 °C 19,3 °C 0,0 km/h (0 Bft)
30.06.2018 20:47 19,2 °C 78 % 1010,5 hPa 0,0 mm 0,0 km/h (0 Bft) O-SO 108 ° 0 min 0,000 mm 0,0 UV-I 21 W/m² 15,3 °C 19,2 °C 0,0 km/h (0 Bft)
30.06.2018 20:48 19,2 °C 78 % 1010,5 hPa 0,0 mm 0,0 km/h (0 Bft) O-SO 108 ° 0 min 0,000 mm 0,0 UV-I 19 W/m² 15,3 °C 19,2 °C 0,0 km/h (0 Bft)
30.06.2018 20:49 19,2 °C 78 % 1010,5 hPa 0,0 mm 0,0 km/h (0 Bft) O-SO 108 ° 0 min 0,000 mm 0,0 UV-I 19 W/m² 15,3 °C 19,2 °C 0,0 km/h (0 Bft)
30.06.2018 20:50 19,1 °C 78 % 1010,5 hPa 0,0 mm 0,1 km/h (0 Bft) O-SO 108 ° 0 min 0,000 mm 0,0 UV-I 18 W/m² 15,2 °C 19,1 °C 1,6 km/h (1 Bft)
30.06.2018 20:51 19,1 °C 78 % 1010,5 hPa 0,0 mm 0,1 km/h (0 Bft) O-SO 108 ° 0 min 0,000 mm 0,0 UV-I 18 W/m² 15,2 °C 19,1 °C 1,6 km/h (1 Bft)
30.06.2018 20:52 19,1 °C 78 % 1010,5 hPa 0,0 mm 0,0 km/h (0 Bft) O-SO 108 ° 0 min 0,000 mm 0,0 UV-I 18 W/m² 15,2 °C 19,1 °C 0,0 km/h (0 Bft)
30.06.2018 20:53 19,2 °C 77 % 1010,5 hPa 0,0 mm 0,0 km/h (0 Bft) O-SO 108 ° 0 min 0,000 mm 0,0 UV-I 16 W/m² 15,1 °C 19,2 °C 0,0 km/h (0 Bft)
30.06.2018 20:54 19,2 °C 77 % 1010,5 hPa 0,0 mm 0,0 km/h (0 Bft) O-SO 108 ° 0 min 0,000 mm 0,0 UV-I 16 W/m² 15,1 °C 19,2 °C 0,0 km/h (0 Bft)
30.06.2018 20:55 19,1 °C 78 % 1010,5 hPa 0,0 mm 0,0 km/h (0 Bft) O-SO 108 ° 0 min 0,000 mm 0,0 UV-I 16 W/m² 15,2 °C 19,1 °C 0,0 km/h (0 Bft)
30.06.2018 20:56 18,9 °C 79 % 1010,6 hPa 0,0 mm 0,0 km/h (0 Bft) O-SO 108 ° 0 min 0,000 mm 0,0 UV-I 16 W/m² 15,2 °C 18,9 °C 0,0 km/h (0 Bft)
30.06.2018 20:57 18,9 °C 78 % 1010,6 hPa 0,0 mm 0,2 km/h (0 Bft) O-SO 108 ° 0 min 0,000 mm 0,0 UV-I 14 W/m² 15,0 °C 18,9 °C 1,6 km/h (1 Bft)
30.06.2018 20:58 18,9 °C 78 % 1010,6 hPa 0,0 mm 0,1 km/h (0 Bft) O-SO 108 ° 0 min 0,000 mm 0,0 UV-I 14 W/m² 15,0 °C 18,9 °C 1,6 km/h (1 Bft)
30.06.2018 20:59 18,9 °C 78 % 1010,6 hPa 0,0 mm 0,0 km/h (0 Bft) O-SO 108 ° 0 min 0,000 mm 0,0 UV-I 12 W/m² 15,0 °C 18,9 °C 0,0 km/h (0 Bft)
30.06.2018 21:00 18,8 °C 78 % 1010,6 hPa 0,0 mm 0,0 km/h (0 Bft) O-SO 108 ° 0 min 0,000 mm 0,0 UV-I 12 W/m² 14,9 °C 18,8 °C 0,0 km/h (0 Bft)
30.06.2018 21:01 18,8 °C 78 % 1010,6 hPa 0,0 mm 0,0 km/h (0 Bft) O-SO 108 ° 0 min 0,025 mm 0,0 UV-I 12 W/m² 14,9 °C 18,8 °C 0,0 km/h (0 Bft)
30.06.2018 21:02 18,8 °C 78 % 1010,6 hPa 0,0 mm 0,0 km/h (0 Bft) O-SO 108 ° 0 min 0,000 mm 0,0 UV-I 11 W/m² 14,9 °C 18,8 °C 0,0 km/h (0 Bft)
30.06.2018 21:03 18,7 °C 79 % 1010,6 hPa 0,0 mm 0,0 km/h (0 Bft) O-SO 108 ° 0 min 0,000 mm 0,0 UV-I 11 W/m² 15,0 °C 18,7 °C 0,0 km/h (0 Bft)
30.06.2018 21:04 18,6 °C 79 % 1010,6 hPa 0,0 mm 0,0 km/h (0 Bft) O-SO 108 ° 0 min 0,000 mm 0,0 UV-I 11 W/m² 14,9 °C 18,6 °C 0,0 km/h (0 Bft)
30.06.2018 21:05 18,6 °C 79 % 1010,6 hPa 0,0 mm 0,0 km/h (0 Bft) O-SO 108 ° 0 min 0,000 mm 0,0 UV-I 9 W/m² 14,9 °C 18,6 °C 0,0 km/h (0 Bft)
30.06.2018 21:06 18,4 °C 80 % 1010,6 hPa 0,0 mm 0,0 km/h (0 Bft) O-SO 108 ° 0 min 0,000 mm 0,0 UV-I 9 W/m² 14,9 °C 18,4 °C 0,0 km/h (0 Bft)
30.06.2018 21:07 18,4 °C 80 % 1010,6 hPa 0,0 mm 0,0 km/h (0 Bft) O-SO 108 ° 0 min 0,000 mm 0,0 UV-I 7 W/m² 14,9 °C 18,4 °C 0,0 km/h (0 Bft)
30.06.2018 21:08 18,4 °C 80 % 1010,6 hPa 0,0 mm 0,0 km/h (0 Bft) O-SO 108 ° 0 min 0,000 mm 0,0 UV-I 7 W/m² 14,9 °C 18,4 °C 0,0 km/h (0 Bft)
30.06.2018 21:09 18,4 °C 79 % 1010,7 hPa 0,0 mm 0,0 km/h (0 Bft) O-SO 108 ° 0 min 0,000 mm 0,0 UV-I 7 W/m² 14,7 °C 18,4 °C 0,0 km/h (0 Bft)
30.06.2018 21:10 18,4 °C 80 % 1010,6 hPa 0,0 mm 0,2 km/h (0 Bft) O-SO 108 ° 0 min 0,000 mm 0,0 UV-I 7 W/m² 14,9 °C 18,4 °C 1,6 km/h (1 Bft)
30.06.2018 21:11 18,4 °C 80 % 1010,6 hPa 0,0 mm 0,3 km/h (0 Bft) O-SO 108 ° 0 min 0,000 mm 0,0 UV-I 5 W/m² 14,9 °C 18,4 °C 1,6 km/h (1 Bft)
30.06.2018 21:12 18,4 °C 79 % 1010,6 hPa 0,0 mm 0,7 km/h (0 Bft) O-SO 108 ° 0 min 0,000 mm 0,0 UV-I 5 W/m² 14,7 °C 18,4 °C 1,6 km/h (1 Bft)
30.06.2018 21:13 18,4 °C 79 % 1010,6 hPa 0,0 mm 0,0 km/h (0 Bft) O-SO 108 ° 0 min 0,000 mm 0,0 UV-I 5 W/m² 14,7 °C 18,4 °C 0,0 km/h (0 Bft)
30.06.2018 21:14 18,4 °C 80 % 1010,7 hPa 0,0 mm 0,0 km/h (0 Bft) O-SO 108 ° 0 min 0,000 mm 0,0 UV-I 5 W/m² 14,9 °C 18,4 °C 0,0 km/h (0 Bft)
30.06.2018 21:15 18,3 °C 80 % 1010,7 hPa 0,0 mm 1,0 km/h (0 Bft) O-SO 108 ° 0 min 0,000 mm 0,0 UV-I 5 W/m² 14,8 °C 18,3 °C 3,2 km/h (1 Bft)
30.06.2018 21:16 18,3 °C 80 % 1010,7 hPa 0,0 mm 0,0 km/h (0 Bft) O-SO 108 ° 0 min 0,000 mm 0,0 UV-I 5 W/m² 14,8 °C 18,3 °C 0,0 km/h (0 Bft)
30.06.2018 21:17 18,3 °C 80 % 1010,6 hPa 0,0 mm 0,1 km/h (0 Bft) O-SO 108 ° 0 min 0,000 mm 0,0 UV-I 0 W/m² 14,8 °C 18,3 °C 1,6 km/h (1 Bft)
30.06.2018 21:18 18,2 °C 79 % 1010,6 hPa 0,0 mm 0,0 km/h (0 Bft) O-SO 108 ° 0 min 0,000 mm 0,0 UV-I 0 W/m² 14,5 °C 18,2 °C 0,0 km/h (0 Bft)
30.06.2018 21:19 18,1 °C 80 % 1010,7 hPa 0,0 mm 0,0 km/h (0 Bft) O-SO 108 ° 0 min 0,000 mm 0,0 UV-I 0 W/m² 14,6 °C 18,1 °C 0,0 km/h (0 Bft)
30.06.2018 21:20 18,0 °C 80 % 1010,7 hPa 0,0 mm 0,0 km/h (0 Bft) O-SO 108 ° 0 min 0,000 mm 0,0 UV-I 0 W/m² 14,5 °C 18,0 °C 0,0 km/h (0 Bft)
30.06.2018 21:21 17,9 °C 81 % 1010,7 hPa 0,0 mm 0,0 km/h (0 Bft) O-SO 108 ° 0 min 0,000 mm 0,0 UV-I 0 W/m² 14,6 °C 17,9 °C 0,0 km/h (0 Bft)
30.06.2018 21:22 17,9 °C 80 % 1010,7 hPa 0,0 mm 0,0 km/h (0 Bft) O-SO 108 ° 0 min 0,000 mm 0,0 UV-I 0 W/m² 14,4 °C 17,9 °C 0,0 km/h (0 Bft)
30.06.2018 21:23 17,9 °C 81 % 1010,7 hPa 0,0 mm 0,1 km/h (0 Bft) O-SO 108 ° 0 min 0,000 mm 0,0 UV-I 0 W/m² 14,6 °C 17,9 °C 1,6 km/h (1 Bft)
30.06.2018 21:24 17,9 °C 81 % 1010,7 hPa 0,0 mm 0,0 km/h (0 Bft) O-SO 108 ° 0 min 0,000 mm 0,0 UV-I 0 W/m² 14,6 °C 17,9 °C 0,0 km/h (0 Bft)
30.06.2018 21:25 17,8 °C 81 % 1010,7 hPa 0,0 mm 0,0 km/h (0 Bft) O-SO 108 ° 0 min 0,000 mm 0,0 UV-I 0 W/m² 14,5 °C 17,8 °C 0,0 km/h (0 Bft)
30.06.2018 21:26 17,8 °C 81 % 1010,7 hPa 0,0 mm 0,0 km/h (0 Bft) O-SO 108 ° 0 min 0,000 mm 0,0 UV-I 0 W/m² 14,5 °C 17,8 °C 0,0 km/h (0 Bft)
30.06.2018 21:27 17,8 °C 81 % 1010,7 hPa 0,0 mm 0,0 km/h (0 Bft) O-SO 108 ° 0 min 0,000 mm 0,0 UV-I 0 W/m² 14,5 °C 17,8 °C 0,0 km/h (0 Bft)
30.06.2018 21:28 17,8 °C 81 % 1010,8 hPa 0,0 mm 0,0 km/h (0 Bft) O-SO 108 ° 0 min 0,000 mm 0,0 UV-I 0 W/m² 14,5 °C 17,8 °C 0,0 km/h (0 Bft)
30.06.2018 21:29 17,7 °C 81 % 1010,7 hPa 0,0 mm 0,0 km/h (0 Bft) O-SO 108 ° 0 min 0,000 mm 0,0 UV-I 0 W/m² 14,4 °C 17,7 °C 0,0 km/h (0 Bft)
30.06.2018 21:30 17,8 °C 81 % 1010,8 hPa 0,0 mm 0,0 km/h (0 Bft) O-SO 108 ° 0 min 0,000 mm 0,0 UV-I 0 W/m² 14,5 °C 17,8 °C 0,0 km/h (0 Bft)
30.06.2018 21:31 17,7 °C 81 % 1010,8 hPa 0,0 mm 0,0 km/h (0 Bft) O-SO 108 ° 0 min 0,000 mm 0,0 UV-I 0 W/m² 14,4 °C 17,7 °C 0,0 km/h (0 Bft)
30.06.2018 21:32 17,7 °C 81 % 1010,7 hPa 0,0 mm 0,0 km/h (0 Bft) O-SO 108 ° 0 min 0,000 mm 0,0 UV-I 0 W/m² 14,4 °C 17,7 °C 0,0 km/h (0 Bft)
30.06.2018 21:33 17,6 °C 82 % 1010,8 hPa 0,0 mm 0,0 km/h (0 Bft) O-SO 108 ° 0 min 0,000 mm 0,0 UV-I 0 W/m² 14,5 °C 17,6 °C 0,0 km/h (0 Bft)
30.06.2018 21:34 17,5 °C 82 % 1010,8 hPa 0,0 mm 0,1 km/h (0 Bft) O-SO 108 ° 0 min 0,000 mm 0,0 UV-I 0 W/m² 14,4 °C 17,5 °C 1,6 km/h (1 Bft)
30.06.2018 21:35 17,5 °C 82 % 1010,8 hPa 0,0 mm 1,1 km/h (1 Bft) O-SO 108 ° 0 min 0,000 mm 0,0 UV-I 0 W/m² 14,4 °C 17,5 °C 3,2 km/h (1 Bft)
30.06.2018 21:36 17,5 °C 82 % 1010,8 hPa 0,0 mm 0,0 km/h (0 Bft) O-SO 108 ° 0 min 0,000 mm 0,0 UV-I 0 W/m² 14,4 °C 17,5 °C 0,0 km/h (0 Bft)
30.06.2018 21:37 17,5 °C 82 % 1010,8 hPa 0,0 mm 0,2 km/h (0 Bft) O-SO 108 ° 0 min 0,000 mm 0,0 UV-I 0 W/m² 14,4 °C 17,5 °C 1,6 km/h (1 Bft)
30.06.2018 21:38 17,6 °C 82 % 1010,9 hPa 0,0 mm 1,1 km/h (1 Bft) O-SO 108 ° 0 min 0,000 mm 0,0 UV-I 0 W/m² 14,5 °C 17,6 °C 1,6 km/h (1 Bft)
30.06.2018 21:39 17,6 °C 81 % 1010,9 hPa 0,0 mm 1,0 km/h (0 Bft) O-SO 108 ° 0 min 0,000 mm 0,0 UV-I 0 W/m² 14,3 °C 17,6 °C 3,2 km/h (1 Bft)
30.06.2018 21:40 17,6 °C 81 % 1010,9 hPa 0,0 mm 1,3 km/h (1 Bft) O-SO 108 ° 0 min 0,000 mm 0,0 UV-I 0 W/m² 14,3 °C 17,6 °C 3,2 km/h (1 Bft)
30.06.2018 21:41 17,5 °C 81 % 1010,9 hPa 0,0 mm 3,1 km/h (1 Bft) O-SO 111 ° 0 min 0,000 mm 0,0 UV-I 0 W/m² 14,2 °C 17,5 °C 4,8 km/h (1 Bft)
30.06.2018 21:42 17,6 °C 82 % 1010,9 hPa 0,0 mm 0,8 km/h (0 Bft) O-SO 111 ° 0 min 0,000 mm 0,0 UV-I 0 W/m² 14,5 °C 17,6 °C 3,2 km/h (1 Bft)
30.06.2018 21:43 17,5 °C 82 % 1010,9 hPa 0,0 mm 1,7 km/h (1 Bft) O-SO 111 ° 0 min 0,000 mm 0,0 UV-I 0 W/m² 14,4 °C 17,5 °C 3,2 km/h (1 Bft)
30.06.2018 21:44 17,6 °C 82 % 1010,9 hPa 0,0 mm 1,1 km/h (1 Bft) O-SO 115 ° 0 min 0,000 mm 0,0 UV-I 0 W/m² 14,5 °C 17,6 °C 4,8 km/h (1 Bft)
30.06.2018 21:45 17,6 °C 82 % 1010,9 hPa 0,0 mm 0,9 km/h (0 Bft) O-SO 115 ° 0 min 0,000 mm 0,0 UV-I 0 W/m² 14,5 °C 17,6 °C 3,2 km/h (1 Bft)
30.06.2018 21:46 17,6 °C 82 % 1010,9 hPa 0,0 mm 0,3 km/h (0 Bft) O-SO 115 ° 0 min 0,000 mm 0,0 UV-I 0 W/m² 14,5 °C 17,6 °C 1,6 km/h (1 Bft)
30.06.2018 21:47 17,5 °C 82 % 1011,0 hPa 0,0 mm 0,8 km/h (0 Bft) O-SO 115 ° 0 min 0,000 mm 0,0 UV-I 0 W/m² 14,4 °C 17,5 °C 1,6 km/h (1 Bft)
30.06.2018 21:48 17,5 °C 82 % 1010,9 hPa 0,0 mm 0,0 km/h (0 Bft) O-SO 115 ° 0 min 0,000 mm 0,0 UV-I 0 W/m² 14,4 °C 17,5 °C 0,0 km/h (0 Bft)
30.06.2018 21:49 17,4 °C 82 % 1010,9 hPa 0,0 mm 0,0 km/h (0 Bft) O-SO 115 ° 0 min 0,000 mm 0,0 UV-I 0 W/m² 14,3 °C 17,4 °C 0,0 km/h (0 Bft)
30.06.2018 21:50 17,4 °C 82 % 1011,0 hPa 0,0 mm 0,0 km/h (0 Bft) O-SO 115 ° 0 min 0,000 mm 0,0 UV-I 0 W/m² 14,3 °C 17,4 °C 0,0 km/h (0 Bft)
30.06.2018 21:51 17,4 °C 82 % 1011,0 hPa 0,0 mm 0,0 km/h (0 Bft) O-SO 115 ° 0 min 0,000 mm 0,0 UV-I 0 W/m² 14,3 °C 17,4 °C 0,0 km/h (0 Bft)
30.06.2018 21:52 17,3 °C 82 % 1010,9 hPa 0,0 mm 0,0 km/h (0 Bft) O-SO 115 ° 0 min 0,000 mm 0,0 UV-I 0 W/m² 14,2 °C 17,3 °C 0,0 km/h (0 Bft)
30.06.2018 21:53 17,3 °C 82 % 1011,0 hPa 0,0 mm 0,0 km/h (0 Bft) O-SO 115 ° 0 min 0,000 mm 0,0 UV-I 0 W/m² 14,2 °C 17,3 °C 0,0 km/h (0 Bft)
30.06.2018 21:54 17,3 °C 82 % 1011,0 hPa 0,0 mm 0,1 km/h (0 Bft) O-SO 115 ° 0 min 0,000 mm 0,0 UV-I 0 W/m² 14,2 °C 17,3 °C 1,6 km/h (1 Bft)
30.06.2018 21:55 17,2 °C 83 % 1011,0 hPa 0,0 mm 0,0 km/h (0 Bft) O-SO 115 ° 0 min 0,000 mm 0,0 UV-I 0 W/m² 14,3 °C 17,2 °C 0,0 km/h (0 Bft)
30.06.2018 21:56 17,3 °C 83 % 1011,0 hPa 0,0 mm 0,0 km/h (0 Bft) O-SO 115 ° 0 min 0,000 mm 0,0 UV-I 0 W/m² 14,4 °C 17,3 °C 0,0 km/h (0 Bft)
30.06.2018 21:57 17,2 °C 83 % 1010,9 hPa 0,0 mm 0,0 km/h (0 Bft) O-SO 115 ° 0 min 0,000 mm 0,0 UV-I 0 W/m² 14,3 °C 17,2 °C 0,0 km/h (0 Bft)
30.06.2018 21:58 17,3 °C 83 % 1011,0 hPa 0,0 mm 0,0 km/h (0 Bft) O-SO 115 ° 0 min 0,000 mm 0,0 UV-I 0 W/m² 14,4 °C 17,3 °C 0,0 km/h (0 Bft)
30.06.2018 21:59 17,3 °C 82 % 1011,0 hPa 0,0 mm 0,0 km/h (0 Bft) O-SO 115 ° 0 min 0,000 mm 0,0 UV-I 0 W/m² 14,2 °C 17,3 °C 0,0 km/h (0 Bft)
30.06.2018 22:00 17,2 °C 82 % 1011,0 hPa 0,0 mm 0,7 km/h (0 Bft) O-SO 115 ° 0 min 0,000 mm 0,0 UV-I 0 W/m² 14,1 °C 17,2 °C 3,2 km/h (1 Bft)
30.06.2018 22:01 17,2 °C 82 % 1011,1 hPa 0,0 mm 0,0 km/h (0 Bft) O-SO 115 ° 0 min 0,000 mm 0,0 UV-I 0 W/m² 14,1 °C 17,2 °C 0,0 km/h (0 Bft)
30.06.2018 22:02 17,2 °C 82 % 1011,1 hPa 0,0 mm 0,0 km/h (0 Bft) O-SO 115 ° 0 min 0,000 mm 0,0 UV-I 0 W/m² 14,1 °C 17,2 °C 0,0 km/h (0 Bft)
30.06.2018 22:03 17,1 °C 83 % 1011,0 hPa 0,0 mm 0,0 km/h (0 Bft) O-SO 115 ° 0 min 0,000 mm 0,0 UV-I 0 W/m² 14,2 °C 17,1 °C 0,0 km/h (0 Bft)
30.06.2018 22:04 17,1 °C 83 % 1011,0 hPa 0,0 mm 0,0 km/h (0 Bft) O-SO 115 ° 0 min 0,000 mm 0,0 UV-I 0 W/m² 14,2 °C 17,1 °C 0,0 km/h (0 Bft)
30.06.2018 22:05 17,0 °C 83 % 1011,0 hPa 0,0 mm 0,0 km/h (0 Bft) O-SO 115 ° 0 min 0,000 mm 0,0 UV-I 0 W/m² 14,1 °C 17,0 °C 0,0 km/h (0 Bft)
30.06.2018 22:06 17,0 °C 83 % 1011,0 hPa 0,0 mm 0,0 km/h (0 Bft) O-SO 115 ° 0 min 0,000 mm 0,0 UV-I 0 W/m² 14,1 °C 17,0 °C 0,0 km/h (0 Bft)
30.06.2018 22:07 17,0 °C 83 % 1011,0 hPa 0,0 mm 0,0 km/h (0 Bft) O-SO 115 ° 0 min 0,000 mm 0,0 UV-I 0 W/m² 14,1 °C 17,0 °C 0,0 km/h (0 Bft)
30.06.2018 22:08 17,1 °C 83 % 1011,0 hPa 0,0 mm 0,0 km/h (0 Bft) O-SO 115 ° 0 min 0,000 mm 0,0 UV-I 0 W/m² 14,2 °C 17,1 °C 0,0 km/h (0 Bft)
30.06.2018 22:09 17,1 °C 83 % 1011,1 hPa 0,0 mm 0,0 km/h (0 Bft) O-SO 115 ° 0 min 0,000 mm 0,0 UV-I 0 W/m² 14,2 °C 17,1 °C 0,0 km/h (0 Bft)
30.06.2018 22:10 17,2 °C 83 % 1011,1 hPa 0,0 mm 0,1 km/h (0 Bft) O-SO 115 ° 0 min 0,000 mm 0,0 UV-I 0 W/m² 14,3 °C 17,2 °C 1,6 km/h (1 Bft)
30.06.2018 22:11 17,1 °C 83 % 1011,1 hPa 0,0 mm 0,0 km/h (0 Bft) O-SO 115 ° 0 min 0,000 mm 0,0 UV-I 0 W/m² 14,2 °C 17,1 °C 0,0 km/h (0 Bft)
30.06.2018 22:12 17,1 °C 83 % 1011,1 hPa 0,0 mm 0,0 km/h (0 Bft) O-SO 115 ° 0 min 0,000 mm 0,0 UV-I 0 W/m² 14,2 °C 17,1 °C 0,0 km/h (0 Bft)
30.06.2018 22:13 17,2 °C 83 % 1011,1 hPa 0,0 mm 0,0 km/h (0 Bft) O-SO 115 ° 0 min 0,000 mm 0,0 UV-I 0 W/m² 14,3 °C 17,2 °C 0,0 km/h (0 Bft)
30.06.2018 22:14 17,1 °C 83 % 1011,1 hPa 0,0 mm 0,0 km/h (0 Bft) O-SO 115 ° 0 min 0,000 mm 0,0 UV-I 0 W/m² 14,2 °C 17,1 °C 0,0 km/h (0 Bft)
30.06.2018 22:15 17,1 °C 83 % 1011,1 hPa 0,0 mm 0,0 km/h (0 Bft) O-SO 115 ° 0 min 0,000 mm 0,0 UV-I 0 W/m² 14,2 °C 17,1 °C 0,0 km/h (0 Bft)
30.06.2018 22:16 17,0 °C 83 % 1011,1 hPa 0,0 mm 0,0 km/h (0 Bft) O-SO 115 ° 0 min 0,000 mm 0,0 UV-I 0 W/m² 14,1 °C 17,0 °C 0,0 km/h (0 Bft)
30.06.2018 22:17 16,9 °C 83 % 1011,1 hPa 0,0 mm 0,0 km/h (0 Bft) O-SO 115 ° 0 min 0,000 mm 0,0 UV-I 0 W/m² 14,0 °C 16,9 °C 0,0 km/h (0 Bft)
30.06.2018 22:18 16,9 °C 83 % 1011,1 hPa 0,0 mm 0,0 km/h (0 Bft) O-SO 115 ° 0 min 0,000 mm 0,0 UV-I 0 W/m² 14,0 °C 16,9 °C 0,0 km/h (0 Bft)
30.06.2018 22:19 16,9 °C 84 % 1011,1 hPa 0,0 mm 0,0 km/h (0 Bft) O-SO 115 ° 0 min 0,000 mm 0,0 UV-I 0 W/m² 14,2 °C 16,9 °C 0,0 km/h (0 Bft)
30.06.2018 22:20 16,8 °C 84 % 1011,0 hPa 0,0 mm 0,0 km/h (0 Bft) O-SO 115 ° 0 min 0,000 mm 0,0 UV-I 0 W/m² 14,1 °C 16,8 °C 0,0 km/h (0 Bft)
30.06.2018 22:21 16,7 °C 84 % 1011,1 hPa 0,0 mm 0,0 km/h (0 Bft) O-SO 115 ° 0 min 0,000 mm 0,0 UV-I 0 W/m² 14,0 °C 16,7 °C 0,0 km/h (0 Bft)
30.06.2018 22:22 16,7 °C 84 % 1011,1 hPa 0,0 mm 0,0 km/h (0 Bft) O-SO 115 ° 0 min 0,000 mm 0,0 UV-I 0 W/m² 14,0 °C 16,7 °C 0,0 km/h (0 Bft)
30.06.2018 22:23 16,6 °C 84 % 1011,1 hPa 0,0 mm 0,0 km/h (0 Bft) O-SO 115 ° 0 min 0,000 mm 0,0 UV-I 0 W/m² 13,9 °C 16,6 °C 0,0 km/h (0 Bft)
30.06.2018 22:24 16,4 °C 84 % 1011,1 hPa 0,0 mm 0,0 km/h (0 Bft) O-SO 115 ° 0 min 0,000 mm 0,0 UV-I 0 W/m² 13,7 °C 16,4 °C 0,0 km/h (0 Bft)
30.06.2018 22:25 16,3 °C 85 % 1011,1 hPa 0,0 mm 0,0 km/h (0 Bft) O-SO 115 ° 0 min 0,000 mm 0,0 UV-I 0 W/m² 13,8 °C 16,3 °C 0,0 km/h (0 Bft)
30.06.2018 22:26 16,3 °C 85 % 1011,1 hPa 0,0 mm 0,0 km/h (0 Bft) O-SO 115 ° 0 min 0,000 mm 0,0 UV-I 0 W/m² 13,8 °C 16,3 °C 0,0 km/h (0 Bft)
30.06.2018 22:27 16,4 °C 85 % 1011,1 hPa 0,0 mm 0,0 km/h (0 Bft) O-SO 115 ° 0 min 0,000 mm 0,0 UV-I 0 W/m² 13,9 °C 16,4 °C 0,0 km/h (0 Bft)
30.06.2018 22:28 16,5 °C 85 % 1011,1 hPa 0,0 mm 0,1 km/h (0 Bft) O-SO 115 ° 0 min 0,000 mm 0,0 UV-I 0 W/m² 14,0 °C 16,5 °C 1,6 km/h (1 Bft)
30.06.2018 22:29 16,6 °C 85 % 1011,1 hPa 0,0 mm 0,0 km/h (0 Bft) O-SO 115 ° 0 min 0,000 mm 0,0 UV-I 0 W/m² 14,1 °C 16,6 °C 0,0 km/h (0 Bft)
30.06.2018 22:30 16,6 °C 85 % 1011,1 hPa 0,0 mm 0,9 km/h (0 Bft) O-SO 115 ° 0 min 0,000 mm 0,0 UV-I 0 W/m² 14,1 °C 16,6 °C 1,6 km/h (1 Bft)
30.06.2018 22:31 16,5 °C 84 % 1011,1 hPa 0,0 mm 0,0 km/h (0 Bft) O-SO 115 ° 0 min 0,000 mm 0,0 UV-I 0 W/m² 13,8 °C 16,5 °C 0,0 km/h (0 Bft)
30.06.2018 22:32 16,5 °C 84 % 1011,1 hPa 0,0 mm 0,0 km/h (0 Bft) O-SO 115 ° 0 min 0,000 mm 0,0 UV-I 0 W/m² 13,8 °C 16,5 °C 0,0 km/h (0 Bft)
30.06.2018 22:33 16,4 °C 85 % 1011,1 hPa 0,0 mm 0,0 km/h (0 Bft) O-SO 115 ° 0 min 0,000 mm 0,0 UV-I 0 W/m² 13,9 °C 16,4 °C 0,0 km/h (0 Bft)
30.06.2018 22:34 16,3 °C 85 % 1011,1 hPa 0,0 mm 0,3 km/h (0 Bft) O-SO 115 ° 0 min 0,000 mm 0,0 UV-I 0 W/m² 13,8 °C 16,3 °C 1,6 km/h (1 Bft)
30.06.2018 22:35 16,3 °C 85 % 1011,2 hPa 0,0 mm 0,0 km/h (0 Bft) O-SO 115 ° 0 min 0,000 mm 0,0 UV-I 0 W/m² 13,8 °C 16,3 °C 0,0 km/h (0 Bft)
30.06.2018 22:36 16,3 °C 85 % 1011,2 hPa 0,0 mm 0,5 km/h (0 Bft) O-SO 115 ° 0 min 0,000 mm 0,0 UV-I 0 W/m² 13,8 °C 16,3 °C 3,2 km/h (1 Bft)
30.06.2018 22:37 16,3 °C 84 % 1011,2 hPa 0,0 mm 1,4 km/h (1 Bft) O 93 ° 0 min 0,000 mm 0,0 UV-I 0 W/m² 13,6 °C 16,3 °C 3,2 km/h (1 Bft)
30.06.2018 22:38 16,4 °C 85 % 1011,2 hPa 0,0 mm 0,0 km/h (0 Bft) O 93 ° 0 min 0,000 mm 0,0 UV-I 0 W/m² 13,9 °C 16,4 °C 0,0 km/h (0 Bft)
30.06.2018 22:39 16,4 °C 84 % 1011,2 hPa 0,0 mm 0,0 km/h (0 Bft) O 93 ° 0 min 0,000 mm 0,0 UV-I 0 W/m² 13,7 °C 16,4 °C 0,0 km/h (0 Bft)
30.06.2018 22:40 16,5 °C 84 % 1011,2 hPa 0,0 mm 0,0 km/h (0 Bft) O 93 ° 0 min 0,000 mm 0,0 UV-I 0 W/m² 13,8 °C 16,5 °C 0,0 km/h (0 Bft)
30.06.2018 22:41 16,6 °C 84 % 1011,2 hPa 0,0 mm 0,0 km/h (0 Bft) O 93 ° 0 min 0,000 mm 0,0 UV-I 0 W/m² 13,9 °C 16,6 °C 0,0 km/h (0 Bft)
30.06.2018 22:42 16,6 °C 83 % 1011,2 hPa 0,0 mm 1,0 km/h (0 Bft) S-SO 157 ° 0 min 0,000 mm 0,0 UV-I 0 W/m² 13,7 °C 16,6 °C 3,2 km/h (1 Bft)
30.06.2018 22:43 16,6 °C 83 % 1011,2 hPa 0,0 mm 0,1 km/h (0 Bft) S-SO 157 ° 0 min 0,000 mm 0,0 UV-I 0 W/m² 13,7 °C 16,6 °C 1,6 km/h (1 Bft)
30.06.2018 22:44 16,7 °C 82 % 1011,2 hPa 0,0 mm 0,0 km/h (0 Bft) S-SO 157 ° 0 min 0,000 mm 0,0 UV-I 0 W/m² 13,6 °C 16,7 °C 0,0 km/h (0 Bft)
30.06.2018 22:45 16,7 °C 82 % 1011,2 hPa 0,0 mm 0,1 km/h (0 Bft) S-SO 157 ° 0 min 0,000 mm 0,0 UV-I 0 W/m² 13,6 °C 16,7 °C 1,6 km/h (1 Bft)
30.06.2018 22:46 16,7 °C 82 % 1011,2 hPa 0,0 mm 0,8 km/h (0 Bft) O-SO 104 ° 0 min 0,000 mm 0,0 UV-I 0 W/m² 13,6 °C 16,7 °C 3,2 km/h (1 Bft)
30.06.2018 22:47 16,7 °C 82 % 1011,2 hPa 0,0 mm 0,6 km/h (0 Bft) O-SO 104 ° 0 min 0,000 mm 0,0 UV-I 0 W/m² 13,6 °C 16,7 °C 1,6 km/h (1 Bft)
30.06.2018 22:48 16,6 °C 82 % 1011,2 hPa 0,0 mm 0,7 km/h (0 Bft) O-SO 104 ° 0 min 0,000 mm 0,0 UV-I 0 W/m² 13,5 °C 16,6 °C 1,6 km/h (1 Bft)
30.06.2018 22:49 16,6 °C 82 % 1011,2 hPa 0,0 mm 1,9 km/h (1 Bft) O-NO 71 ° 0 min 0,000 mm 0,0 UV-I 0 W/m² 13,5 °C 16,6 °C 4,8 km/h (1 Bft)
30.06.2018 22:50 16,7 °C 82 % 1011,2 hPa 0,0 mm 0,5 km/h (0 Bft) O-NO 71 ° 0 min 0,000 mm 0,0 UV-I 0 W/m² 13,6 °C 16,7 °C 1,6 km/h (1 Bft)
30.06.2018 22:51 16,7 °C 81 % 1011,3 hPa 0,0 mm 0,0 km/h (0 Bft) O-NO 71 ° 0 min 0,000 mm 0,0 UV-I 0 W/m² 13,4 °C 16,7 °C 0,0 km/h (0 Bft)
30.06.2018 22:52 16,7 °C 82 % 1011,3 hPa 0,0 mm 0,0 km/h (0 Bft) O-NO 71 ° 0 min 0,000 mm 0,0 UV-I 0 W/m² 13,6 °C 16,7 °C 0,0 km/h (0 Bft)
30.06.2018 22:53 16,6 °C 81 % 1011,3 hPa 0,0 mm 1,2 km/h (1 Bft) O-NO 75 ° 0 min 0,000 mm 0,0 UV-I 0 W/m² 13,3 °C 16,6 °C 3,2 km/h (1 Bft)
30.06.2018 22:54 16,7 °C 81 % 1011,3 hPa 0,0 mm 0,0 km/h (0 Bft) O-NO 75 ° 0 min 0,000 mm 0,0 UV-I 0 W/m² 13,4 °C 16,7 °C 0,0 km/h (0 Bft)
30.06.2018 22:55 16,7 °C 80 % 1011,2 hPa 0,0 mm 1,2 km/h (1 Bft) NO 40 ° 0 min 0,000 mm 0,0 UV-I 0 W/m² 13,2 °C 16,7 °C 1,6 km/h (1 Bft)
30.06.2018 22:56 16,7 °C 80 % 1011,3 hPa 0,0 mm 3,5 km/h (1 Bft) O-NO 77 ° 0 min 0,000 mm 0,0 UV-I 0 W/m² 13,2 °C 16,7 °C 8,0 km/h (2 Bft)
30.06.2018 22:57 16,7 °C 81 % 1011,2 hPa 0,0 mm 1,2 km/h (1 Bft) O-NO 77 ° 0 min 0,000 mm 0,0 UV-I 0 W/m² 13,4 °C 16,7 °C 3,2 km/h (1 Bft)
30.06.2018 22:58 16,6 °C 81 % 1011,3 hPa 0,0 mm 2,2 km/h (1 Bft) O-NO 78 ° 0 min 0,000 mm 0,0 UV-I 0 W/m² 13,3 °C 16,6 °C 4,8 km/h (1 Bft)
30.06.2018 22:59 16,4 °C 81 % 1011,2 hPa 0,0 mm 0,0 km/h (0 Bft) O-NO 78 ° 0 min 0,000 mm 0,0 UV-I 0 W/m² 13,1 °C 16,4 °C 0,0 km/h (0 Bft)
30.06.2018 23:00 16,3 °C 81 % 1011,2 hPa 0,0 mm 0,0 km/h (0 Bft) O-NO 78 ° 0 min 0,000 mm 0,0 UV-I 0 W/m² 13,0 °C 16,3 °C 0,0 km/h (0 Bft)
30.06.2018 23:01 16,3 °C 81 % 1011,2 hPa 0,0 mm 0,1 km/h (0 Bft) O-NO 78 ° 0 min 0,025 mm 0,0 UV-I 0 W/m² 13,0 °C 16,3 °C 1,6 km/h (1 Bft)
30.06.2018 23:02 16,2 °C 81 % 1011,3 hPa 0,0 mm 1,9 km/h (1 Bft) O-SO 106 ° 0 min 0,000 mm 0,0 UV-I 0 W/m² 12,9 °C 16,2 °C 3,2 km/h (1 Bft)
30.06.2018 23:03 16,1 °C 82 % 1011,2 hPa 0,0 mm 1,2 km/h (1 Bft) O-SO 106 ° 0 min 0,000 mm 0,0 UV-I 0 W/m² 13,0 °C 16,1 °C 3,2 km/h (1 Bft)
30.06.2018 23:04 16,1 °C 81 % 1011,3 hPa 0,0 mm 0,1 km/h (0 Bft) O-SO 106 ° 0 min 0,000 mm 0,0 UV-I 0 W/m² 12,8 °C 16,1 °C 1,6 km/h (1 Bft)
30.06.2018 23:05 16,1 °C 81 % 1011,2 hPa 0,0 mm 0,0 km/h (0 Bft) O-SO 106 ° 0 min 0,000 mm 0,0 UV-I 0 W/m² 12,8 °C 16,1 °C 0,0 km/h (0 Bft)
30.06.2018 23:06 16,1 °C 81 % 1011,2 hPa 0,0 mm 0,0 km/h (0 Bft) O-SO 106 ° 0 min 0,000 mm 0,0 UV-I 0 W/m² 12,8 °C 16,1 °C 0,0 km/h (0 Bft)
30.06.2018 23:07 16,0 °C 81 % 1011,2 hPa 0,0 mm 1,2 km/h (1 Bft) O-SO 106 ° 0 min 0,000 mm 0,0 UV-I 0 W/m² 12,7 °C 16,0 °C 3,2 km/h (1 Bft)
30.06.2018 23:08 15,9 °C 81 % 1011,2 hPa 0,0 mm 0,3 km/h (0 Bft) O-SO 106 ° 0 min 0,000 mm 0,0 UV-I 0 W/m² 12,6 °C 15,9 °C 1,6 km/h (1 Bft)
30.06.2018 23:09 15,9 °C 81 % 1011,2 hPa 0,0 mm 0,3 km/h (0 Bft) O-SO 106 ° 0 min 0,000 mm 0,0 UV-I 0 W/m² 12,6 °C 15,9 °C 1,6 km/h (1 Bft)
30.06.2018 23:10 16,0 °C 80 % 1011,2 hPa 0,0 mm 0,1 km/h (0 Bft) O-SO 106 ° 0 min 0,000 mm 0,0 UV-I 0 W/m² 12,5 °C 16,0 °C 1,6 km/h (1 Bft)
30.06.2018 23:11 16,0 °C 80 % 1011,3 hPa 0,0 mm 1,4 km/h (1 Bft) O-SO 111 ° 0 min 0,000 mm 0,0 UV-I 0 W/m² 12,5 °C 16,0 °C 4,8 km/h (1 Bft)
30.06.2018 23:12 16,1 °C 79 % 1011,3 hPa 0,0 mm 0,7 km/h (0 Bft) O-SO 109 ° 0 min 0,000 mm 0,0 UV-I 0 W/m² 12,5 °C 16,1 °C 1,6 km/h (1 Bft)
30.06.2018 23:13 16,1 °C 79 % 1011,3 hPa 0,0 mm 0,2 km/h (0 Bft) O-SO 111 ° 0 min 0,000 mm 0,0 UV-I 0 W/m² 12,5 °C 16,1 °C 1,6 km/h (1 Bft)
30.06.2018 23:14 16,1 °C 78 % 1011,3 hPa 0,0 mm 0,0 km/h (0 Bft) O-SO 114 ° 0 min 0,000 mm 0,0 UV-I 0 W/m² 12,3 °C 16,1 °C 0,0 km/h (0 Bft)
30.06.2018 23:15 16,1 °C 78 % 1011,4 hPa 0,0 mm 0,0 km/h (0 Bft) O-SO 114 ° 0 min 0,000 mm 0,0 UV-I 0 W/m² 12,3 °C 16,1 °C 0,0 km/h (0 Bft)
30.06.2018 23:16 16,1 °C 77 % 1011,4 hPa 0,0 mm 0,0 km/h (0 Bft) O-SO 114 ° 0 min 0,000 mm 0,0 UV-I 0 W/m² 12,1 °C 16,1 °C 0,0 km/h (0 Bft)
30.06.2018 23:17 16,1 °C 77 % 1011,4 hPa 0,0 mm 0,0 km/h (0 Bft) O-SO 114 ° 0 min 0,000 mm 0,0 UV-I 0 W/m² 12,1 °C 16,1 °C 0,0 km/h (0 Bft)
30.06.2018 23:18 16,0 °C 78 % 1011,3 hPa 0,0 mm 0,6 km/h (0 Bft) O-SO 105 ° 0 min 0,000 mm 0,0 UV-I 0 W/m² 12,2 °C 16,0 °C 3,2 km/h (1 Bft)
30.06.2018 23:19 15,9 °C 78 % 1011,4 hPa 0,0 mm 0,1 km/h (0 Bft) O-SO 105 ° 0 min 0,000 mm 0,0 UV-I 0 W/m² 12,1 °C 15,9 °C 1,6 km/h (1 Bft)
30.06.2018 23:20 15,8 °C 78 % 1011,3 hPa 0,0 mm 1,6 km/h (1 Bft) O 99 ° 0 min 0,000 mm 0,0 UV-I 0 W/m² 12,0 °C 15,8 °C 4,8 km/h (1 Bft)
30.06.2018 23:21 15,8 °C 78 % 1011,3 hPa 0,0 mm 0,0 km/h (0 Bft) O 99 ° 0 min 0,000 mm 0,0 UV-I 0 W/m² 12,0 °C 15,8 °C 0,0 km/h (0 Bft)
30.06.2018 23:22 15,8 °C 78 % 1011,3 hPa 0,0 mm 0,0 km/h (0 Bft) O 99 ° 0 min 0,000 mm 0,0 UV-I 0 W/m² 12,0 °C 15,8 °C 0,0 km/h (0 Bft)
30.06.2018 23:23 15,7 °C 79 % 1011,3 hPa 0,0 mm 0,0 km/h (0 Bft) O 99 ° 0 min 0,000 mm 0,0 UV-I 0 W/m² 12,1 °C 15,7 °C 0,0 km/h (0 Bft)
30.06.2018 23:24 15,6 °C 79 % 1011,3 hPa 0,0 mm 0,0 km/h (0 Bft) O 99 ° 0 min 0,000 mm 0,0 UV-I 0 W/m² 12,0 °C 15,6 °C 0,0 km/h (0 Bft)
30.06.2018 23:25 15,4 °C 79 % 1011,3 hPa 0,0 mm 0,7 km/h (0 Bft) O 99 ° 0 min 0,000 mm 0,0 UV-I 0 W/m² 11,8 °C 15,4 °C 1,6 km/h (1 Bft)
30.06.2018 23:26 15,5 °C 78 % 1011,4 hPa 0,0 mm 0,7 km/h (0 Bft) O 99 ° 0 min 0,000 mm 0,0 UV-I 0 W/m² 11,7 °C 15,5 °C 1,6 km/h (1 Bft)
30.06.2018 23:27 15,6 °C 77 % 1011,3 hPa 0,0 mm 0,0 km/h (0 Bft) O 99 ° 0 min 0,000 mm 0,0 UV-I 0 W/m² 11,6 °C 15,6 °C 0,0 km/h (0 Bft)
30.06.2018 23:28 15,7 °C 77 % 1011,3 hPa 0,0 mm 0,6 km/h (0 Bft) O 99 ° 0 min 0,000 mm 0,0 UV-I 0 W/m² 11,7 °C 15,7 °C 1,6 km/h (1 Bft)
30.06.2018 23:29 15,7 °C 77 % 1011,3 hPa 0,0 mm 0,7 km/h (0 Bft) O 99 ° 0 min 0,000 mm 0,0 UV-I 0 W/m² 11,7 °C 15,7 °C 3,2 km/h (1 Bft)
30.06.2018 23:30 15,7 °C 76 % 1011,3 hPa 0,0 mm 0,2 km/h (0 Bft) O 99 ° 0 min 0,000 mm 0,0 UV-I 0 W/m² 11,5 °C 15,7 °C 1,6 km/h (1 Bft)
30.06.2018 23:31 15,7 °C 77 % 1011,3 hPa 0,0 mm 1,4 km/h (1 Bft) O 99 ° 0 min 0,000 mm 0,0 UV-I 0 W/m² 11,7 °C 15,7 °C 3,2 km/h (1 Bft)
30.06.2018 23:32 15,6 °C 76 % 1011,4 hPa 0,0 mm 2,5 km/h (1 Bft) O-SO 108 ° 0 min 0,000 mm 0,0 UV-I 0 W/m² 11,4 °C 15,6 °C 4,8 km/h (1 Bft)
30.06.2018 23:33 15,6 °C 77 % 1011,3 hPa 0,0 mm 0,3 km/h (0 Bft) O-SO 108 ° 0 min 0,000 mm 0,0 UV-I 0 W/m² 11,6 °C 15,6 °C 3,2 km/h (1 Bft)
30.06.2018 23:34 15,6 °C 77 % 1011,3 hPa 0,0 mm 0,0 km/h (0 Bft) O-SO 108 ° 0 min 0,000 mm 0,0 UV-I 0 W/m² 11,6 °C 15,6 °C 0,0 km/h (0 Bft)
30.06.2018 23:35 15,6 °C 77 % 1011,4 hPa 0,0 mm 0,0 km/h (0 Bft) O-SO 108 ° 0 min 0,000 mm 0,0 UV-I 0 W/m² 11,6 °C 15,6 °C 0,0 km/h (0 Bft)
30.06.2018 23:36 15,5 °C 77 % 1011,4 hPa 0,0 mm 0,0 km/h (0 Bft) O-SO 108 ° 0 min 0,000 mm 0,0 UV-I 0 W/m² 11,5 °C 15,5 °C 0,0 km/h (0 Bft)
30.06.2018 23:37 15,6 °C 76 % 1011,4 hPa 0,0 mm 0,0 km/h (0 Bft) O-SO 108 ° 0 min 0,000 mm 0,0 UV-I 0 W/m² 11,4 °C 15,6 °C 0,0 km/h (0 Bft)
30.06.2018 23:38 15,4 °C 77 % 1011,4 hPa 0,0 mm 0,0 km/h (0 Bft) O-SO 108 ° 0 min 0,000 mm 0,0 UV-I 0 W/m² 11,4 °C 15,4 °C 0,0 km/h (0 Bft)
30.06.2018 23:39 15,4 °C 76 % 1011,4 hPa 0,0 mm 0,0 km/h (0 Bft) O-SO 108 ° 0 min 0,000 mm 0,0 UV-I 0 W/m² 11,2 °C 15,4 °C 0,0 km/h (0 Bft)
30.06.2018 23:40 15,4 °C 77 % 1011,4 hPa 0,0 mm 0,0 km/h (0 Bft) O-SO 108 ° 0 min 0,000 mm 0,0 UV-I 0 W/m² 11,4 °C 15,4 °C 0,0 km/h (0 Bft)
30.06.2018 23:41 15,4 °C 76 % 1011,4 hPa 0,0 mm 0,0 km/h (0 Bft) O-SO 108 ° 0 min 0,000 mm 0,0 UV-I 0 W/m² 11,2 °C 15,4 °C 0,0 km/h (0 Bft)
30.06.2018 23:42 15,3 °C 77 % 1011,4 hPa 0,0 mm 0,0 km/h (0 Bft) O-SO 108 ° 0 min 0,000 mm 0,0 UV-I 0 W/m² 11,3 °C 15,3 °C 0,0 km/h (0 Bft)
30.06.2018 23:43 15,2 °C 77 % 1011,4 hPa 0,0 mm 0,0 km/h (0 Bft) O-SO 108 ° 0 min 0,000 mm 0,0 UV-I 0 W/m² 11,2 °C 15,2 °C 0,0 km/h (0 Bft)
30.06.2018 23:44 15,1 °C 78 % 1011,4 hPa 0,0 mm 0,0 km/h (0 Bft) O-SO 108 ° 0 min 0,000 mm 0,0 UV-I 0 W/m² 11,3 °C 15,1 °C 0,0 km/h (0 Bft)
30.06.2018 23:45 15,0 °C 78 % 1011,4 hPa 0,0 mm 0,0 km/h (0 Bft) O-SO 108 ° 0 min 0,000 mm 0,0 UV-I 0 W/m² 11,2 °C 15,0 °C 0,0 km/h (0 Bft)
30.06.2018 23:46 15,1 °C 77 % 1011,4 hPa 0,0 mm 0,0 km/h (0 Bft) O-SO 108 ° 0 min 0,000 mm 0,0 UV-I 0 W/m² 11,1 °C 15,1 °C 0,0 km/h (0 Bft)
30.06.2018 23:47 15,1 °C 77 % 1011,4 hPa 0,0 mm 0,0 km/h (0 Bft) O-SO 108 ° 0 min 0,000 mm 0,0 UV-I 0 W/m² 11,1 °C 15,1 °C 0,0 km/h (0 Bft)
30.06.2018 23:48 15,0 °C 77 % 1011,4 hPa 0,0 mm 0,0 km/h (0 Bft) O-SO 108 ° 0 min 0,000 mm 0,0 UV-I 0 W/m² 11,0 °C 15,0 °C 0,0 km/h (0 Bft)
30.06.2018 23:49 15,0 °C 77 % 1011,4 hPa 0,0 mm 0,0 km/h (0 Bft) O-SO 108 ° 0 min 0,000 mm 0,0 UV-I 0 W/m² 11,0 °C 15,0 °C 0,0 km/h (0 Bft)
30.06.2018 23:50 15,0 °C 77 % 1011,4 hPa 0,0 mm 0,0 km/h (0 Bft) O-SO 108 ° 0 min 0,000 mm 0,0 UV-I 0 W/m² 11,0 °C 15,0 °C 0,0 km/h (0 Bft)
30.06.2018 23:51 14,9 °C 77 % 1011,3 hPa 0,0 mm 0,0 km/h (0 Bft) O-SO 108 ° 0 min 0,000 mm 0,0 UV-I 0 W/m² 10,9 °C 14,9 °C 0,0 km/h (0 Bft)
30.06.2018 23:52 14,9 °C 77 % 1011,3 hPa 0,0 mm 0,0 km/h (0 Bft) O-SO 108 ° 0 min 0,000 mm 0,0 UV-I 0 W/m² 10,9 °C 14,9 °C 0,0 km/h (0 Bft)
30.06.2018 23:53 14,9 °C 76 % 1011,3 hPa 0,0 mm 0,0 km/h (0 Bft) O-SO 108 ° 0 min 0,000 mm 0,0 UV-I 0 W/m² 10,7 °C 14,9 °C 0,0 km/h (0 Bft)
30.06.2018 23:54 14,9 °C 77 % 1011,3 hPa 0,0 mm 0,0 km/h (0 Bft) O-SO 108 ° 0 min 0,000 mm 0,0 UV-I 0 W/m² 10,9 °C 14,9 °C 0,0 km/h (0 Bft)
30.06.2018 23:55 14,9 °C 76 % 1011,3 hPa 0,0 mm 0,0 km/h (0 Bft) O-SO 108 ° 0 min 0,000 mm 0,0 UV-I 0 W/m² 10,7 °C 14,9 °C 0,0 km/h (0 Bft)
30.06.2018 23:56 14,9 °C 76 % 1011,3 hPa 0,0 mm 0,0 km/h (0 Bft) O-SO 108 ° 0 min 0,000 mm 0,0 UV-I 0 W/m² 10,7 °C 14,9 °C 0,0 km/h (0 Bft)
30.06.2018 23:57 14,9 °C 76 % 1011,3 hPa 0,0 mm 0,0 km/h (0 Bft) O-SO 108 ° 0 min 0,000 mm 0,0 UV-I 0 W/m² 10,7 °C 14,9 °C 0,0 km/h (0 Bft)
30.06.2018 23:58 14,8 °C 76 % 1011,3 hPa 0,0 mm 0,0 km/h (0 Bft) O-SO 108 ° 0 min 0,000 mm 0,0 UV-I 0 W/m² 10,6 °C 14,8 °C 0,0 km/h (0 Bft)
30.06.2018 23:59 14,8 °C 77 % 1011,3 hPa 0,0 mm 0,0 km/h (0 Bft) O-SO 108 ° 0 min 0,000 mm 0,0 UV-I 0 W/m² 10,8 °C 14,8 °C 0,0 km/h (0 Bft)
_ Min-Zeit 05:53 16:03 17:04 - 23:59 - - - - - - 05:53 05:53 23:59
Minimum _ 11,3 °C 54 % 1010,2 hPa - 0,0 km/h (0 Bft) - - - - - - 10,5 °C 11,3 °C 0,0 km/h (0 Bft)
_ Max-Zeit 15:50 06:36 00:10 23:59 14:41 - - 13:04 13:00 13:14 13:53 12:33 15:50 17:56
Maximum _ 24,9 °C 96 % 1013,3 hPa 0,0 mm 12,5 km/h
N-NO (3 Bft)
- - 2 min 0,559 mm 7,7 UV-I 1065 W/m² 18,2 °C 24,9 °C 17,7 km/h
NO (3 Bft)
Durchschnitt _ 18,4 °C 78 % 1011,4 hPa #0,0 mm 1,9 km/h (1 Bft) O-NO - #5:04 h #4,216 mm 3,7 UV-I 278 W/m² 14,1 °C 18,4 °C 3,4 km/h (1 Bft)